[[{"header":{"parameterUnit":"m.s-1","parameterCategory":1,"la1":30.6,"la2":29.2853,"lo1":-89.7004,"lo2":-87.6739,"dy":0.0162,"dx":0.0183,"nx":112,"ny":82,"refTime":"2023-06-26T06:00:00:Z","depth":0,"parameterNumber":2,"parameterNumberName":"U-component_of_WINDS"},"data":[0.0,0.0,0.0,0.0,0.0,0.0,0.0,0.0,0.0,0.0,0.0,0.0,0.0,0.0,0.0,0.0,0.0,0.0,0.0,0.0,0.0,0.0,0.0,0.0,0.0,0.0,0.0,0.0,0.0,0.0,0.0,0.0,0.0,0.0,0.0,0.0,0.0,0.0,0.0,0.0,0.0,0.0,0.0,0.0,0.0,0.0,0.0,0.0,0.0,0.0,0.0,0.0,0.0,0.0,0.0,0.0,0.0,0.0,0.0,0.0,0.0,0.0,0.0,0.0,0.0,0.0,0.0,0.0,0.0,0.0,0.0,0.0,0.0,0.0,0.0,0.0,0.0,0.0,0.0,0.0,0.0,0.0,0.0,0.0,0.0,0.0,0.0,0.0,0.0,0.0,0.0,-2.7635,-2.76,-2.76,-2.76,-2.76,-2.76,-2.76,0.0,0.0,0.0,0.0,0.0,0.0,0.0,0.0,0.0,0.0,0.0,0.0,0.0,0.0,0.0,0.0,0.0,0.0,0.0,0.0,0.0,0.0,0.0,0.0,0.0,0.0,0.0,0.0,0.0,0.0,0.0,0.0,0.0,0.0,0.0,0.0,0.0,0.0,0.0,0.0,0.0,0.0,0.0,0.0,0.0,0.0,0.0,0.0,0.0,0.0,0.0,0.0,0.0,0.0,0.0,0.0,0.0,0.0,0.0,0.0,0.0,0.0,0.0,0.0,0.0,0.0,0.0,0.0,0.0,0.0,0.0,0.0,0.0,0.0,0.0,0.0,0.0,0.0,0.0,0.0,0.0,0.0,0.0,0.0,0.0,0.0,0.0,0.0,0.0,0.0,0.0,0.0,0.0,0.0,0.0,0.0,0.0,0.0,0.0,0.0,0.0,0.0,0.0,0.0,-2.771,-2.7625,-2.76,-2.76,-2.76,-2.76,-2.76,-2.76,0.0,0.0,0.0,0.0,0.0,0.0,0.0,0.0,0.0,0.0,0.0,0.0,0.0,0.0,0.0,0.0,0.0,0.0,0.0,0.0,0.0,0.0,0.0,0.0,0.0,0.0,0.0,0.0,0.0,0.0,0.0,0.0,0.0,0.0,0.0,0.0,0.0,0.0,0.0,0.0,0.0,0.0,0.0,0.0,0.0,0.0,0.0,0.0,0.0,0.0,0.0,0.0,0.0,0.0,0.0,0.0,0.0,0.0,0.0,0.0,0.0,0.0,0.0,0.0,0.0,0.0,0.0,0.0,0.0,0.0,0.0,0.0,0.0,0.0,0.0,0.0,0.0,0.0,0.0,0.0,0.0,0.0,0.0,0.0,0.0,0.0,0.0,0.0,0.0,0.0,0.0,0.0,0.0,0.0,0.0,0.0,0.0,0.0,0.0,0.0,0.0,0.0,0.0,-2.76,-2.76,-2.76,-2.76,-2.76,-2.76,-2.76,-2.7433,-2.7034,-2.7008,0.0,0.0,0.0,0.0,0.0,0.0,0.0,0.0,0.0,0.0,0.0,0.0,0.0,0.0,0.0,0.0,0.0,0.0,0.0,0.0,0.0,0.0,0.0,0.0,0.0,0.0,0.0,0.0,0.0,0.0,0.0,0.0,0.0,0.0,0.0,0.0,0.0,0.0,0.0,0.0,0.0,0.0,0.0,0.0,0.0,0.0,0.0,0.0,0.0,0.0,0.0,0.0,0.0,0.0,0.0,0.0,0.0,0.0,0.0,0.0,0.0,0.0,0.0,0.0,0.0,0.0,0.0,0.0,0.0,0.0,0.0,0.0,0.0,0.0,0.0,0.0,0.0,0.0,0.0,0.0,0.0,0.0,0.0,0.0,0.0,0.0,0.0,0.0,0.0,0.0,0.0,0.0,0.0,0.0,0.0,0.0,0.0,0.0,0.0,0.0,0.0,0.0,-2.76,-2.76,-2.76,-2.76,-2.76,-2.76,-2.76,-2.7357,-2.68,-2.659,0.0,0.0,0.0,0.0,0.0,0.0,0.0,0.0,0.0,0.0,0.0,0.0,0.0,0.0,0.0,0.0,0.0,0.0,0.0,0.0,0.0,0.0,0.0,0.0,0.0,0.0,0.0,0.0,0.0,0.0,0.0,0.0,0.0,0.0,0.0,0.0,0.0,0.0,0.0,0.0,0.0,0.0,0.0,0.0,0.0,0.0,0.0,0.0,0.0,0.0,0.0,0.0,0.0,0.0,0.0,0.0,0.0,0.0,0.0,0.0,0.0,0.0,0.0,0.0,0.0,0.0,0.0,0.0,0.0,0.0,0.0,0.0,0.0,0.0,0.0,0.0,0.0,0.0,0.0,0.0,0.0,0.0,0.0,0.0,0.0,0.0,0.0,0.0,0.0,0.0,0.0,0.0,0.0,0.0,0.0,0.0,0.0,0.0,0.0,0.0,0.0,0.0,-2.76,-2.76,-2.76,-2.76,-2.76,-2.76,-2.76,-2.7575,-2.7524,-2.6878,0.0,0.0,0.0,0.0,0.0,0.0,0.0,0.0,0.0,0.0,0.0,0.0,0.0,0.0,0.0,0.0,0.0,0.0,0.0,0.0,0.0,0.0,0.0,0.0,0.0,0.0,0.0,0.0,0.0,0.0,0.0,0.0,0.0,0.0,0.0,0.0,0.0,0.0,0.0,0.0,0.0,0.0,0.0,0.0,0.0,0.0,0.0,0.0,0.0,0.0,0.0,0.0,0.0,0.0,0.0,0.0,0.0,0.0,0.0,0.0,0.0,0.0,0.0,0.0,0.0,0.0,0.0,0.0,0.0,0.0,0.0,0.0,0.0,0.0,0.0,0.0,0.0,0.0,0.0,0.0,0.0,0.0,0.0,0.0,0.0,0.0,0.0,0.0,0.0,0.0,0.0,0.0,0.0,0.0,0.0,0.0,0.0,0.0,0.0,0.0,0.0,0.0,-2.76,-2.76,0.0,-2.76,-2.76,-2.76,-2.76,-2.7408,-2.693,0.0,0.0,0.0,0.0,0.0,0.0,0.0,0.0,0.0,0.0,0.0,0.0,0.0,0.0,0.0,0.0,0.0,0.0,0.0,0.0,0.0,0.0,0.0,0.0,0.0,0.0,0.0,0.0,0.0,0.0,0.0,0.0,0.0,0.0,0.0,0.0,0.0,0.0,0.0,0.0,0.0,0.0,0.0,0.0,0.0,0.0,0.0,0.0,0.0,0.0,0.0,0.0,0.0,0.0,0.0,0.0,0.0,0.0,0.0,0.0,0.0,0.0,0.0,0.0,0.0,0.0,0.0,0.0,0.0,0.0,0.0,0.0,0.0,0.0,0.0,0.0,0.0,0.0,0.0,0.0,0.0,0.0,0.0,0.0,0.0,0.0,0.0,0.0,0.0,0.0,0.0,0.0,0.0,0.0,0.0,0.0,0.0,0.0,0.0,0.0,0.0,0.0,-2.76,-2.76,-2.76,0.0,-2.76,-2.76,-2.76,-2.76,-2.7382,-2.6878,0.0,0.0,0.0,0.0,0.0,0.0,0.0,0.0,0.0,0.0,0.0,0.0,0.0,0.0,0.0,0.0,0.0,0.0,0.0,0.0,0.0,0.0,0.0,0.0,0.0,0.0,0.0,0.0,0.0,0.0,0.0,0.0,0.0,0.0,0.0,0.0,0.0,0.0,0.0,0.0,0.0,0.0,0.0,0.0,0.0,0.0,0.0,0.0,0.0,0.0,0.0,0.0,0.0,0.0,0.0,0.0,0.0,0.0,0.0,0.0,0.0,0.0,0.0,0.0,0.0,0.0,0.0,0.0,0.0,0.0,0.0,0.0,0.0,0.0,0.0,0.0,0.0,0.0,0.0,0.0,0.0,0.0,0.0,0.0,0.0,0.0,0.0,0.0,0.0,0.0,0.0,0.0,0.0,0.0,0.0,0.0,0.0,0.0,0.0,0.0,0.0,0.0,-2.76,-2.76,-2.76,-2.76,-2.76,-2.76,-2.76,-2.76,-2.76,0.0,0.0,0.0,0.0,0.0,0.0,0.0,0.0,0.0,0.0,0.0,0.0,0.0,0.0,0.0,0.0,0.0,0.0,0.0,0.0,0.0,0.0,0.0,0.0,0.0,0.0,0.0,0.0,0.0,0.0,0.0,0.0,0.0,0.0,0.0,0.0,0.0,0.0,0.0,0.0,0.0,0.0,0.0,0.0,0.0,0.0,0.0,0.0,0.0,0.0,0.0,0.0,0.0,0.0,0.0,0.0,0.0,0.0,0.0,0.0,0.0,0.0,0.0,0.0,0.0,0.0,0.0,0.0,0.0,0.0,0.0,0.0,0.0,0.0,0.0,0.0,0.0,0.0,0.0,0.0,0.0,0.0,0.0,0.0,0.0,0.0,0.0,0.0,0.0,0.0,0.0,0.0,0.0,0.0,0.0,0.0,0.0,0.0,0.0,0.0,0.0,0.0,0.0,-2.76,-2.76,-2.76,-2.76,-2.76,-2.76,-2.76,-2.76,-2.76,-2.76,0.0,0.0,0.0,0.0,0.0,0.0,0.0,0.0,0.0,0.0,0.0,0.0,0.0,0.0,0.0,0.0,0.0,0.0,0.0,0.0,0.0,0.0,0.0,0.0,0.0,0.0,0.0,0.0,0.0,0.0,0.0,0.0,0.0,0.0,0.0,0.0,0.0,0.0,0.0,0.0,0.0,0.0,0.0,0.0,0.0,0.0,0.0,0.0,0.0,0.0,0.0,0.0,0.0,0.0,0.0,0.0,0.0,0.0,0.0,0.0,0.0,0.0,0.0,0.0,0.0,0.0,0.0,0.0,0.0,0.0,0.0,0.0,0.0,0.0,0.0,0.0,0.0,0.0,0.0,0.0,0.0,0.0,0.0,0.0,0.0,0.0,0.0,0.0,0.0,0.0,0.0,0.0,0.0,0.0,0.0,0.0,0.0,0.0,0.0,0.0,0.0,0.0,-2.76,-2.76,-2.76,-2.76,-2.76,-2.76,-2.76,-2.76,-2.76,-2.76,0.0,0.0,0.0,0.0,0.0,0.0,0.0,0.0,0.0,0.0,0.0,0.0,0.0,0.0,0.0,0.0,0.0,0.0,0.0,0.0,0.0,0.0,0.0,0.0,0.0,0.0,0.0,0.0,0.0,0.0,0.0,0.0,0.0,0.0,0.0,0.0,0.0,0.0,0.0,0.0,0.0,0.0,0.0,0.0,0.0,0.0,0.0,0.0,0.0,0.0,0.0,0.0,0.0,0.0,0.0,0.0,0.0,0.0,0.0,0.0,0.0,0.0,0.0,0.0,0.0,0.0,0.0,0.0,0.0,0.0,0.0,0.0,0.0,0.0,0.0,0.0,0.0,0.0,0.0,0.0,0.0,0.0,0.0,0.0,0.0,0.0,0.0,0.0,0.0,0.0,0.0,0.0,0.0,0.0,0.0,0.0,0.0,0.0,0.0,0.0,0.0,0.0,-2.76,-2.76,-2.76,-2.76,-2.76,-2.76,-2.76,-2.76,-2.76,-2.76,0.0,0.0,0.0,0.0,0.0,0.0,0.0,0.0,0.0,0.0,0.0,0.0,0.0,0.0,0.0,0.0,0.0,0.0,0.0,0.0,0.0,0.0,0.0,0.0,0.0,0.0,0.0,0.0,0.0,0.0,0.0,0.0,0.0,0.0,0.0,0.0,0.0,0.0,0.0,0.0,0.0,0.0,0.0,0.0,0.0,0.0,0.0,0.0,0.0,0.0,0.0,0.0,0.0,0.0,0.0,0.0,0.0,0.0,0.0,0.0,-2.8822,0.0,0.0,0.0,0.0,0.0,0.0,0.0,0.0,0.0,0.0,0.0,0.0,0.0,0.0,0.0,0.0,0.0,0.0,0.0,0.0,0.0,0.0,0.0,0.0,0.0,0.0,0.0,0.0,0.0,0.0,0.0,0.0,0.0,0.0,0.0,0.0,0.0,0.0,0.0,0.0,0.0,-2.76,-2.76,-2.76,-2.76,-2.76,-2.76,-2.76,-2.76,-2.76,-2.76,-2.7458,0.0,0.0,0.0,0.0,0.0,0.0,0.0,0.0,0.0,0.0,0.0,0.0,0.0,0.0,0.0,0.0,0.0,0.0,0.0,0.0,0.0,0.0,0.0,0.0,0.0,0.0,0.0,0.0,0.0,0.0,0.0,0.0,0.0,0.0,0.0,0.0,0.0,0.0,0.0,0.0,0.0,0.0,0.0,0.0,0.0,0.0,0.0,0.0,0.0,0.0,0.0,0.0,0.0,0.0,0.0,0.0,0.0,0.0,0.0,0.0,-2.9213,0.0,0.0,0.0,0.0,0.0,0.0,0.0,0.0,0.0,0.0,0.0,0.0,0.0,0.0,0.0,0.0,0.0,0.0,0.0,0.0,0.0,0.0,0.0,0.0,0.0,0.0,0.0,0.0,0.0,0.0,0.0,0.0,0.0,0.0,0.0,0.0,0.0,0.0,0.0,0.0,-2.76,-2.76,-2.76,-2.76,-2.76,-2.76,-2.76,-2.76,-2.76,-2.76,-2.728,0.0,0.0,0.0,0.0,0.0,0.0,0.0,0.0,0.0,0.0,0.0,0.0,0.0,0.0,0.0,0.0,0.0,0.0,0.0,0.0,0.0,0.0,0.0,0.0,0.0,0.0,0.0,0.0,0.0,0.0,0.0,0.0,0.0,0.0,0.0,0.0,0.0,0.0,0.0,0.0,0.0,0.0,0.0,0.0,0.0,0.0,0.0,0.0,0.0,0.0,0.0,0.0,0.0,-3.4082,-3.4166,-3.4146,-3.3639,-3.3406,-3.3271,-3.0818,-3.004,-3.0429,-2.9685,0.0,0.0,0.0,0.0,0.0,0.0,0.0,0.0,0.0,0.0,0.0,0.0,0.0,0.0,0.0,0.0,0.0,0.0,0.0,0.0,0.0,0.0,0.0,0.0,-3.0456,-3.0166,-2.9042,0.0,0.0,0.0,0.0,0.0,0.0,0.0,0.0,0.0,0.0,0.0,-2.7929,-2.7944,-2.7944,-2.7944,-2.7944,-2.7944,-2.7944,-2.7944,-2.7944,-2.7944,-2.7386,-2.6975,0.0,0.0,0.0,0.0,0.0,0.0,0.0,0.0,0.0,0.0,0.0,0.0,0.0,0.0,0.0,0.0,0.0,0.0,0.0,0.0,0.0,0.0,0.0,0.0,0.0,0.0,0.0,0.0,0.0,0.0,0.0,0.0,-3.3605,-3.3495,0.0,0.0,0.0,0.0,0.0,0.0,0.0,0.0,0.0,0.0,0.0,0.0,0.0,-3.5281,-3.5126,-3.4863,-3.4712,-3.4641,-3.4287,-3.4125,-3.4105,-3.3618,-3.3406,-3.3389,-3.3,0.0,-3.1955,-3.1207,0.0,0.0,0.0,0.0,0.0,0.0,0.0,0.0,0.0,0.0,0.0,0.0,0.0,0.0,0.0,0.0,0.0,0.0,0.0,0.0,0.0,0.0,-3.1171,-3.1095,-3.1075,-3.0898,0.0,-2.9651,-2.9088,-2.8511,-2.8367,0.0,0.0,0.0,0.0,0.0,0.0,0.0,-2.9277,-2.9352,-2.9352,-2.9352,-2.9352,-2.9352,-2.9352,-2.9352,-2.9352,-2.9352,-2.9229,-2.8887,-2.8178,-2.766,0.0,0.0,0.0,0.0,0.0,0.0,0.0,0.0,0.0,0.0,0.0,0.0,0.0,0.0,0.0,0.0,0.0,0.0,0.0,0.0,0.0,0.0,0.0,0.0,0.0,0.0,0.0,0.0,0.0,-3.3465,-3.355,-3.3762,-3.4197,-3.4472,0.0,0.0,0.0,0.0,0.0,0.0,0.0,0.0,0.0,-3.5851,-3.5643,-3.5398,-3.5096,-3.5297,-3.542,-3.542,-3.5403,-3.5388,-3.5368,-3.4861,-3.4636,-3.4602,-3.4201,-3.3829,-3.3495,-3.2747,-3.2442,-3.2442,0.0,0.0,0.0,0.0,-3.2442,-3.2442,-3.2442,-3.2171,0.0,-3.1502,0.0,0.0,0.0,0.0,0.0,0.0,0.0,0.0,0.0,0.0,-3.2442,-3.2442,-3.2442,-3.2281,-3.1664,-3.1599,-3.1249,0.0,-2.9343,-2.9242,-2.963,0.0,0.0,0.0,0.0,-2.9277,-2.9577,-2.9606,-2.9606,-2.9606,-2.9606,-2.9606,-2.9606,-2.9606,-2.9606,-2.9606,-2.9606,-2.9441,-2.9083,-2.8817,-2.8327,0.0,0.0,0.0,0.0,0.0,0.0,0.0,0.0,0.0,0.0,0.0,0.0,0.0,0.0,0.0,0.0,0.0,0.0,0.0,0.0,0.0,0.0,0.0,0.0,0.0,0.0,0.0,0.0,-3.3996,-3.4098,-3.4403,-3.4968,-3.5334,0.0,0.0,0.0,0.0,0.0,0.0,-3.6611,-3.6798,-3.6738,-3.634,-3.6374,-3.6213,-3.5794,-3.6334,-3.6587,-3.6587,-3.671,-3.6767,-3.6767,-3.6361,-3.6174,-3.614,-3.5402,-3.5103,-3.5018,-3.388,-3.3406,-3.3406,-3.3406,-3.3406,-3.3406,-3.3406,-3.3406,-3.3406,-3.3406,-3.3034,-3.2581,-3.2581,-3.2205,-3.1688,-3.1229,0.0,0.0,0.0,0.0,-3.2007,-3.2461,-3.2983,-3.3406,-3.3406,-3.3406,-3.3284,-3.284,-3.2949,-3.2695,0.0,-3.0394,-3.0179,-3.0509,0.0,0.0,0.0,0.0,-2.9879,-3.0058,-3.0088,-3.0088,-3.0088,-3.0088,-3.0088,-3.0088,-3.0088,-3.0088,-3.0088,-3.0088,-3.0088,-3.0088,-2.9909,-2.9555,-2.8967,0.0,0.0,0.0,0.0,0.0,0.0,0.0,0.0,0.0,0.0,0.0,0.0,0.0,0.0,0.0,0.0,0.0,0.0,0.0,0.0,0.0,0.0,0.0,0.0,0.0,0.0,0.0,0.0,0.0,-3.6174,-3.6211,0.0,0.0,0.0,0.0,-3.6303,-3.7015,-3.7437,-3.7437,-3.8157,-3.8563,-3.8548,-3.8714,-3.8797,-3.8779,-3.857,-3.846,-3.8456,-3.803,-3.7835,-3.7811,-3.7787,-3.7787,-3.7753,-3.6992,-3.6677,-3.6508,-3.4303,-3.3406,-3.3406,-3.3406,-3.3406,-3.3406,-3.3406,-3.3406,-3.3406,-3.3406,-3.3389,-3.3339,-3.3339,-3.3322,-3.3267,-3.3246,-3.3225,0.0,0.0,-3.328,-3.3313,-3.3334,-3.3372,-3.3406,-3.3406,-3.3406,-3.3385,-3.3364,-3.2927,-3.2344,0.0,-3.1422,-3.1196,-3.0602,0.0,-2.9828,-3.0372,-3.0447,-3.0687,-3.1316,-3.1406,-3.1406,-3.1406,-3.1406,-3.1406,-3.1406,-3.1406,-3.1406,-3.1406,-3.1406,-3.1406,-3.1406,-3.0806,-3.0434,-3.0391,-2.9082,0.0,0.0,0.0,0.0,0.0,0.0,0.0,0.0,0.0,0.0,0.0,0.0,0.0,0.0,0.0,0.0,0.0,0.0,0.0,0.0,0.0,0.0,0.0,0.0,0.0,0.0,0.0,0.0,-3.6256,-3.6758,0.0,-3.707,-3.7533,-3.7906,-3.8021,-3.8661,-3.9095,-3.9237,-3.9869,-4.0101,-3.9744,-3.9787,-3.9697,-3.9379,-3.8902,-3.8655,-3.8673,-3.8144,-3.7905,-3.7905,-3.7905,-3.7905,-3.7889,-3.7618,-3.7499,-3.7449,-3.6637,-3.5723,-3.4822,-3.4822,-3.4822,-3.4822,-3.4822,-3.4822,-3.4822,-3.4822,-3.4523,-3.4032,-3.3558,-3.3406,-3.3406,-3.3406,-3.3406,-3.3406,-3.3406,-3.3744,-3.4117,-3.4117,-3.4472,-3.4822,-3.4822,-3.4822,-3.4822,-3.4822,-3.4656,-3.4307,-3.3629,-3.2805,-3.2144,-3.1887,-3.1659,-3.1424,-3.1177,-3.1137,-3.1227,-3.1466,-3.1511,-3.1511,-3.1511,-3.1511,-3.1511,-3.1511,-3.1511,-3.1511,-3.1511,-3.1511,-3.1511,-3.1511,-3.1271,-3.1137,-3.1137,-3.0655,-2.9928,0.0,0.0,0.0,0.0,0.0,0.0,0.0,0.0,0.0,0.0,0.0,0.0,0.0,0.0,0.0,0.0,0.0,0.0,0.0,0.0,0.0,0.0,0.0,0.0,0.0,0.0,-3.6556,-3.7048,-3.7823,-3.8239,-3.8029,-3.8925,-3.9487,-3.9409,-3.9969,-4.0376,-4.049,-4.0957,-4.105,-4.0672,-4.0815,-4.0722,-4.0404,-4.0071,-3.9909,-3.9909,-3.9564,-3.9377,-3.9377,-3.9377,-3.9377,-3.936,-3.887,-3.865,-3.8599,-3.8108,-3.7313,-3.6377,-3.6377,-3.6377,-3.6343,-3.6113,-3.6011,-3.5977,-3.5684,-3.5278,-3.4793,-3.4298,-3.4129,-3.4129,-3.4129,-3.4129,-3.4129,-3.4129,-3.4506,-3.4878,-3.4878,-3.5228,-3.5538,-3.5316,-3.5253,-3.5207,-3.4958,-3.4934,-3.4728,-3.4062,-3.3391,-3.2876,-3.2644,-3.2382,-3.2064,-3.1582,-3.1511,-3.1511,-3.1511,-3.1511,-3.1511,-3.1511,-3.1511,-3.1511,-3.1511,-3.1511,-3.1511,-3.1511,-3.1511,-3.1511,-3.1511,-3.1511,-3.1511,-3.1511,-3.1511,-3.0881,-2.9635,0.0,0.0,0.0,0.0,0.0,0.0,0.0,0.0,0.0,0.0,0.0,0.0,0.0,0.0,0.0,0.0,0.0,0.0,0.0,0.0,0.0,0.0,0.0,-3.7807,-3.7912,-3.8118,-3.8648,-3.9426,-3.9688,-3.912,-4.0333,-4.0877,-4.0293,-4.0845,-4.1207,-4.1176,-4.1397,-4.1498,-4.1479,-4.1858,-4.2071,-4.2096,-4.2253,-4.2339,-4.2366,-4.2313,-4.2286,-4.2286,-4.2286,-4.2286,-4.2219,-4.0772,-4.0172,-4.0062,-3.8633,-3.8041,-3.8041,-3.7939,-3.7905,-3.7821,-3.7117,-3.6829,-3.6728,-3.5938,-3.5667,-3.5667,-3.5633,-3.5633,-3.5633,-3.56,-3.56,-3.56,-3.56,-3.56,-3.56,-3.56,-3.56,-3.5447,-3.4783,-3.4624,-3.4455,-3.3811,-3.3659,-3.3469,-3.2788,-3.3156,-3.3391,-3.2695,-3.1979,-3.1511,-3.1511,-3.1511,0.0,-3.1511,-3.1511,-3.1511,-3.1511,-3.1511,-3.1511,-3.1511,-3.1511,-3.1511,-3.1511,-3.1511,-3.1511,-3.1511,-3.1511,-3.1511,-3.1511,-3.1467,-3.1087,-3.0299,0.0,0.0,0.0,0.0,0.0,0.0,0.0,0.0,0.0,0.0,0.0,0.0,0.0,0.0,0.0,0.0,0.0,0.0,0.0,0.0,0.0,0.0,-3.7015,-3.7355,-3.7858,-3.8382,-3.8933,-3.9657,-4.0217,-4.0512,-4.1396,-4.1777,-4.1327,-4.2794,-4.3393,-4.2661,-4.3495,-4.3786,-4.3287,-4.3402,-4.3676,-4.4178,-4.3369,-4.3175,-4.3582,-4.2732,-4.2286,-4.2286,-4.2286,-4.2286,-4.2269,-4.1863,-4.1694,-4.1644,-4.1255,-4.1085,-4.0882,-3.8734,-3.7905,-3.7889,-3.7669,-3.7601,-3.7567,-3.7347,-3.728,-3.7195,-3.6637,-3.6468,-3.6349,-3.5769,-3.56,-3.56,-3.56,-3.56,-3.56,-3.56,-3.56,-3.5538,-3.5362,-3.5339,-3.5276,-3.5091,-3.5045,-3.4847,-3.4186,-3.3811,-3.3235,-3.2007,-3.164,-3.1511,-3.1511,-3.1511,0.0,-3.1511,-3.1511,-3.1511,-3.1511,-3.1511,-3.1511,-3.1511,-3.1511,-3.1511,-3.1511,-3.1511,-3.1511,-3.1511,-3.1511,-3.1511,-3.1511,-3.0925,-3.0524,0.0,0.0,0.0,0.0,0.0,0.0,0.0,0.0,0.0,0.0,0.0,0.0,0.0,0.0,0.0,0.0,0.0,0.0,0.0,0.0,0.0,0.0,-3.6656,-3.7173,-3.7467,-3.8028,-3.8702,-3.9464,-4.0304,-4.0887,-4.1002,-4.2219,-4.2929,-4.2709,-4.4025,-4.4691,-4.4355,-4.5078,-4.5465,-4.5423,-4.5217,-4.5457,-4.6152,-4.5199,-4.4879,-4.5232,-4.4514,-4.4012,-4.3724,-4.3724,-4.3555,-4.3234,-4.2912,-4.276,-4.2743,-4.2422,-4.2286,0.0,0.0,0.0,0.0,0.0,-3.8176,-3.7905,-3.7905,-3.7905,-3.7838,-3.7398,-3.7246,-3.7161,-3.6721,-3.6546,-3.6546,-3.6546,-3.6546,-3.6546,-3.6546,-3.6332,-3.6027,-3.5723,-3.5419,-3.5098,-3.4823,-3.4752,-3.4657,-3.426,-3.3862,0.0,-3.216,-3.1682,-3.1611,-3.191,-3.1697,-3.1511,-3.1511,-3.1511,-3.1511,-3.1511,-3.1511,-3.1511,-3.1511,-3.1511,0.0,0.0,0.0,-3.1511,-3.1511,-3.1511,0.0,0.0,0.0,-3.0807,-3.0807,0.0,0.0,0.0,-2.9688,-2.9325,0.0,0.0,0.0,0.0,0.0,0.0,0.0,0.0,0.0,0.0,0.0,0.0,0.0,0.0,0.0,0.0,-3.741,-3.7897,-3.8207,-3.8688,-3.9329,-4.019,-4.1227,-4.1705,-4.1285,-4.3067,-4.4289,-4.4337,-4.5075,-4.5733,-4.621,0.0,0.0,0.0,0.0,-4.707,-4.779,-4.7141,-4.6844,-4.6886,-4.6844,-4.6447,-4.5821,-4.5821,-4.5466,-4.4818,-4.4096,-4.373,-4.3595,-4.2946,-4.2625,-4.2523,-4.2354,-4.1897,-4.117,-3.9851,-3.8903,-3.8278,-3.8278,0.0,0.0,-3.8058,-3.8024,-3.8024,-3.7939,-3.7905,-3.7905,-3.7905,-3.7905,-3.7905,-3.7905,-3.7398,-3.6757,-3.6099,-3.5439,-3.4815,-3.4205,-3.4078,-3.4053,-3.3976,-3.3835,-3.3529,-3.2939,-3.2165,-3.1824,-3.2382,-3.1938,-3.1511,-3.1511,-3.1511,-3.1511,-3.1511,0.0,0.0,-3.1511,-3.1511,-3.1511,-3.1511,-3.1511,-3.1511,-3.1511,-3.1511,-3.1511,-3.1511,-3.1511,-3.1511,-3.1511,-3.1511,-3.1511,-3.1467,-2.9981,-2.969,0.0,0.0,0.0,0.0,0.0,0.0,0.0,0.0,0.0,0.0,0.0,0.0,0.0,0.0,0.0,-3.7591,-3.8747,-3.9805,-4.033,-4.1081,-4.1372,-4.0819,-4.2033,-4.3038,-4.3353,-4.4831,-4.5827,-4.5958,-4.7675,-4.8595,-4.8322,-4.8816,-4.8667,-4.7744,-4.7612,-4.7625,-4.7709,-4.7113,-4.7026,-4.7524,0.0,0.0,-4.6583,-4.6583,-4.6498,-4.6363,-4.621,-4.5805,-4.5246,-4.5111,-4.4688,-4.4039,-4.2804,-4.2202,-4.2049,-4.1762,-4.1204,-4.0561,-4.0561,-4.0172,-3.9588,-3.8971,-3.8785,-3.8667,-3.8091,-3.7905,0.0,-3.7905,-3.7905,-3.7905,-3.7905,-3.7787,-3.7662,-3.7525,-3.736,-3.7218,-3.7097,-3.7073,-3.6877,-3.6296,-3.526,-3.4446,-3.433,-3.3228,-3.2216,-3.1768,-3.1582,-3.1511,-3.1511,-3.1511,-3.1511,-3.1511,-3.1511,-3.1511,-3.1511,-3.1511,-3.1511,-3.1511,-3.1511,-3.1511,-3.1511,-3.1511,-3.1511,-3.1511,-3.1511,-3.1511,-3.1511,-3.1511,-3.1511,-3.1511,-3.1161,-3.1117,0.0,0.0,0.0,0.0,0.0,0.0,0.0,0.0,0.0,0.0,0.0,-3.6705,0.0,0.0,-3.7702,-3.8836,-3.9631,-4.0468,-4.1492,-4.2345,-4.2643,-4.2123,-4.2798,-4.3554,-4.4249,-4.5314,-4.6265,-4.7,-4.8043,-4.8835,-4.9275,-4.9269,-4.9287,-4.9341,-4.8679,-4.8481,-4.8851,-4.8221,-4.8048,-4.835,-4.8048,-4.7716,-4.7361,-4.7361,-4.7141,-4.6786,-4.6786,-4.6583,-4.6244,-4.6244,-4.5821,-4.506,-4.4299,-4.3521,-4.2811,-4.2439,-4.2066,-4.1745,-4.1745,-4.1508,-4.1094,-4.0341,-4.0104,-3.9952,-3.9208,-3.8988,-3.8988,-3.8988,-3.8988,-3.8988,-3.8988,-3.8717,-3.8447,-3.8447,-3.8176,-3.7905,-3.7905,-3.7905,-3.7679,-3.6894,-3.6172,-3.5459,-3.4731,-3.4353,-3.3678,-3.2267,-3.1754,-3.1511,-3.1511,-3.1511,-3.1511,-3.1511,-3.1511,-3.1511,-3.1511,-3.1511,-3.1511,-3.1511,-3.1511,-3.1511,-3.1511,-3.1511,-3.1511,-3.1511,-3.1511,-3.1511,-3.1511,-3.1511,-3.1511,-3.1511,-3.1511,-3.1511,0.0,0.0,0.0,0.0,0.0,0.0,0.0,0.0,-3.7599,-3.7638,-3.7689,-3.7814,-3.8075,-3.8227,-3.8768,-4.0096,-4.0552,-4.1144,-4.2337,-4.3166,-4.3644,-4.3683,-4.3778,-4.4113,-4.4767,-4.5592,-4.6601,-4.7855,-4.8053,-4.8687,-4.9905,-4.9475,-4.9661,-5.0683,-4.9635,-4.9296,-4.9792,-4.9256,-4.9001,-4.9001,-4.9001,-4.8697,-4.8091,-4.8091,-4.78,-4.7208,-4.7073,-4.7005,-4.7005,-4.6853,-4.6447,-4.5923,-4.5923,-4.5077,-4.3747,-4.3014,-4.2642,-4.2506,-4.2506,-4.2422,-4.2202,-4.161,-4.1407,-4.1305,-4.0722,-4.0536,-4.0502,-4.0367,-4.0316,-4.0282,-4.0146,-3.9673,-3.9208,-3.9208,-3.8751,-3.8328,-3.8328,-3.8328,-3.8125,-3.7493,-3.7131,-3.6548,-3.5172,-3.5263,-3.4841,-3.2863,-3.2205,-3.1832,-3.1554,-3.1511,-3.1511,-3.1511,-3.1511,-3.1511,-3.1511,-3.1511,-3.1511,-3.1511,-3.1511,-3.1511,-3.1511,-3.1511,-3.1511,-3.1511,-3.1511,-3.1511,-3.1511,-3.1511,-3.1511,-3.1511,-3.1511,-3.1511,-3.8707,-3.8707,-3.8707,-3.8707,-3.8643,-3.8611,0.0,0.0,-3.8762,-3.8304,-3.8402,-3.8617,-3.8839,-3.9419,-4.013,-4.095,-4.2185,-4.3088,-4.324,-4.3961,-4.4682,-4.5332,-4.5427,-4.5483,-4.5568,-4.673,-4.7817,-4.8699,-4.9319,-5.0036,-5.0906,-5.0872,-5.0612,-5.0129,-4.9951,-4.9636,-4.9107,-4.9032,-4.9001,-4.9001,-4.9001,-4.8968,-4.8883,-4.8883,-4.8832,-4.8714,-4.8071,-4.78,-4.775,-4.7073,-4.6735,-4.6667,-4.6667,-4.616,-4.5365,-4.4604,-4.3893,-4.3274,-4.3274,-4.2861,-4.2286,-4.2202,-4.2168,-4.2151,-4.2066,-4.2033,-4.1914,-4.1255,-4.1085,-4.0933,-4.0282,-4.0045,-3.9977,-3.9977,-3.991,-3.9859,-3.9859,-3.9859,-3.9834,-3.9741,-3.8703,-3.757,-3.6689,-3.5565,-3.4297,-3.2734,-3.3047,-3.2988,-3.1657,-3.1511,-3.1511,-3.1511,-3.1511,-3.1511,-3.1511,-3.1511,-3.1511,-3.1511,-3.1511,-3.1511,-3.1511,-3.1511,-3.1511,-3.1511,-3.1511,-3.1511,-3.1511,-3.1511,-3.1511,-3.1511,-3.1511,-3.1511,-3.8707,-3.8707,0.0,0.0,-3.9056,-3.9405,-3.9405,-3.9863,-4.0233,-4.0125,-4.0178,-4.0376,-4.0744,-4.1067,-4.1543,0.0,-4.2987,-4.3572,-4.4028,-4.4756,-4.5348,-4.5669,-4.6464,-4.6959,-4.6959,-4.7491,-4.8138,-4.8902,-4.9217,-4.9693,-5.0417,-5.009,-4.9907,-5.0004,-4.9622,-4.9286,-4.9001,-4.9001,-4.9001,-4.9001,-4.9001,-4.9001,-4.9001,-4.9001,-4.9001,-4.8984,-4.868,-4.8545,-4.8528,-4.8206,-4.7834,-4.7445,-4.7445,-4.6989,-4.6244,-4.55,-4.4756,-4.4096,-4.4096,-4.3893,-4.3555,-4.3098,-4.2946,-4.2861,-4.2422,-4.2286,-4.2236,-4.1931,-4.183,-4.166,-4.0933,-4.073,-4.0629,-4.0197,-4.0096,-4.0096,-4.0096,-4.0096,-3.985,-3.8941,-3.8285,-3.7488,-3.6258,-3.6308,-3.5857,-3.3954,-3.3638,-3.3364,-3.2736,-3.2303,-3.1929,-3.154,-3.1511,-3.1511,-3.1511,-3.1511,-3.1511,-3.1511,-3.1511,-3.1511,-3.1511,-3.1511,-3.1511,-3.1511,-3.1511,-3.1511,-3.1511,-3.1511,-3.1511,-3.1511,-3.1511,-3.1511,-3.8762,0.0,0.0,-3.9093,-3.9643,-4.023,-4.023,-4.0855,-4.1437,-4.1415,-4.146,-4.1619,-4.2038,-4.2137,-4.2423,-4.3254,-4.3606,-4.3927,-4.453,-4.5229,-4.5788,-4.5974,-4.7141,-4.7973,-4.8189,-4.8193,-4.8443,-4.8968,-4.9001,-4.9212,-4.9693,-4.9256,-4.9243,-4.9722,-4.9256,-4.9001,-4.9001,-4.9204,-4.9204,-4.9001,-4.9204,-4.9204,-4.9001,-4.9001,-4.9001,-4.9001,-4.9001,-4.9001,-4.9001,-4.9001,-4.8697,-4.8193,-4.8193,-4.7767,-4.7039,-4.6515,-4.5703,-4.4919,-4.4919,-4.4784,-4.4513,-4.3927,-4.3741,-4.3639,-4.3081,-4.2912,-4.2878,-4.2658,-4.2591,-4.2439,-4.1694,-4.1508,-4.1373,-4.084,-4.0553,-4.0417,-4.0417,-4.0248,-3.9756,-3.8652,-3.843,-3.8007,-3.6677,-3.7368,-3.747,-3.5692,-3.5003,-3.447,-3.391,-3.3426,-3.2837,-3.2186,-3.191,-3.1705,-3.1525,-3.1511,-3.1511,-3.1511,-3.1511,-3.1511,-3.1511,-3.1511,-3.1511,-3.1511,-3.1511,-3.1511,-3.1511,-3.1511,-3.1511,-3.1511,-3.1511,-3.1511,0.0,0.0,-4.0838,-4.0065,-4.0469,-4.1058,-4.1058,-4.1699,-4.2095,-4.1523,-4.1616,-4.185,-4.2072,-4.221,-4.2533,-4.3274,-4.4045,-4.4581,-4.4615,-4.5229,-4.5974,-4.6667,-4.7445,-4.8189,0.0,-4.8968,-4.8984,-4.9001,-4.9001,-4.9001,-4.9032,-4.9001,-4.9001,-4.9032,-4.9001,-4.9001,-4.9001,-4.9712,-4.9712,-4.9018,-4.9712,-4.9678,-4.9001,-4.9001,-4.9001,-4.9001,-4.9001,-4.9001,-4.9001,-4.9001,-4.8984,-4.8968,-4.8968,-4.8528,-4.7855,-4.7838,-4.6891,-4.5669,-4.5669,-4.5196,-4.4615,-4.4581,-4.4564,-4.4564,-4.4547,-4.453,-4.4378,-4.3606,-4.3358,-4.3217,-4.2455,-4.2252,-4.2252,-4.2236,-4.1677,-4.117,-4.117,-4.0595,-4.007,-4.0045,-4.002,-3.9756,-3.8935,-3.8827,-3.8591,-3.7803,-3.7671,-3.6946,-3.4918,-3.4645,-3.4395,-3.3709,-3.2936,-3.2198,-3.1555,-3.1511,-3.1511,-3.1511,-3.1511,-3.1511,-3.1511,-3.1511,-3.1511,-3.1511,-3.1511,-3.1511,-3.1511,-3.1511,-3.1511,-3.1511,-3.1511,-3.1511,0.0,0.0,-4.104,-4.0763,-4.1313,-4.1901,-4.1901,-4.2525,-4.3041,-4.2847,-4.2969,-4.3161,-4.3328,-4.3499,-4.3751,-4.4128,-4.4429,-4.4615,-4.4615,-4.5652,-4.6515,-4.6752,-4.7885,0.0,0.0,0.0,0.0,-4.9001,-4.9001,-4.9001,-4.9001,-4.9001,-4.9221,-4.9712,-4.9729,-4.9965,-5.0456,-5.0727,-5.0727,-5.0473,-5.0727,-5.071,-5.0456,-4.9949,-4.9729,-4.9695,-4.9221,-4.9001,-4.9001,-4.9001,-4.9001,-4.9001,-4.9001,-4.8849,-4.8646,-4.8646,-4.802,-4.7107,-4.6599,-4.594,-4.5331,-4.5331,-4.4993,-4.4615,-4.4615,-4.4615,-4.4547,-4.4265,-4.4198,-4.4012,-4.3234,-4.3031,-4.2912,-4.2405,-4.21,-4.1931,-4.1931,-4.1339,-4.0686,-4.0188,-3.9664,-3.9059,-3.8302,-3.8177,-3.7905,-3.7114,-3.7456,-3.7384,-3.6229,-3.5631,-3.5048,-3.4439,-3.3635,-3.2901,-3.2213,-3.2153,-3.1974,-3.1525,-3.1511,-3.1511,-3.1511,-3.1511,-3.1511,-3.1511,-3.1511,-3.1511,-3.1511,-3.1511,-3.1511,-3.1511,-3.1511,-3.1511,0.0,-4.1313,-4.1901,-4.159,-4.2139,-4.2727,-4.2727,-4.313,-4.3444,-4.325,-4.3365,-4.3533,-4.3675,-4.3856,-4.4118,-4.4518,-4.4615,-4.4615,-4.4615,-4.5855,-4.6786,-4.6786,-4.8105,-4.9001,0.0,0.0,0.0,-4.9001,-4.9001,-4.9001,-4.9001,-4.9255,-4.961,-5.0084,-5.0355,-5.0727,-5.1185,-5.1471,-5.1606,-5.1606,-5.1352,-5.1185,-5.1168,-5.071,-5.049,-5.0456,-4.9712,-4.939,-4.9373,-4.912,-4.9001,-4.9001,-4.9001,-4.9001,-4.9001,-4.9001,-4.8714,-4.8206,-4.7445,-4.6718,-4.6058,-4.5788,-4.5382,-4.4925,-4.4682,-4.4615,-4.4615,-4.4615,-4.4615,-4.4496,-4.3961,-4.3826,-4.3707,-4.3217,-4.2895,-4.2692,-4.2692,-4.2117,-4.136,-4.0631,-4.0074,-3.9497,-3.8756,-3.8374,-3.8019,-3.7512,-3.7645,-3.753,-3.6806,-3.6261,-3.5701,-3.5079,-3.4334,-3.3589,-3.2916,-3.2647,-3.2303,-3.1884,-3.163,-3.1511,-3.1511,-3.1511,-3.1511,-3.1511,-3.1511,-3.1511,-3.1511,-3.1511,-3.1511,-3.1511,-3.1511,-3.1511,-4.0487,-4.177,-4.3331,-4.2543,-4.2928,-4.3515,-4.3515,-4.3479,-4.3303,-4.2789,-4.2769,-4.2906,0.0,0.0,-4.3623,-4.4429,-4.4547,-4.4564,-4.4598,-4.585,-4.6752,0.0,0.0,0.0,0.0,0.0,0.0,-4.9001,0.0,-4.9018,-4.9052,-4.9712,-5.0118,-5.0202,-5.0896,-5.1302,-5.1303,-5.2012,-5.2367,-5.235,-5.1657,-5.1303,-5.1303,-5.1302,-5.1268,-5.1234,-5.0473,-5.0118,-5.0033,-4.934,-4.9035,-4.9001,-4.9001,-4.9001,-4.9001,-4.9001,-4.9001,-4.89,-4.8206,-4.7479,-4.6735,-4.6041,-4.5771,-4.5568,-4.4886,-4.4632,-4.4615,-4.4615,-4.4615,-4.4615,-4.4615,-4.4615,-4.4615,-4.4615,-4.4012,-4.3443,-4.3443,-4.2878,-4.2151,-4.1457,-4.1229,-4.0915,-4.0113,-3.9315,-3.8799,-3.8799,-3.8161,-3.7427,-3.6752,-3.6646,-3.6367,-3.5716,-3.5002,-3.4294,-3.3604,-3.2976,-3.2602,-3.2557,-3.1914,-3.1555,-3.1555,-3.1525,-3.1511,-3.1511,-3.1511,-3.1511,-3.1511,-3.1511,-3.1511,-3.1511,-3.1511,-3.1511,-4.2525,-4.3037,-4.346,-4.324,-4.3349,-4.3515,-4.3515,-4.3196,-4.2864,-4.2731,-4.2487,-4.2334,0.0,0.0,0.0,-4.3589,-4.3724,0.0,-4.453,-4.5399,0.0,0.0,0.0,-4.8409,-4.8951,-4.9001,0.0,0.0,-4.9001,-4.9238,-4.9779,-4.9982,-5.0591,-5.1708,-5.1928,-5.2317,-5.2926,-5.3112,-5.3196,-5.3196,-5.301,-5.2926,-5.2909,-5.23,-5.2029,-5.1978,-5.1251,-5.0608,-5.0084,-4.9898,-4.9492,-4.9001,-4.9001,-4.9001,-4.9001,-4.9001,-4.9001,-4.8984,-4.8781,-4.824,-4.7597,-4.7411,-4.6616,-4.5669,-4.5483,-4.5026,-4.4615,-4.4615,-4.4615,-4.4615,-4.4615,-4.4615,-4.4615,-4.4615,-4.4445,-4.4282,-4.4282,-4.3673,-4.3064,-4.2868,-4.1513,-3.9952,-3.8616,-3.7716,-3.7188,-3.7188,-3.6554,-3.643,-3.7368,-3.6964,-3.6538,-3.6367,-3.5685,-3.4966,-3.4277,-3.4099,-3.3769,-3.3275,-3.2632,-3.2243,-3.2243,-3.1765,-3.1511,-3.1511,-3.1511,-3.1511,-3.1511,-3.1511,-3.1511,-3.1511,-3.1511,-3.1511,-4.2415,-4.2947,-4.3515,-4.3515,-4.3515,-4.3427,-4.3196,-4.3105,-4.2846,-4.2062,-4.219,0.0,0.0,0.0,0.0,0.0,0.0,0.0,-4.4012,-4.501,-4.5974,0.0,-4.7462,0.0,-4.8934,-4.9001,-4.9001,0.0,-4.9306,-4.9661,-5.0067,-5.071,-5.1437,-5.2266,-5.2638,-5.3044,-5.3501,-5.3501,-5.3501,-5.3501,-5.3501,-5.3501,-5.3484,-5.3044,-5.2841,-5.279,0.0,-5.1454,-5.1014,-5.0355,-4.9847,-4.9458,-4.9137,-4.9001,-4.9001,-4.9001,-4.9001,-4.9001,-4.9001,-4.8731,-4.8342,-4.799,-4.7331,-4.6549,-4.5906,-4.5415,-4.501,-4.4699,-4.4615,-4.4615,-4.4615,-4.4615,-4.4615,-4.4615,-4.4615,-4.4615,-4.4615,-4.4231,-4.3826,-4.346,-4.1862,-4.0313,-3.9429,-3.8085,-3.713,-3.713,-3.618,-3.5829,-3.6692,-3.6415,-3.6117,-3.6117,-3.5765,-3.5355,-3.4966,-3.4683,-3.4354,-3.3948,-3.3305,-3.2946,-3.2946,-3.2288,-3.1929,-3.1929,-3.1645,-3.1511,-3.1511,-3.1511,-3.1511,-3.1511,-3.1511,-3.1511,-4.1407,-4.2359,-4.3515,-4.3515,-4.3515,-4.3375,-4.2826,-4.2923,-4.2684,-4.1071,0.0,-4.1922,-4.0934,0.0,-4.188,-4.1982,0.0,-4.3274,-4.3375,-4.4654,-4.5838,-4.6566,-4.731,-4.8054,-4.8781,-4.8951,-4.9001,-4.9001,-4.9763,-5.0236,-5.0236,-5.1555,-5.235,-5.2469,-5.3145,-5.3501,-5.3501,-5.3501,-5.3501,-5.3501,-5.3501,-5.3501,-5.3501,-5.3501,-5.3501,-5.3467,-5.2756,-5.2401,-5.2198,-5.0811,-5.0185,-5.0016,-4.9289,-4.9001,-4.9001,-4.9001,-4.9001,-4.9001,-4.9001,-4.9001,-4.89,-4.8257,-4.7973,-4.7652,-4.6397,-4.5872,-4.5568,-4.4925,-4.4682,-4.4615,-4.4615,-4.4615,-4.4615,-4.4615,-4.4615,-4.4615,-4.4615,-4.4615,-4.435,-4.3572,-4.2193,-4.11,-4.0942,-3.9084,-3.7626,-3.7648,-3.643,-3.5537,-3.5636,-3.5554,-3.5537,-3.5651,-3.5554,-3.5537,-3.5651,-3.5015,-3.4638,-3.4638,-3.3993,-3.3619,-3.3619,-3.2991,-3.2647,-3.2647,-3.1974,-3.163,-3.163,-3.154,-3.1511,-3.1511,-3.1511,-3.1511,-4.1956,-4.2782,-4.3515,-4.3515,-4.3515,-4.3375,-4.2826,-4.1902,0.0,0.0,0.0,-3.871,-3.8505,-3.9073,0.0,-4.0383,0.0,0.0,0.0,0.0,-4.5043,0.0,0.0,0.0,0.0,0.0,0.0,0.0,0.0,-5.1014,-5.1014,-5.1843,-5.2604,-5.3281,-5.3433,-5.3501,-5.3501,-5.3501,-5.3501,-5.3501,-5.3501,-5.3501,-5.3501,-5.3501,-5.3501,-5.3501,-5.3348,0.0,-5.2232,-5.1386,-5.0659,-5.0016,-4.9289,-4.9001,-4.9001,-4.9001,-4.9001,-4.9001,-4.9001,-4.9001,-4.8984,-4.8849,-4.8409,-4.7838,-4.7584,-4.6684,-4.5669,-4.5551,-4.506,-4.4615,-4.4615,-4.4615,-4.4615,-4.4615,-4.4615,-4.4615,-4.4615,-4.4615,-4.435,-4.3572,-4.2134,-4.0677,-3.9509,-3.7872,-3.6741,-3.6784,-3.607,-3.5733,-3.6337,-3.5863,-3.5718,-3.6337,-3.5863,-3.5765,-3.6353,-3.5757,-3.5325,-3.5325,-3.4681,-3.4339,-3.4339,-3.3679,-3.332,-3.332,-3.2677,-3.2318,-3.2318,-3.1765,-3.1511,-3.1511,-3.1511,-3.1511,-4.0946,-4.1937,-4.2873,-4.2873,-4.2873,-4.2664,-4.1851,0.0,0.0,0.0,0.0,-3.8219,-3.7936,0.0,0.0,0.0,0.0,0.0,0.0,0.0,0.0,0.0,0.0,0.0,0.0,0.0,0.0,0.0,0.0,-5.0811,-5.1168,-5.23,-5.3112,-5.3501,-5.3501,-5.3501,-5.3501,-5.3501,-5.3501,-5.3501,-5.3501,-5.3501,-5.3501,-5.3501,-5.3501,-5.3501,-5.3501,0.0,-5.2858,-5.2097,-5.1352,-5.0608,-4.9864,-4.934,-4.9001,-4.9001,-4.9001,-4.9001,-4.9001,-4.9001,-4.9001,-4.9001,-4.8765,-4.8409,-4.8007,-4.7398,-4.6701,-4.5923,-4.5449,-4.5077,-4.4699,-4.4615,-4.4615,-4.4615,-4.4615,-4.4615,-4.4615,-4.4615,-4.4496,-4.4096,-4.3063,-4.1897,-4.0828,-3.9039,-3.7608,-3.7188,-3.6203,-3.5651,-3.5975,-3.5733,-3.5651,-3.6006,-3.5701,-3.5636,-3.6006,-3.5701,-3.5504,-3.5504,-3.519,-3.5011,-3.5011,-3.4367,-3.4008,-3.4008,-3.3365,-3.2856,-3.2512,-3.2168,-3.1839,-3.1511,-3.1511,-3.1511,-3.99,-4.0946,-4.2047,-4.2047,-4.2047,-4.1754,-4.0697,-4.0149,0.0,0.0,-3.7866,-3.7914,-3.7492,0.0,0.0,0.0,0.0,0.0,0.0,0.0,0.0,0.0,0.0,0.0,0.0,0.0,0.0,0.0,0.0,0.0,-5.1403,-5.2756,-5.3501,-5.3501,-5.3501,-5.3501,-5.3501,-5.3501,-5.3501,-5.3501,-5.3501,-5.3501,-5.3501,-5.3501,-5.3501,-5.3501,-5.3501,0.0,-5.3433,-5.2469,-5.1725,-5.1116,-5.0202,-4.9509,-4.9001,-4.9001,-4.9001,-4.9001,-4.9001,-4.9001,-4.9001,-4.9001,-4.9001,-4.89,-4.8325,-4.8024,-4.7618,-4.6312,-4.5821,-4.5534,-4.4801,-4.4615,-4.4615,-4.4615,-4.4615,-4.4615,-4.4615,-4.4615,-4.4615,-4.4615,-4.3794,-4.2865,-4.2072,-4.0084,-3.8308,-3.7479,-3.6286,-3.5504,-3.5504,-3.5504,-3.5504,-3.5504,-3.5504,-3.5554,-3.5733,-3.5587,-3.5504,-3.5504,-3.5504,-3.5504,-3.5504,-3.4981,-3.4728,-3.4728,-3.4038,-3.344,-3.2931,-3.2796,-3.2452,-3.1929,-3.178,-3.1705,-3.99,-4.0543,-4.1205,-4.1205,-4.1205,-4.0933,-3.9856,0.0,0.0,0.0,-3.6361,-3.5853,-3.5825,-3.6417,0.0,0.0,0.0,0.0,0.0,0.0,0.0,0.0,0.0,0.0,0.0,0.0,0.0,0.0,0.0,0.0,-5.2164,-5.3027,-5.3501,-5.3501,-5.3501,-5.3501,-5.3501,-5.3501,-5.3501,-5.3501,-5.3501,-5.3501,-5.3501,-5.3501,-5.3501,-5.3501,-5.3501,0.0,0.0,-5.1928,-5.1268,-5.105,-4.9661,-4.9069,-4.9001,-4.9001,-4.9001,-4.9001,-4.9001,-4.9001,-4.9001,-4.9001,-4.9001,-4.8984,-4.8934,-4.8443,-4.775,-4.6921,-4.621,-4.5534,-4.4801,-4.4615,-4.4615,-4.4615,-4.4615,-4.4615,-4.4615,-4.4615,-4.4615,-4.4615,-4.3254,-4.1915,-4.1226,-3.9113,-3.7308,-3.6685,-3.5989,-3.5504,-3.5504,-3.5504,-3.5504,-3.5504,-3.5504,-3.5782,-3.6446,-3.5894,-3.5504,-3.5504,-3.5504,-3.5504,-3.5504,-3.5444,-3.5415,-3.5415,-3.4741,-3.4384,-3.4324,-3.3694,-3.338,-3.3305,-3.2706,-3.2392,-3.9184,-3.9772,-4.0377,-4.0377,-4.0377,-4.0112,-3.9072,0.0,0.0,-3.6292,-3.5802,-3.56,-3.56,-3.5853,-3.6332,0.0,0.0,0.0,0.0,0.0,0.0,0.0,0.0,0.0,0.0,0.0,0.0,0.0,0.0,0.0,-4.988,-5.2183,-5.3195,-5.2557,-5.2557,-5.2557,-5.2557,-5.2557,-5.287,-5.3501,-5.3501,-5.3501,-5.3501,-5.3501,-5.3501,-5.3501,-5.3501,0.0,0.0,-5.2317,-5.1606,-5.1083,-5.0067,-4.939,-4.9001,-4.9001,-4.9001,-4.9001,-4.9001,-4.9001,-4.9001,-4.9001,-4.9001,-4.9001,-4.9001,-4.8798,-4.8325,-4.7124,-4.6583,-4.6092,-4.4919,-4.4615,-4.4615,-4.4615,-4.4615,-4.4615,-4.4615,-4.4615,-4.4615,-4.4615,-4.4035,-4.3161,-4.1819,-4.0119,-3.852,-3.7229,-3.6163,-3.5504,-3.5504,-3.5504,-3.5504,-3.5504,-3.5504,-3.5619,-3.5911,-3.5668,-3.5504,-3.5504,-3.5504,-3.5504,-3.5504,-3.5504,-3.5504,-3.5504,-3.5235,-3.4891,-3.4503,-3.4249,-3.3888,-3.3484,-3.323,-3.3095,-3.8707,-3.9111,-3.9551,-3.9551,-3.9551,-3.9272,0.0,0.0,-3.6902,-3.581,-3.56,-3.56,-3.56,-3.56,-3.5853,-3.6677,0.0,-3.843,0.0,0.0,0.0,0.0,0.0,0.0,0.0,0.0,0.0,0.0,0.0,0.0,-4.7986,-5.0549,-5.1846,-5.1451,-5.1467,-5.1467,-5.1467,-5.176,-5.2117,-5.2574,-5.287,-5.3025,-5.3025,-5.3025,-5.3195,-5.3501,-5.3247,0.0,0.0,-5.2063,-5.1336,-5.0811,-5.0067,-4.9458,-4.9001,-4.9001,-4.9001,-4.9001,-4.9001,-4.9001,-4.9001,-4.9001,-4.9001,-4.9001,-4.9001,-4.9001,-4.8697,-4.7208,-4.6481,-4.5918,-4.4886,-4.4615,-4.4615,-4.4615,-4.4615,-4.4615,-4.4615,-4.4615,-4.4615,-4.4615,-4.4179,-4.3439,-4.2221,-4.0468,-3.8823,-3.7594,-3.6327,-3.5504,-3.5504,-3.5504,-3.5504,-3.5504,-3.5504,-3.5504,-3.5504,-3.5504,-3.5504,-3.5504,-3.5504,-3.5504,-3.5504,-3.5504,-3.5504,-3.5504,-3.5504,-3.5265,-3.4786,-3.4786,-3.4547,-3.4083,-3.3888,-3.3679,-3.8707,-3.8707,-3.8707,-3.8707,-3.8707,-3.8451,0.0,0.0,-3.6902,-3.581,-3.56,-3.56,-3.56,-3.56,-3.5853,-3.6677,-3.7415,0.0,0.0,0.0,0.0,0.0,0.0,0.0,0.0,0.0,0.0,0.0,0.0,0.0,-4.7333,-4.8027,-4.9053,-5.0349,-5.0413,-5.0413,-5.0413,-5.1394,-5.1431,-5.0435,-5.1431,-5.1921,-5.1921,-5.1921,-5.2505,-5.3467,0.0,0.0,0.0,-5.0727,-5.0101,-5.0033,-4.9306,-4.9018,-4.9001,-4.9001,-4.9001,-4.9001,-4.9001,-4.9001,-4.9001,-4.9001,-4.9001,-4.9001,-4.9001,-4.9001,-4.8697,-4.7208,-4.5766,-4.4632,-4.4615,-4.4615,-4.4615,-4.4615,-4.4615,-4.4615,-4.4615,-4.4615,-4.4615,-4.4615,-4.3213,-4.2029,-4.1997,-3.946,-3.7404,-3.7404,-3.6327,-3.5504,-3.5504,-3.5504,-3.5504,-3.5504,-3.5504,-3.5504,-3.5504,-3.5504,-3.5504,-3.5504,-3.5504,-3.5504,-3.5504,-3.5504,-3.5504,-3.5504,-3.5504,-3.5504,-3.5489,-3.5489,-3.5489,-3.5474,-3.4786,-3.4113,-3.8707,-3.8707,-3.8707,-3.8707,-3.8415,-3.7998,-3.7359,0.0,-3.644,-3.5761,-3.56,-3.56,-3.56,-3.56,-3.5667,-3.5943,-3.706,0.0,0.0,0.0,0.0,0.0,0.0,0.0,0.0,0.0,0.0,0.0,0.0,0.0,-4.5246,-4.5461,-4.6321,-4.7965,-4.802,-4.802,-4.802,-4.8957,-4.9621,-4.9981,-5.0957,-5.1413,-5.1413,-5.1413,-5.1597,0.0,0.0,0.0,-5.1488,-5.049,-5.0084,-5.0016,-4.9289,-4.9001,-4.9001,-4.9001,-4.8576,-4.8047,-4.8047,-4.7622,-4.7189,-4.7836,-4.8047,-4.8161,-4.8798,-4.9001,-4.8697,-4.7208,-4.5749,-4.4615,-4.4615,-4.4615,-4.4615,-4.4615,-4.4615,-4.4615,-4.4615,-4.4615,-4.4615,-4.4615,-4.368,-4.2707,-4.2093,-3.9937,-3.8101,-3.7507,-3.6327,-3.5504,-3.5504,-3.5504,-3.5504,-3.5504,-3.5504,-3.5504,-3.5504,-3.5504,-3.5504,-3.5504,-3.5504,-3.5504,-3.5504,-3.5504,-3.5504,-3.5504,-3.5504,-3.5504,-3.5504,-3.5504,-3.5504,-3.5504,-3.528,-3.507,0.0,-3.8707,-3.8643,-3.8449,-3.815,0.0,0.0,0.0,-3.6245,-3.5717,-3.56,-3.56,-3.56,-3.56,-3.56,-3.56,-3.6884,0.0,0.0,0.0,0.0,0.0,0.0,0.0,0.0,0.0,0.0,0.0,0.0,0.0,-4.3888,-4.3902,-4.4429,-4.5507,-4.6012,-4.6287,-4.6287,-4.7284,-4.8063,-4.8619,-4.9626,-5.0309,-5.0626,-5.0626,-5.0858,0.0,0.0,-5.0794,0.0,-4.9982,-4.9678,-4.9596,-4.8793,-4.8465,-4.8433,-4.808,-4.7589,-4.7122,-4.7489,-4.7205,-4.6884,-4.7836,-4.8129,-4.8175,-4.8492,-4.8392,-4.7919,-4.6718,-4.5517,-4.4615,-4.4615,-4.4615,-4.4615,-4.4615,-4.4615,-4.4615,-4.4615,-4.4615,-4.4615,-4.4615,-4.3919,-4.3139,-4.2583,-4.0626,-3.8966,-3.8433,-3.7213,-3.6368,-3.6368,-3.6368,-3.6258,-3.5958,-3.5926,-3.5814,-3.5537,-3.5504,-3.5504,-3.5504,-3.5504,-3.5504,-3.5504,-3.5504,-3.5504,-3.5504,-3.5504,-3.5504,-3.5504,-3.5504,-3.5504,-3.5504,-3.5504,-3.5504,0.0,0.0,0.0,0.0,0.0,0.0,0.0,0.0,0.0,-3.5694,-3.56,-3.56,-3.56,-3.56,-3.56,-3.56,-3.6884,0.0,0.0,0.0,0.0,0.0,0.0,0.0,0.0,0.0,0.0,0.0,0.0,0.0,-4.329,-4.329,-4.329,-4.329,-4.4526,-4.5155,-4.5155,-4.6214,-4.6695,-4.6562,-4.7658,-4.865,-4.9529,-4.9529,-5.0041,0.0,0.0,-4.9888,-4.9774,-4.9068,-4.8798,-4.8719,-4.7836,-4.7556,-4.7473,-4.6627,-4.6279,-4.6419,-4.7306,-4.7556,-4.7655,-4.8593,-4.8906,-4.8781,-4.8054,-4.7344,-4.665,-4.5906,-4.5162,-4.4615,-4.4615,-4.4615,-4.4615,-4.4615,-4.4615,-4.4615,-4.4615,-4.4615,-4.4615,-4.4615,-4.3919,-4.3306,-4.3306,-4.1399,-3.9916,-3.9916,-3.8702,-3.7793,-3.7793,-3.7793,-3.7515,-3.6768,-3.6707,-3.6399,-3.5636,-3.5537,-3.5504,-3.5504,-3.5504,-3.5504,-3.5504,-3.5504,-3.5504,-3.5504,-3.5504,-3.5504,-3.5504,-3.5504,-3.5504,-3.5504,-3.5504,-3.5504,-3.7487,0.0,-3.7963,-3.7488,-3.736,0.0,0.0,0.0,0.0,0.0,0.0,-3.56,-3.56,-3.56,-3.56,-3.56,-3.6884,0.0,0.0,0.0,0.0,0.0,0.0,0.0,0.0,0.0,0.0,0.0,0.0,-4.329,-4.329,-4.329,-4.329,-4.329,-4.3589,-4.3753,-4.3753,-4.4795,-4.5277,-4.5277,-4.6217,-4.7179,-4.81,-4.81,-4.8233,0.0,-4.8265,-4.7769,-4.7111,-4.6914,-4.685,-4.685,-4.6609,-4.6952,-4.7589,-4.734,-4.7273,-4.7306,-4.7523,-4.7122,-4.6662,-4.7622,-4.8033,-4.8007,-4.7276,-4.6938,-4.665,-4.5906,-4.5162,-4.4615,-4.4615,-4.4615,-4.4615,-4.4615,-4.4615,-4.4615,-4.4615,-4.4615,-4.4615,-4.4615,-4.3919,-4.3306,-4.3306,-4.1399,-3.9916,-3.9916,-3.8702,-3.7793,-3.7793,-3.7793,-3.7735,-3.7544,-3.7515,-3.7189,-3.643,-3.5799,-3.5504,-3.5504,-3.5504,-3.5504,-3.5504,-3.5504,-3.5504,-3.5504,-3.5504,-3.5504,-3.5504,-3.5504,-3.5504,-3.5504,-3.5504,-3.5504,-3.646,-3.7002,-3.747,-3.6962,-3.6843,-3.6684,0.0,0.0,0.0,0.0,0.0,0.0,-3.56,0.0,0.0,0.0,0.0,0.0,0.0,0.0,0.0,0.0,0.0,0.0,0.0,0.0,0.0,0.0,0.0,-4.329,-4.329,-4.329,-4.329,-4.329,-4.329,-4.329,-4.329,-4.3849,-4.4335,-4.4812,-4.5322,-4.6048,-4.6952,-4.6952,-4.6952,0.0,-4.6952,-4.6678,-4.6208,-4.6208,-4.6454,-4.6815,-4.6349,-4.6781,-4.7556,-4.7138,-4.6952,-4.702,-4.744,-4.7556,-4.749,-4.7665,-4.7821,-4.7686,-4.6616,-4.6295,-4.6143,-4.5399,-4.4891,-4.4615,-4.4615,-4.4615,-4.4615,-4.4615,-4.4615,-4.4615,-4.4615,-4.4615,-4.4615,-4.4615,-4.4224,-4.3919,-4.3919,-4.2291,-4.0996,-4.0996,-3.978,-3.8859,-3.8859,-3.8859,-3.8707,-3.833,-3.8302,-3.7991,-3.7203,-3.6799,-3.6399,-3.6038,-3.6006,-3.6006,-3.6006,-3.5668,-3.5504,-3.5504,-3.5504,-3.5504,-3.5504,-3.5504,-3.5504,-3.5504,-3.5504,-3.5504,-3.56,-3.6253,-3.6862,-3.6395,-3.6333,-3.6266,-3.5717,0.0,0.0,0.0,0.0,0.0,0.0,0.0,0.0,0.0,0.0,0.0,0.0,0.0,0.0,0.0,0.0,0.0,0.0,0.0,0.0,0.0,0.0,-4.3035,-4.314,-4.314,-4.3185,-4.329,-4.3448,-4.3448,-4.329,-4.329,-4.3747,-4.4548,-4.4548,-4.5138,-4.6224,-4.6032,-4.6067,-4.6208,0.0,0.0,-4.5782,-4.5941,-4.647,-4.7104,-4.6295,-4.6643,-4.7523,-4.6712,-4.6488,-4.6747,-4.7556,-4.8254,-4.8731,-4.8091,-4.7736,-4.7344,-4.6092,-4.5618,-4.5399,-4.4784,-4.4615,-4.4615,-4.4615,-4.4615,-4.4615,-4.4615,-4.4615,-4.4615,-4.4615,-4.4615,-4.4615,-4.4615,-4.4615,-4.4615,-4.4615,-4.3301,-4.2286,-4.2286,-4.1044,-4.0045,-3.9927,-4.002,-3.9782,-3.9005,-3.9016,-3.8772,-3.8035,-3.7978,-3.7616,-3.6813,-3.6676,-3.6554,-3.6446,-3.5831,-3.5504,-3.5504,-3.5504,-3.5504,-3.5504,-3.5504,-3.5504,-3.5504,-3.5504,-3.5504,-3.56,-3.5717,-3.5832,-3.5739,-3.6054,-3.6266,-3.5717,0.0,0.0,0.0,0.0,0.0,0.0,0.0,0.0,0.0,0.0,0.0,0.0,0.0,0.0,0.0,0.0,0.0,0.0,0.0,0.0,0.0,0.0,-4.1923,-4.2515,-4.2545,-4.2761,-4.3275,-4.4105,-4.4143,-4.329,-4.329,-4.3369,-4.3512,-4.3512,-4.4479,-4.6173,-4.5395,-4.5468,-4.6208,0.0,-4.5253,-4.3795,-4.4646,-4.5095,-4.5227,-4.5095,-4.6064,-4.7589,-4.744,-4.7868,-4.8576,-4.8719,-4.8456,-4.8041,-4.7922,-4.7073,-4.6007,-4.5771,-4.5263,-4.475,-4.4632,-4.4615,-4.4615,-4.4615,-4.4615,-4.4615,-4.4615,-4.4615,-4.4615,-4.4615,-4.4615,-4.4615,-4.4615,-4.4615,-4.4615,-4.4615,-4.3301,-4.2286,-4.2286,-4.1044,-3.9833,-3.9166,-3.9662,-3.9782,-3.9005,-3.9516,-3.9584,-3.8799,-3.8745,-3.8414,-3.7661,-3.698,-3.6337,-3.5701,-3.5554,-3.5504,-3.5504,-3.5504,-3.5504,-3.5504,-3.5504,-3.5504,-3.5504,-3.5504,-3.5504,-3.56,-3.56,-3.56,-3.56,-3.5783,-3.5898,-3.5667,0.0,0.0,0.0,0.0,0.0,0.0,0.0,0.0,0.0,0.0,0.0,0.0,0.0,0.0,0.0,0.0,0.0,0.0,0.0,0.0,0.0,0.0,0.0,-4.1856,-4.1871,-4.2006,-4.2267,-4.2712,-4.2751,-4.2282,-4.2282,-4.2626,-4.329,-4.3849,-4.4571,-4.5468,-4.5525,-4.5798,-4.6208,0.0,-4.5674,-4.4899,-4.5379,-4.585,-4.6295,-4.6295,-4.7138,-4.8319,-4.7903,-4.8037,-4.8359,-4.7953,-4.7597,-4.7242,-4.6853,-4.6261,-4.5635,-4.5229,-4.4886,-4.4615,-4.4615,-4.4615,-4.4615,-4.4615,-4.4615,-4.4615,-4.4615,-4.4615,-4.4615,-4.4615,-4.4615,-4.4615,-4.4615,-4.4615,-4.4479,-4.4028,-4.3031,-4.2151,-4.1762,-4.0807,-3.9969,-3.961,-3.9859,-3.9952,-3.9584,-3.9876,-3.9952,-3.9584,-3.9139,-3.8398,-3.7249,-3.7203,-3.6738,-3.5569,-3.5894,-3.5926,-3.5504,-3.5504,-3.5504,-3.5504,-3.5504,-3.5504,-3.5504,-3.5504,-3.5504,-3.56,-3.56,-3.56,-3.56,-3.56,-3.56,-3.56,0.0,0.0,0.0,0.0,0.0,0.0,0.0,0.0,0.0,0.0,0.0,0.0,0.0,0.0,0.0,0.0,0.0,0.0,0.0,0.0,0.0,0.0,0.0,-4.1145,-4.1145,-4.122,-4.1422,-4.1618,-4.1618,-4.1422,-4.1618,-4.2191,-4.3163,-4.3936,-4.4538,-4.4959,-4.5448,-4.5782,-4.6005,-4.6005,-4.5902,-4.5693,-4.5936,-4.6464,-4.7046,-4.6881,-4.7355,-4.8099,-4.7312,-4.7172,-4.7258,-4.6686,-4.6367,-4.6178,-4.5814,-4.5585,-4.5331,-4.4784,-4.4615,-4.4615,-4.4615,-4.4615,-4.4615,-4.4615,-4.4615,-4.4615,-4.4615,-4.4615,-4.4615,-4.4615,-4.4615,-4.4615,-4.4615,-4.4615,-4.4333,-4.3527,-4.2794,-4.2049,-4.1322,-4.0561,-4.002,-3.9833,-3.9978,-4.002,-3.9833,-3.9995,-4.002,-3.9833,-3.9262,-3.8314,-3.6964,-3.71,-3.6723,-3.5569,-3.6023,-3.6086,-3.5504,-3.5504,-3.5504,-3.5504,-3.5504,-3.5504,-3.5504,-3.5504,-3.5504,-3.56,-3.56,-3.56,-3.56,-3.56,0.0,-3.56,-3.56,0.0,0.0,0.0,0.0,0.0,0.0,0.0,0.0,0.0,0.0,0.0,0.0,0.0,0.0,0.0,0.0,0.0,0.0,0.0,0.0,0.0,0.0,-4.0442,-4.0472,-4.0756,-4.1392,-4.2224,-4.2297,-4.1422,-4.226,-4.2726,-4.2726,-4.2798,-4.3722,-4.5324,-4.4506,-4.4639,-4.5452,-4.5452,-4.4951,-4.4237,-4.5082,-4.55,-4.5484,-4.4655,-4.4919,-4.5658,-4.4772,-4.4968,-4.5654,-4.5605,-4.5158,-4.4688,-4.5454,-4.5229,-4.4682,-4.4632,-4.4615,-4.4615,-4.4615,-4.4615,-4.4615,-4.4615,-4.4615,-4.4615,-4.4615,-4.4615,-4.4615,-4.4615,-4.4615,-4.4615,-4.4615,-4.4615,-4.4333,-4.3527,-4.2794,-4.2049,-4.1322,-4.0561,-3.9833,-3.9086,-3.9636,-3.9808,-3.9086,-3.9662,-3.9808,-3.9059,-3.8935,-3.8553,-3.7748,-3.643,-3.5619,-3.5504,-3.5554,-3.5554,-3.5504,-3.5504,-3.5504,-3.5504,-3.5504,-3.5504,-3.5504,-3.5504,-3.5504,-3.56,-3.56,-3.56,-3.56,-3.56,0.0,0.0,0.0,0.0,0.0,0.0,0.0,0.0,0.0,0.0,0.0,0.0,0.0,0.0,0.0,0.0,0.0,0.0,0.0,0.0,0.0,0.0,0.0,0.0,0.0,-4.0572,-4.0079,-3.9903,-4.0157,-4.0492,-4.0529,-4.0157,-4.0529,-4.1217,-4.2284,-4.2615,-4.311,-4.3788,-4.401,-4.4328,-4.4658,-4.4658,-4.4444,-4.4145,-4.4527,-4.4658,-4.4658,-4.4886,-4.5192,-4.5459,-4.5232,-4.5005,-4.483,-4.4899,-4.4758,-4.4569,-4.4907,-4.4835,-4.4615,-4.4615,-4.4615,-4.4615,-4.4615,-4.4615,-4.4615,-4.4615,-4.4615,-4.4615,-4.4615,-4.4615,-4.4615,-4.4615,-4.4615,-4.4615,-4.4615,-4.4615,-4.4209,-4.2929,-4.2472,-4.188,-4.0679,-4.0282,-3.9995,-3.9705,-3.9901,-3.9978,-3.9662,-3.9927,-3.9782,-3.8962,-3.8908,-3.858,-3.7851,-3.7235,-3.6707,-3.6196,-3.6196,-3.5975,-3.5504,-3.5504,-3.5504,-3.5504,-3.5504,-3.5504,-3.5504,-3.5504,-3.5504,-3.56,-3.56,-3.56,0.0,0.0,0.0,0.0,0.0,0.0,0.0,0.0,0.0,0.0,0.0,0.0,0.0,0.0,0.0,0.0,0.0,0.0,0.0,0.0,0.0,0.0,0.0,0.0,0.0,0.0,0.0,0.0,-4.0274,-3.9793,-3.9793,-3.9538,-3.9388,-3.9388,-3.9388,-4.0005,-4.1162,-4.1546,-4.2171,-4.2968,-4.3322,-4.3488,-4.3488,-4.3488,-4.3488,-4.3488,-4.3488,-4.3355,-4.3138,-4.3734,-4.3994,-4.3977,-4.3776,-4.3658,-4.3655,-4.3757,-4.396,-4.4224,-4.4514,-4.4615,-4.4615,-4.4615,-4.4615,-4.4615,-4.4615,-4.4615,-4.4615,-4.4615,-4.4615,-4.4615,-4.4615,-4.4615,-4.4615,-4.4615,-4.4615,-4.4615,-4.4615,-4.4615,-4.4192,-4.2861,-4.2439,-4.1863,-4.0612,-4.0248,-4.0096,-4.0096,-4.0096,-4.0096,-4.0096,-4.0096,-3.9876,-3.9315,-3.9289,-3.9059,-3.8557,-3.829,-3.779,-3.6994,-3.6722,-3.6353,-3.5863,-3.5619,-3.5504,-3.5504,-3.5504,-3.5504,-3.5504,-3.5504,-3.5504,-3.56,-3.56,0.0,0.0,0.0,0.0,0.0,0.0,0.0,0.0,0.0,0.0,0.0,0.0,0.0,0.0,0.0,0.0,0.0,0.0,0.0,0.0,0.0,0.0,0.0,0.0,0.0,0.0,0.0,0.0,0.0,-4.1164,-4.0693,-4.0693,-3.9834,-3.9394,-3.9409,-3.9409,-3.9409,-3.9409,-3.9424,-4.0755,-4.3229,-4.2395,-4.1997,-4.1965,-4.1997,-4.1997,-4.1965,-4.1965,-4.1478,-4.069,-4.0724,-4.0709,-4.0622,-3.9773,-4.055,-4.2029,-4.2029,-4.2583,-4.3426,-4.4327,-4.457,-4.457,-4.4587,-4.4587,-4.4587,-4.4615,-4.4615,-4.4615,-4.4615,-4.4615,-4.4615,-4.4615,-4.4615,-4.4615,-4.4615,-4.4615,-4.4615,-4.4615,-4.4615,-4.4333,-4.3527,-4.2794,-4.2049,-4.1322,-4.0561,-4.0113,-4.0096,-4.0096,-4.0096,-4.0096,-4.0096,-4.0096,-4.0096,-4.0096,-4.0096,-4.0096,-3.9342,-3.858,-3.7835,-3.7024,-3.66,-3.66,-3.5894,-3.5537,-3.5537,-3.5504,-3.5504,-3.5504,-3.5504,-3.5504,-3.56,0.0,0.0,0.0,0.0,0.0,0.0,0.0,0.0,0.0,0.0,0.0,0.0,0.0,0.0,0.0,0.0,0.0,0.0,0.0,0.0,0.0,0.0,0.0,0.0,0.0,0.0,0.0,0.0,0.0,0.0,-4.0229,-4.0056,-4.0056,-3.9817,-3.9923,-4.0457,-3.984,-4.0106,-4.1229,-4.0005,-3.9809,-4.055,-4.0927,-4.0758,-4.02,-4.0826,-4.0724,-4.0165,-4.0165,-4.0378,-4.0758,-4.1379,-4.1593,-4.1739,-4.2707,-4.3,-4.3,-4.3621,-4.3591,-4.3336,-4.3591,-4.3259,-4.2892,-4.3486,-4.3697,-4.3814,-4.4412,-4.4615,-4.4615,-4.4615,-4.4615,-4.4615,-4.4615,-4.4615,-4.4615,-4.4615,-4.4615,-4.4615,-4.4615,-4.4615,-4.4333,-4.3527,-4.3234,-4.2658,-4.139,-4.1018,-4.0679,-4.018,-4.0096,-4.0096,-4.0096,-4.0096,-4.0096,-4.0096,-4.0096,-4.0096,-4.0096,-3.9876,-3.9385,-3.8608,-3.7847,-3.744,-3.744,-3.7235,-3.7131,-3.7131,-3.6554,-3.6275,-3.6244,-3.5718,-3.5504,-3.56,0.0,0.0,0.0,0.0,0.0,0.0,0.0,0.0,0.0,0.0,0.0,0.0,0.0,0.0,0.0,0.0,0.0,0.0,0.0,0.0,0.0,0.0,0.0,0.0,0.0,0.0,0.0,0.0,0.0,0.0,-4.0053,-3.9841,-3.9841,-3.9501,-3.9676,-4.0448,-3.9607,-3.9842,-4.1103,-3.9748,-3.9234,-3.9576,-4.001,-3.99,-3.9424,-3.9955,-3.99,-3.9388,-3.9388,-3.9702,-4.0255,-4.0774,-4.0961,-4.1095,-4.2157,-4.241,-4.2347,-4.2862,-4.2923,-4.2785,-4.2785,-4.2645,-4.2614,-4.3139,-4.3532,-4.3948,-4.4457,-4.4615,-4.4615,-4.4615,-4.4615,-4.4615,-4.4615,-4.4615,-4.4615,-4.4615,-4.4615,-4.4615,-4.4615,-4.4615,-4.4462,-4.3961,-4.3595,-4.3088,-4.2219,-4.1593,-4.1035,-4.0578,-4.0282,-4.0096,-4.0096,-4.0096,-4.0096,-4.0096,-4.0096,-4.0096,-4.0096,-4.0096,-3.9876,-3.9411,-3.8635,-3.8092,-3.7822,-3.7485,-3.716,-3.689,-3.6415,-3.6165,-3.6134,-3.5701,-3.5504,0.0,0.0,0.0,0.0,0.0,0.0,0.0,0.0,0.0,0.0,0.0,0.0,0.0,0.0,0.0,0.0,0.0,0.0,0.0,0.0,0.0,0.0,0.0,0.0,0.0,0.0,0.0,0.0,0.0,0.0,0.0,-4.0307,-3.9935,-3.9935,-3.9062,-3.9,-3.9806,-3.8951,-3.8919,-3.9687,-3.8869,-3.8854,-3.958,-3.9547,-3.9529,-3.9502,-3.9409,-3.9388,-3.9388,-3.9388,-3.9388,-3.9424,-3.9481,-3.9517,-3.9553,-3.961,-4.015,-4.0826,-4.0826,-4.128,-4.1901,-4.1965,-4.2489,-4.3078,-4.3246,-4.3844,-4.4514,-4.457,-4.4615,-4.4615,-4.4615,-4.4615,-4.4615,-4.4615,-4.4615,-4.4615,-4.4615,-4.4615,-4.4615,-4.4615,-4.4615,-4.4615,-4.4615,-4.3995,-4.3477,-4.3409,-4.2219,-4.1305,-4.1305,-4.0739,-4.0282,-4.0214,-4.0197,-4.018,-4.0113,-4.0096,-4.0096,-4.0096,-4.0096,-4.0096,-4.0096,-3.9394,-3.8663,-3.7921,-3.7174,-3.6461,-3.5716,-3.5651,-3.5587,-3.5587,-3.5537,-3.5504,0.0,0.0,0.0,0.0,0.0,0.0,0.0,0.0,0.0,0.0,0.0,0.0,0.0,0.0,0.0,0.0,0.0,0.0,0.0,0.0,0.0,0.0,0.0,0.0,0.0,0.0,0.0,0.0,0.0,0.0,-3.944,-3.9824,-4.0053,-4.0053,-3.9276,-3.9231,-4.0017,-3.854,-3.8182,-3.8934,-3.8068,-3.7763,-3.7965,-3.9759,-4.0528,-4.0363,-3.9702,-3.9388,-3.9388,-3.9388,-3.9388,-3.9481,-4.015,-4.0432,-4.05,-4.1196,-4.1576,-4.1739,-4.1739,-4.1412,-4.108,-4.1772,-4.1674,-4.1495,-4.2878,-4.3426,-4.371,-4.4412,-4.4615,-4.4615,-4.4615,-4.4615,-4.4615,-4.4615,-4.4615,-4.4615,-4.4615,-4.4615,-4.4615,-4.4615,-4.4615,-4.4615,-4.4615,-4.4479,-4.413,-4.3494,-4.2642,-4.2049,-4.2049,-4.1914,-4.1593,-4.1018,-4.0967,-4.073,-4.0146,-4.0096,-4.0096,-4.0096,-4.0096,-4.0096,-4.0096,-3.9927,-3.9463,-3.869,-3.8481,-3.8032,-3.7294,-3.6661,-3.6353,-3.6368,-3.5782,-3.5504,0.0,0.0,0.0,0.0,0.0,0.0,0.0,0.0,0.0,0.0,0.0,0.0,0.0,0.0,0.0,0.0,0.0,0.0,0.0,0.0,0.0,0.0,0.0,0.0,0.0,0.0,0.0,0.0,0.0,-3.9756,-3.8935,-3.9289,-3.9516,-3.9516,-3.9113,-3.9311,-4.0074,-3.8865,-3.8405,-3.8772,-3.7982,-3.7551,-3.7545,-3.8697,-3.9205,-3.912,-3.8978,-3.8931,-3.896,-3.929,-3.9388,-3.9445,-3.99,-4.008,-4.0115,-4.0569,-4.0774,-4.0792,-4.1247,-4.108,-4.0844,-4.1739,-4.1965,-4.2029,-4.252,-4.3259,-4.3948,-4.3977,-4.4281,-4.4615,-4.4615,-4.4615,-4.4615,-4.4615,-4.4615,-4.4615,-4.4615,-4.4615,-4.4615,-4.4615,-4.4615,-4.4615,-4.4615,-4.4615,-4.4479,-4.4045,-4.3318,-4.2828,-4.2828,-4.2523,-4.2151,-4.1762,-4.1728,-4.1424,-4.0679,-4.0629,-4.0485,-4.013,-4.0096,-4.0096,-4.0096,-4.0096,-3.9731,-3.8908,-3.8908,-3.8342,-3.7203,-3.6783,-3.6415,-3.6054,-3.5668,-3.5504,0.0,0.0,0.0,0.0,0.0,0.0,0.0,0.0,0.0,0.0,0.0,0.0,0.0,0.0,0.0,0.0,0.0,0.0,0.0,0.0,0.0,0.0,0.0,0.0,0.0,0.0,0.0,0.0,0.0,-3.9808,-3.9139,-3.9113,-3.9113,-3.9113,-3.8962,-3.9236,-3.9901,-3.9113,-3.8718,-3.869,-3.7933,-3.7533,-3.7404,-3.7192,-3.7195,-3.7434,-3.7988,-3.8227,-3.8272,-3.896,-3.9245,-3.9245,-3.9328,-3.9388,-3.9388,-3.9388,-3.9388,-3.9502,-4.0397,-4.069,-4.0878,-4.1901,-4.2614,-4.3017,-4.2583,-4.335,-4.4253,-4.3697,-4.4035,-4.4615,-4.4615,-4.4615,-4.4615,-4.4615,-4.4615,-4.4615,-4.4615,-4.4615,-4.4615,-4.4615,-4.4615,-4.4615,-4.4615,-4.4615,-4.4615,-4.4615,-4.4028,-4.3623,-4.3623,-4.3064,-4.2625,-4.2489,-4.2489,-4.2185,-4.1457,-4.139,-4.1068,-4.035,-4.0299,-4.0231,-4.0113,-4.0096,-3.9782,-3.9113,-3.8962,-3.823,-3.6813,-3.6813,-3.6492,-3.5878,-3.5765,-3.5701,0.0,0.0,0.0,0.0,0.0,0.0,0.0,0.0,0.0,0.0,0.0,0.0,0.0,0.0,0.0,0.0,0.0,0.0,0.0,0.0,0.0,0.0,0.0,0.0,0.0,0.0,0.0,0.0,-3.974,-4.0045,-3.9952,-3.9927,-3.9927,-3.9927,-3.9262,-3.8935,-3.9059,-3.8302,-3.795,-3.7921,-3.7144,-3.6753,-3.6724,-3.6058,-3.6372,-3.7404,-3.7494,-3.7539,-3.7599,-3.8257,-3.8527,-3.8586,-3.9185,-3.9388,-3.9388,-3.9388,-3.9388,-3.9502,-4.0397,-4.069,-4.0979,-4.2583,-4.2676,-4.241,-4.3827,-4.3902,-4.3621,-4.4253,-4.4514,-4.4615,-4.4615,-4.4615,-4.4615,-4.4615,-4.4615,-4.4615,-4.4615,-4.4615,-4.4615,-4.4615,-4.4615,-4.4615,-4.4615,-4.4615,-4.4615,-4.4615,-4.4513,-4.4445,-4.4445,-4.4361,-4.4012,-4.3335,-4.324,-4.2963,-4.2219,-4.2151,-4.183,-4.1102,-4.1052,-4.0764,-4.013,-4.0096,-4.0045,-3.9952,-3.9262,-3.8497,-3.7632,-3.7632,-3.7573,-3.7472,-3.6768,-3.6446,0.0,0.0,0.0,0.0,0.0,0.0,0.0,0.0,0.0,0.0,0.0,0.0,0.0,0.0,0.0,0.0,0.0,0.0,0.0,0.0,0.0,0.0,0.0,0.0,0.0,0.0,0.0,0.0,-3.8684,-3.887,-3.887,-3.9242,-3.9486,-3.9486,-3.9538,-3.9584,-3.9584,-3.9252,-3.8859,-3.8414,-3.7645,-3.704,-3.6584,-3.6244,-3.6198,-3.6372,-3.6731,-3.6896,-3.6941,-3.7584,-3.7838,-3.7913,-3.8571,-3.8841,-3.8901,-3.9239,-3.9388,-3.9502,-4.0397,-4.069,-4.0912,-4.2157,-4.2645,-4.2785,-4.3061,-4.3545,-4.4006,-4.3902,-4.4224,-4.4615,-4.4615,-4.4615,-4.4615,-4.4615,-4.4615,-4.4615,-4.4615,-4.4615,-4.4615,-4.4615,-4.4615,-4.4615,-4.4615,-4.4615,-4.4615,-4.4615,-4.4615,-4.4615,-4.4615,-4.4615,-4.4479,-4.4113,-4.4062,-4.3758,-4.298,-4.2929,-4.2608,-4.1863,-4.1424,-4.1052,-4.073,-4.0333,-4.0096,-4.0096,-3.9756,-3.9183,-3.8414,-3.8414,-3.8189,-3.7777,-3.7456,-3.7263,0.0,0.0,0.0,0.0,0.0,0.0,0.0,0.0,0.0,0.0,0.0,0.0,0.0,0.0,0.0,0.0,0.0,0.0,0.0,0.0,0.0,0.0,0.0,0.0,0.0,0.0,0.0,0.0,-3.7787,-3.7905,-3.7905,-3.8413,-3.8717,-3.8717,-3.9242,-3.9639,-3.9825,-4.0011,-3.9808,-3.9209,-3.8442,-3.7761,-3.7188,-3.6994,-3.66,-3.6084,-3.621,-3.6237,-3.6282,-3.6926,-3.718,-3.724,-3.7883,-3.8138,-3.8227,-3.8916,-3.9155,-3.9313,-4.0336,-4.086,-4.118,-4.2062,-4.2785,-4.3216,-4.28,-4.341,-4.4196,-4.3756,-4.4093,-4.4615,-4.4615,-4.4615,-4.4615,-4.4615,-4.4615,-4.4615,-4.4615,-4.4615,-4.4615,-4.4615,-4.4615,-4.4615,-4.4615,-4.4615,-4.4615,-4.4615,-4.4615,-4.4615,-4.4615,-4.4615,-4.4615,-4.4615,-4.4615,-4.435,-4.3775,-4.3707,-4.3386,-4.2625,-4.2066,-4.1593,-4.1221,-4.0663,-4.0299,-4.0096,-4.0096,-3.9808,-3.9193,-3.9193,-3.8924,-3.8374,-3.8177,-3.8092,0.0,0.0,0.0,0.0,0.0,0.0,0.0,0.0,0.0,0.0,0.0,0.0,0.0,0.0,0.0,0.0,0.0,0.0,0.0,0.0,0.0,0.0,0.0,0.0,0.0,0.0,0.0,0.0,-3.7499,-3.7905,-3.7905,-3.7939,-3.7973,-3.7973,-3.799,-3.8345,-3.9039,-3.9757,-4.007,-4.002,-3.9236,-3.8827,-3.8772,-3.8064,-3.7735,-3.7589,-3.6178,-3.5549,-3.5609,-3.6267,-3.6537,-3.6596,-3.7225,-3.7464,-3.7539,-3.8197,-3.8437,-3.8667,-4.0166,-4.1247,-4.2093,-4.2956,-4.3276,-4.3443,-4.4224,-4.3948,-4.3532,-4.4327,-4.457,-4.4615,-4.4615,-4.4615,-4.4615,-4.4615,-4.4615,-4.4615,-4.4615,-4.4615,-4.4615,-4.4615,-4.4615,-4.4615,-4.4615,-4.4615,-4.4615,-4.4615,-4.4615,-4.4615,-4.4615,-4.4615,-4.4615,-4.4615,-4.4615,-4.4581,-4.4547,-4.4547,-4.4198,-4.3375,-4.3291,-4.2675,-4.1271,-4.117,-4.0798,-4.0113,-4.0096,-4.007,-4.0045,-4.0045,-4.002,-3.9952,-3.9209,-3.8854,0.0,0.0,0.0,0.0,0.0,0.0,0.0,0.0,0.0,0.0,0.0,0.0,0.0,0.0,0.0,0.0,0.0,0.0,0.0,0.0,0.0,0.0,0.0,0.0,0.0,0.0,0.0,0.0,0.0,-3.6411,-3.6411,-3.6907,-3.7178,-3.7178,-3.7652,-3.8041,-3.8294,-3.9022,-3.9402,-3.9394,-3.9589,-3.9394,-3.8881,-3.8635,-3.8262,-3.7764,-3.7221,-3.6677,-3.6212,-3.6456,-3.6548,-3.6593,-3.677,-3.7095,-3.7619,-3.8274,-3.8534,-3.876,-4.0301,-4.1023,-4.1421,-4.2218,-4.2847,-4.3366,-4.3651,-4.3948,-4.4196,-4.4514,-4.4615,-4.4615,-4.4615,-4.4615,-4.4615,-4.4615,-4.4615,-4.4615,-4.4615,-4.4615,-4.4615,-4.4615,-4.4615,-4.4615,-4.4615,-4.4615,-4.4615,-4.4615,-4.4615,-4.4615,-4.4615,-4.4615,-4.4615,-4.4615,-4.4615,-4.4615,-4.4615,-4.4615,-4.4496,-4.4181,-4.369,-4.2963,-4.1948,-4.1457,-4.0849,-4.0113,-4.0096,-4.0096,-4.0096,-4.0096,-4.0096,-4.0096,-3.9808,-3.9662,0.0,0.0,0.0,0.0,0.0,0.0,0.0,0.0,0.0,0.0,0.0,0.0,0.0,0.0,0.0,0.0,0.0,0.0,0.0,0.0,0.0,0.0,0.0,0.0,0.0,0.0,0.0,0.0,0.0,0.0,-3.56,-3.6113,-3.64,-3.64,-3.7127,-3.7533,-3.7533,-3.8261,-3.8751,-3.9005,-3.9503,-3.9572,-3.9315,-3.9315,-3.9049,-3.8569,-3.8569,-3.7803,-3.66,-3.6873,-3.6707,-3.6274,-3.6733,-3.7076,-3.7374,-3.8325,-3.8685,-3.8842,-4.0102,-4.0714,-4.1057,-4.1829,-4.264,-4.3377,-4.3643,-4.4138,-4.4615,-4.4615,-4.4615,-4.4615,-4.4615,-4.4615,-4.4615,-4.4615,-4.4615,-4.4615,-4.4615,-4.4615,-4.4615,-4.4615,-4.4615,-4.4615,-4.4615,-4.4615,-4.4615,-4.4615,-4.4615,-4.4615,-4.4615,-4.4615,-4.4615,-4.4615,-4.4615,-4.4615,-4.4615,-4.4615,-4.4615,-4.4615,-4.4096,-4.347,-4.2692,-4.1965,-4.1221,-4.0485,-4.0231,-4.0096,-4.0096,-4.0096,-4.0096,-4.0096,-4.0096,-4.0096,0.0,0.0,0.0,0.0,0.0,0.0,0.0,0.0,0.0,0.0,0.0,0.0,0.0,0.0,0.0,0.0,0.0,0.0,0.0,0.0,0.0,0.0,0.0,0.0,0.0,0.0,0.0,0.0,-3.56,-3.56,-3.56,-3.56,-3.56,-3.56,-3.6349,-3.6761,-3.6761,-3.7499,-3.8227,-3.8937,-3.8954,-3.9368,-4.0079,-4.0079,-4.0079,-4.0096,-4.0096,-3.8799,-3.6722,-3.7515,-3.6951,-3.5733,-3.7205,-3.7338,-3.683,-3.8277,-3.88,-3.8896,-3.9599,-4.0351,-4.1152,-4.1939,-4.2739,-4.3555,-4.4344,-4.4581,-4.4615,-4.4615,-4.4615,-4.4615,-4.4615,-4.4615,-4.4615,-4.4615,-4.4615,-4.4615,-4.4615,-4.4615,-4.4615,-4.4615,-4.4615,-4.4615,-4.4615,-4.4615,-4.4615,-4.4615,-4.4615,-4.4615,-4.4615,-4.4615,-4.4615,-4.4615,-4.4615,-4.4615,-4.4615,-4.4615,-4.4615,-4.4615,-4.4615,-4.4231,-4.3426,-4.2692,-4.1948,-4.1221,-4.0485,-4.0096,-4.0096,-4.0096,-4.0096,-4.0096,-4.0096,-4.0096,-3.56,0.0,0.0,0.0,0.0,0.0,0.0,0.0,0.0,0.0,0.0,0.0,0.0,0.0,0.0,0.0,0.0,0.0,0.0,0.0,0.0,0.0,0.0,0.0,0.0,0.0,0.0,0.0,-3.56,-3.56,-3.56,-3.56,-3.56,-3.56,-3.5802,-3.5943,-3.5943,-3.6705,-3.7218,-3.7422,-3.7939,-3.8582,-3.9292,-3.9292,-3.9605,-4.0096,-4.0096,-3.9394,-3.827,-3.8509,-3.8342,-3.7946,-3.7835,-3.7991,-3.8302,-3.8709,-3.8874,-3.9072,-4.037,-4.0953,-4.1275,-4.2041,-4.28,-4.3426,-4.3673,-4.413,-4.4615,-4.4615,-4.4615,-4.4615,-4.4615,-4.4615,-4.4615,-4.4615,-4.4615,-4.4615,-4.4615,-4.4615,-4.4615,-4.4615,-4.4615,-4.4615,-4.4615,-4.4615,-4.4615,-4.4615,-4.4615,-4.4615,-4.4615,-4.4615,-4.4615,-4.4615,-4.4615,-4.4615,-4.4615,-4.4615,-4.4615,-4.4615,-4.4615,-4.4231,-4.3426,-4.2692,-4.1948,-4.1221,-4.0485,-4.0096,-4.0096,-4.0096,-4.0096,-4.0096,-4.0096,-4.0096,0.0,0.0,0.0,0.0,0.0,0.0,-3.542,-3.5463,0.0,0.0,0.0,0.0,0.0,0.0,0.0,0.0,0.0,0.0,0.0,0.0,0.0,0.0,0.0,0.0,0.0,-3.56,-3.56,-3.56,-3.56,-3.56,-3.56,-3.56,-3.56,-3.56,-3.56,-3.56,-3.56,-3.6079,-3.6451,-3.6812,-3.7229,-3.7821,-3.8548,-3.8853,-3.9225,-3.9673,-3.9977,-3.9833,-3.9394,-3.9394,-3.9005,-3.8414,-3.8318,-3.8525,-3.8935,-3.9289,-3.9394,-3.953,-4.0433,-4.073,-4.0849,-4.1593,-4.2134,-4.2581,-4.3206,-4.3741,-4.4164,-4.4513,-4.4615,-4.4615,-4.4615,-4.4615,-4.4615,-4.4615,-4.4615,-4.4615,-4.4615,-4.4615,-4.4615,-4.4615,-4.4615,-4.4615,-4.4615,-4.4615,-4.4615,-4.4615,-4.4615,-4.4615,-4.4615,-4.4615,-4.4615,-4.4615,-4.4615,-4.4615,-4.4615,-4.4615,-4.4615,-4.4615,-4.4615,-4.4395,-4.3927,-4.2861,-4.21,-4.166,-4.0637,-4.0096,-4.0096,-4.0096,-4.0096,-4.0096,-4.0096,-4.0096,0.0,0.0,0.0,0.0,0.0,0.0,-3.497,-3.5091,-3.5404,0.0,0.0,0.0,0.0,0.0,0.0,0.0,0.0,0.0,0.0,0.0,0.0,0.0,0.0,0.0,-3.56,-3.56,-3.56,-3.56,-3.56,-3.56,-3.56,-3.56,-3.56,-3.56,-3.56,-3.56,-3.56,-3.56,-3.596,-3.6677,-3.6677,-3.706,-3.7804,-3.8447,-3.8836,-3.9039,-3.9706,-4.0028,-4.0096,-3.9995,-3.9226,-3.8121,-3.8789,-3.9016,-3.9113,-3.9833,-4.0096,-4.0096,-4.0096,-4.0096,-4.0214,-4.0865,-4.1136,-4.1441,-4.275,-4.3257,-4.3589,-4.435,-4.4615,-4.4615,-4.4615,-4.4615,-4.4615,-4.4615,-4.4615,-4.4615,-4.4615,-4.4615,-4.4615,-4.4615,-4.4615,-4.4615,-4.4615,-4.4615,-4.4615,-4.4615,-4.4615,-4.4615,-4.4615,-4.4615,-4.4615,-4.4615,-4.4615,-4.4615,-4.4615,-4.4615,-4.4615,-4.4615,-4.4615,-4.4615,-4.4615,-4.3125,-4.2286,-4.2286,-4.0857,-4.0096,-4.0096,-4.0096,-4.0096,-4.0096,-4.0096,-4.0096,0.0,0.0,0.0,0.0,0.0,0.0,-3.3756,-3.376,-3.3853,0.0,0.0,0.0,0.0,0.0,0.0,0.0,0.0,0.0,0.0,0.0,0.0,0.0,0.0,0.0,-3.56,-3.56,-3.56,-3.56,-3.56,-3.56,-3.56,-3.56,-3.56,-3.56,-3.56,-3.56,-3.56,-3.56,-3.5667,-3.5819,-3.5819,-3.6248,-3.7032,-3.7168,-3.7895,-3.9005,-3.914,-3.9554,-4.0045,-3.9394,-3.9358,-3.9679,-3.9808,-3.9876,-3.9885,-4.0045,-4.0096,-4.0096,-4.0096,-4.0096,-4.013,-4.0282,-4.0713,-4.1255,-4.1542,-4.2472,-4.3589,-4.435,-4.4615,-4.4615,-4.4615,-4.4615,-4.4615,-4.4615,-4.4615,-4.4615,-4.4615,-4.4615,-4.4615,-4.4615,-4.4615,-4.4615,-4.4615,-4.4615,-4.4615,-4.4615,-4.4615,-4.4615,-4.4615,-4.4615,-4.4615,-4.4615,-4.4615,-4.4615,-4.4615,-4.4615,-4.4615,-4.4615,-4.4615,-4.4615,-4.4615,-4.3125,-4.2286,-4.2286,-4.0857,-4.0096,-4.0096,-4.0096,-4.0096,-4.0096,-4.0096,-4.0096,0.0,0.0,0.0,-3.4032,0.0,0.0,0.0,-3.3259,-3.3424,-3.4025,0.0,0.0,0.0,0.0,0.0,0.0,0.0,0.0,0.0,0.0,0.0,0.0,0.0,0.0,-3.5399,-3.5518,-3.56,-3.56,-3.56,-3.56,-3.56,-3.56,-3.56,-3.56,-3.56,-3.56,-3.56,-3.56,-3.56,-3.56,-3.56,-3.5802,-3.6214,-3.6626,-3.7202,-3.7922,-3.8667,-3.9191,-3.9563,-3.9511,-3.9731,-4.0045,-3.9662,-3.9756,-4.0096,-4.0096,-4.0096,-4.0096,-4.0096,-4.0096,-4.0096,-4.0096,-4.0367,-4.0713,-4.1085,-4.2236,-4.3477,-4.3893,-4.4282,-4.4615,-4.4615,-4.4615,-4.4615,-4.4615,-4.4615,-4.4615,-4.4615,-4.4615,-4.4615,-4.4615,-4.4615,-4.4615,-4.4615,-4.4615,-4.4615,-4.4615,-4.4615,-4.4615,-4.4615,-4.4615,-4.4615,-4.4615,-4.4615,-4.4615,-4.4615,-4.4615,-4.4615,-4.4615,-4.4615,-4.4615,-4.4615,-4.3125,-4.1948,-4.123,-4.0485,-4.0096,-4.0096,-4.0096,-4.0096,-4.0096,-4.0096,-4.0096,0.0,0.0,0.0,0.0,0.0,-3.2193,0.0,0.0,0.0,-3.3987,0.0,0.0,0.0,0.0,0.0,0.0,0.0,0.0,0.0,0.0,0.0,0.0,0.0,0.0,-3.5109,-3.5364,-3.5586,-3.5744,-3.565,-3.56,-3.56,-3.56,-3.56,-3.56,-3.56,-3.56,-3.56,-3.56,-3.56,-3.56,-3.56,-3.56,-3.5616,-3.6265,-3.666,-3.688,-3.8065,-3.8734,-3.9039,-3.9656,-3.9977,-4.0045,-3.9368,-3.9516,-4.0096,-4.0096,-4.0096,-4.0096,-4.0096,-4.0096,-4.0096,-4.0096,-4.0096,-4.0248,-4.0984,-4.2033,-4.3047,-4.3308,-4.3876,-4.4412,-4.4564,-4.4615,-4.4615,-4.4615,-4.4615,-4.4615,-4.4615,-4.4615,-4.4615,-4.4615,-4.4615,-4.4615,-4.4615,-4.4615,-4.4615,-4.4615,-4.4615,-4.4615,-4.4615,-4.4615,-4.4615,-4.4615,-4.4615,-4.4615,-4.4615,-4.4615,-4.4615,-4.4615,-4.4615,-4.4615,-4.4615,-4.3125,-4.1619,-4.013,-4.0096,-4.0096,-4.0096,-4.0096,-4.0096,-4.0096,-4.0096,-4.0096,0.0,0.0,0.0,0.0,-3.2357,0.0,0.0,0.0,-3.1463,-3.1589,0.0,0.0,0.0,0.0,0.0,0.0,0.0,0.0,0.0,0.0,0.0,0.0,0.0,0.0,0.0,-3.5046,-3.5545,-3.6256,-3.5876,-3.56,-3.56,-3.56,-3.56,-3.56,-3.56,-3.56,-3.56,-3.56,-3.56,-3.56,-3.56,-3.56,-3.56,-3.5684,-3.6129,-3.6812,-3.6981,-3.7794,-3.9005,-3.9089,-3.952,-4.0096,-3.9995,-4.002,-4.0096,-4.0096,-4.0096,-4.0096,-4.0096,-4.0096,-4.0096,-4.0096,-4.0096,-4.0248,-4.0984,-4.1322,-4.1728,-4.302,-4.346,-4.3707,-4.4401,-4.4615,-4.4615,-4.4615,-4.4615,-4.4615,-4.4615,-4.4615,-4.4615,-4.4615,-4.4615,-4.4615,-4.4615,-4.4615,-4.4615,-4.4615,-4.4615,-4.4615,-4.4615,-4.4615,-4.4615,-4.4615,-4.4615,-4.4615,-4.4615,-4.4615,-4.4615,-4.4615,-4.4615,-4.4615,-4.4615,-4.3125,-4.1619,-4.013,-4.0096,-4.0096,-4.0096,-4.0096,-4.0096,-4.0096,-4.0096,-4.0096,0.0,0.0,0.0,0.0,0.0,0.0,-3.1292,0.0,-3.119,0.0,0.0,0.0,0.0,0.0,0.0,0.0,-3.2719,0.0,0.0,0.0,0.0,0.0,0.0,0.0,0.0,0.0,0.0,-3.6031,-3.5406,-3.5263,-3.6015,-3.5783,-3.56,-3.56,-3.56,-3.56,-3.56,-3.56,-3.56,-3.56,-3.56,-3.56,-3.56,-3.56,-3.5769,-3.6129,-3.6609,-3.7151,-3.7794,-3.8633,-3.9174,-3.9495,-3.9943,-4.0096,-4.0096,-4.0096,-4.0096,-4.0096,-4.0096,-4.0096,-4.0096,-4.0096,-4.0096,-4.0163,-4.0485,-4.0849,-4.1339,-4.1965,-4.2439,-4.2946,-4.3707,-4.391,-4.4012,-4.4496,-4.4615,-4.4615,-4.4615,-4.4615,-4.4615,-4.4615,-4.4615,-4.4615,-4.4615,-4.4615,-4.4615,-4.4615,-4.4615,-4.4615,-4.4615,-4.4615,-4.4615,-4.4615,-4.4615,-4.4615,-4.4615,-4.4615,-4.4615,-4.4615,-4.4147,-4.3707,-4.3267,-4.2219,-4.1153,-4.013,-4.0096,-4.0096,-4.0096,-4.0096,-4.0096,-4.0096,-4.0096,-4.0096,-3.56,0.0,0.0,0.0,0.0,0.0,0.0,0.0,0.0,0.0,0.0,0.0,0.0,0.0,0.0,0.0,0.0,-3.3393,0.0,0.0,0.0,0.0,0.0,0.0,0.0,0.0,0.0,-3.5507,-3.4864,-3.4939,-3.6214,-3.5771,-3.5584,-3.581,-3.5689,-3.56,-3.56,-3.56,-3.56,-3.56,-3.56,-3.56,-3.56,-3.56,-3.56,-3.5633,-3.6214,-3.6609,-3.688,-3.7963,-3.8657,-3.9039,-3.9605,-3.9926,-4.0096,-4.0096,-4.0096,-4.0096,-4.0096,-4.0096,-4.0096,-4.0096,-4.0096,-4.0096,-4.0096,-4.046,-4.0933,-4.1136,-4.1593,-4.2168,-4.2912,-4.3115,-4.3301,-4.4079,-4.4265,-4.4316,-4.4564,-4.4615,-4.4615,-4.4615,-4.4615,-4.4615,-4.4615,-4.4615,-4.4615,-4.4615,-4.4615,-4.4615,-4.4615,-4.4615,-4.4615,-4.4615,-4.4615,-4.4615,-4.4615,-4.4615,-4.4615,-4.4615,-4.3842,-4.3081,-4.232,-4.1593,-4.0849,-4.0113,-4.0096,-4.0096,-4.0096,-4.0096,-4.0096,-4.0096,-4.0096,-4.0096,0.0,0.0,0.0,-3.3592,0.0,0.0,0.0,0.0,-3.119,0.0,0.0,0.0,0.0,0.0,0.0,-3.2159,0.0,0.0,0.0,0.0,0.0,0.0,0.0,0.0,0.0,0.0,-3.3538,-3.473,-3.4395,-3.4648,-3.5841,-3.5471,-3.5572,-3.6357,-3.5876,-3.56,-3.56,-3.56,-3.56,-3.56,-3.56,-3.56,-3.56,-3.56,-3.56,-3.56,-3.5616,-3.6079,-3.6795,-3.6846,-3.7726,-3.8988,-3.9022,-3.9462,-4.0096,-4.0096,-4.0096,-4.0096,-4.0096,-4.0096,-4.0096,-4.0096,-4.0096,-4.0096,-4.0096,-4.013,-4.0282,-4.1001,-4.1221,-4.1407,-4.2134,-4.2337,-4.2523,-4.324,-4.3426,-4.3656,-4.4418,-4.4615,-4.4615,-4.4615,-4.4615,-4.4615,-4.4615,-4.4615,-4.4615,-4.4615,-4.4615,-4.4615,-4.4615,-4.4615,-4.4615,-4.4615,-4.4615,-4.4615,-4.4615,-4.4615,-4.4615,-4.4615,-4.3842,-4.3081,-4.232,-4.1593,-4.0849,-4.0113,-4.0096,-4.0096,-4.0096,-4.0096,-4.0096,-4.0096,-4.0096,-4.0096,0.0,0.0,-3.5906,-3.4318,0.0,0.0,0.0,0.0,0.0,0.0,0.0,0.0,0.0,0.0,0.0,-3.3246,-3.3524,0.0,0.0,0.0,0.0,0.0,0.0,0.0,0.0,0.0,0.0,-3.4806,-3.4212,-3.4323,-3.5574,-3.5649,-3.5656,-3.5613,-3.5966,-3.5963,-3.56,-3.56,-3.56,-3.56,-3.56,-3.56,-3.56,-3.56,-3.56,-3.56,-3.56,-3.5752,-3.6045,-3.6592,-3.71,-3.7642,-3.8616,-3.914,-3.9411,-3.9926,-4.0096,-4.0096,-4.0096,-4.0096,-4.0096,-4.0096,-4.0096,-4.0096,-4.0096,-4.0096,-4.0146,-4.0417,-4.046,-4.0629,-4.1373,-4.1576,-4.1762,-4.2506,-4.2675,-4.2878,-4.3639,-4.3809,-4.3961,-4.4513,-4.4615,-4.4615,-4.4615,-4.4615,-4.4615,-4.4615,-4.4615,-4.4615,-4.4615,-4.4615,-4.4615,-4.4615,-4.4615,-4.4615,-4.4615,-4.4615,-4.435,-4.3842,-4.3098,-4.2337,-4.1593,-4.0849,-4.0367,-4.0096,-4.0096,-4.0262,-4.0631,-4.0631,-4.0844,-4.1236,-4.1236,-4.0814,-3.6684,-3.6941,0.0,-3.4876,-3.4416,0.0,-3.2094,0.0,0.0,0.0,0.0,0.0,0.0,0.0,0.0,-3.3807,-3.3807,0.0,0.0,-3.3807,0.0,0.0,0.0,0.0,0.0,0.0,-3.3023,-3.4269,-3.3797,-3.3996,0.0,-3.5418,-3.5465,-3.5455,-3.5894,-3.5963,-3.56,-3.56,-3.56,-3.56,-3.56,-3.56,-3.56,-3.56,-3.56,-3.56,-3.56,-3.56,-3.5633,-3.6163,-3.6535,-3.6897,-3.7862,-3.8531,-3.9089,-3.9842,-4.0096,-4.0096,-4.0096,-4.0096,-4.0096,-4.0096,-4.0096,-4.0096,-4.0096,-4.0096,-4.0146,-4.0434,-4.0316,-4.0282,-4.1018,-4.1018,-4.0984,-4.1728,-4.1914,-4.2117,-4.2861,-4.3014,-4.3166,-4.3673,-4.3785,-4.3887,-4.413,-4.4378,-4.4562,-4.4592,-4.4615,-4.4615,-4.4615,-4.4615,-4.4615,-4.4615,-4.4615,-4.4615,-4.4615,-4.4333,-4.3944,-4.3426,-4.2472,-4.1782,-4.152,-4.0629,-4.0423,-4.1116,-4.0634,-4.0793,-4.1648,-4.1346,-4.1424,-4.181,-4.181,-4.142]},{"header":{"parameterUnit":"m.s-1","parameterCategory":1,"la1":30.6,"la2":29.2853,"lo1":-89.7004,"lo2":-87.6739,"dy":0.0162,"dx":0.0183,"nx":112,"ny":82,"refTime":"2023-06-26T06:00:00:Z","depth":0,"parameterNumber":3,"parameterNumberName":"V-component_of_WINDS"},"data":[0.0,0.0,0.0,0.0,0.0,0.0,0.0,0.0,0.0,0.0,0.0,0.0,0.0,0.0,0.0,0.0,0.0,0.0,0.0,0.0,0.0,0.0,0.0,0.0,0.0,0.0,0.0,0.0,0.0,0.0,0.0,0.0,0.0,0.0,0.0,0.0,0.0,0.0,0.0,0.0,0.0,0.0,0.0,0.0,0.0,0.0,0.0,0.0,0.0,0.0,0.0,0.0,0.0,0.0,0.0,0.0,0.0,0.0,0.0,0.0,0.0,0.0,0.0,0.0,0.0,0.0,0.0,0.0,0.0,0.0,0.0,0.0,0.0,0.0,0.0,0.0,0.0,0.0,0.0,0.0,0.0,0.0,0.0,0.0,0.0,0.0,0.0,0.0,0.0,0.0,0.0,-2.3035,-2.3108,-2.3108,-2.3108,-2.3108,-2.3108,-2.3108,0.0,0.0,0.0,0.0,0.0,0.0,0.0,0.0,0.0,0.0,0.0,0.0,0.0,0.0,0.0,0.0,0.0,0.0,0.0,0.0,0.0,0.0,0.0,0.0,0.0,0.0,0.0,0.0,0.0,0.0,0.0,0.0,0.0,0.0,0.0,0.0,0.0,0.0,0.0,0.0,0.0,0.0,0.0,0.0,0.0,0.0,0.0,0.0,0.0,0.0,0.0,0.0,0.0,0.0,0.0,0.0,0.0,0.0,0.0,0.0,0.0,0.0,0.0,0.0,0.0,0.0,0.0,0.0,0.0,0.0,0.0,0.0,0.0,0.0,0.0,0.0,0.0,0.0,0.0,0.0,0.0,0.0,0.0,0.0,0.0,0.0,0.0,0.0,0.0,0.0,0.0,0.0,0.0,0.0,0.0,0.0,0.0,0.0,0.0,0.0,0.0,0.0,0.0,0.0,-2.2944,-2.3078,-2.3108,-2.3108,-2.3108,-2.3108,-2.3108,-2.3108,0.0,0.0,0.0,0.0,0.0,0.0,0.0,0.0,0.0,0.0,0.0,0.0,0.0,0.0,0.0,0.0,0.0,0.0,0.0,0.0,0.0,0.0,0.0,0.0,0.0,0.0,0.0,0.0,0.0,0.0,0.0,0.0,0.0,0.0,0.0,0.0,0.0,0.0,0.0,0.0,0.0,0.0,0.0,0.0,0.0,0.0,0.0,0.0,0.0,0.0,0.0,0.0,0.0,0.0,0.0,0.0,0.0,0.0,0.0,0.0,0.0,0.0,0.0,0.0,0.0,0.0,0.0,0.0,0.0,0.0,0.0,0.0,0.0,0.0,0.0,0.0,0.0,0.0,0.0,0.0,0.0,0.0,0.0,0.0,0.0,0.0,0.0,0.0,0.0,0.0,0.0,0.0,0.0,0.0,0.0,0.0,0.0,0.0,0.0,0.0,0.0,0.0,0.0,-2.3108,-2.3108,-2.3108,-2.3108,-2.3108,-2.3108,-2.3108,-2.3275,-2.3708,-2.3738,0.0,0.0,0.0,0.0,0.0,0.0,0.0,0.0,0.0,0.0,0.0,0.0,0.0,0.0,0.0,0.0,0.0,0.0,0.0,0.0,0.0,0.0,0.0,0.0,0.0,0.0,0.0,0.0,0.0,0.0,0.0,0.0,0.0,0.0,0.0,0.0,0.0,0.0,0.0,0.0,0.0,0.0,0.0,0.0,0.0,0.0,0.0,0.0,0.0,0.0,0.0,0.0,0.0,0.0,0.0,0.0,0.0,0.0,0.0,0.0,0.0,0.0,0.0,0.0,0.0,0.0,0.0,0.0,0.0,0.0,0.0,0.0,0.0,0.0,0.0,0.0,0.0,0.0,0.0,0.0,0.0,0.0,0.0,0.0,0.0,0.0,0.0,0.0,0.0,0.0,0.0,0.0,0.0,0.0,0.0,0.0,0.0,0.0,0.0,0.0,0.0,0.0,-2.3108,-2.3108,-2.3108,-2.3108,-2.3108,-2.3108,-2.3108,-2.3365,-2.3972,-2.4205,0.0,0.0,0.0,0.0,0.0,0.0,0.0,0.0,0.0,0.0,0.0,0.0,0.0,0.0,0.0,0.0,0.0,0.0,0.0,0.0,0.0,0.0,0.0,0.0,0.0,0.0,0.0,0.0,0.0,0.0,0.0,0.0,0.0,0.0,0.0,0.0,0.0,0.0,0.0,0.0,0.0,0.0,0.0,0.0,0.0,0.0,0.0,0.0,0.0,0.0,0.0,0.0,0.0,0.0,0.0,0.0,0.0,0.0,0.0,0.0,0.0,0.0,0.0,0.0,0.0,0.0,0.0,0.0,0.0,0.0,0.0,0.0,0.0,0.0,0.0,0.0,0.0,0.0,0.0,0.0,0.0,0.0,0.0,0.0,0.0,0.0,0.0,0.0,0.0,0.0,0.0,0.0,0.0,0.0,0.0,0.0,0.0,0.0,0.0,0.0,0.0,0.0,-2.3108,-2.3108,-2.3108,-2.3108,-2.3108,-2.3108,-2.3108,-2.3138,-2.3198,-2.3884,0.0,0.0,0.0,0.0,0.0,0.0,0.0,0.0,0.0,0.0,0.0,0.0,0.0,0.0,0.0,0.0,0.0,0.0,0.0,0.0,0.0,0.0,0.0,0.0,0.0,0.0,0.0,0.0,0.0,0.0,0.0,0.0,0.0,0.0,0.0,0.0,0.0,0.0,0.0,0.0,0.0,0.0,0.0,0.0,0.0,0.0,0.0,0.0,0.0,0.0,0.0,0.0,0.0,0.0,0.0,0.0,0.0,0.0,0.0,0.0,0.0,0.0,0.0,0.0,0.0,0.0,0.0,0.0,0.0,0.0,0.0,0.0,0.0,0.0,0.0,0.0,0.0,0.0,0.0,0.0,0.0,0.0,0.0,0.0,0.0,0.0,0.0,0.0,0.0,0.0,0.0,0.0,0.0,0.0,0.0,0.0,0.0,0.0,0.0,0.0,0.0,0.0,-2.3108,-2.3108,0.0,-2.3108,-2.3108,-2.3108,-2.3108,-2.3305,-2.3826,0.0,0.0,0.0,0.0,0.0,0.0,0.0,0.0,0.0,0.0,0.0,0.0,0.0,0.0,0.0,0.0,0.0,0.0,0.0,0.0,0.0,0.0,0.0,0.0,0.0,0.0,0.0,0.0,0.0,0.0,0.0,0.0,0.0,0.0,0.0,0.0,0.0,0.0,0.0,0.0,0.0,0.0,0.0,0.0,0.0,0.0,0.0,0.0,0.0,0.0,0.0,0.0,0.0,0.0,0.0,0.0,0.0,0.0,0.0,0.0,0.0,0.0,0.0,0.0,0.0,0.0,0.0,0.0,0.0,0.0,0.0,0.0,0.0,0.0,0.0,0.0,0.0,0.0,0.0,0.0,0.0,0.0,0.0,0.0,0.0,0.0,0.0,0.0,0.0,0.0,0.0,0.0,0.0,0.0,0.0,0.0,0.0,0.0,0.0,0.0,0.0,0.0,-2.3108,-2.3108,-2.3108,0.0,-2.3108,-2.3108,-2.3108,-2.3108,-2.3335,-2.3884,0.0,0.0,0.0,0.0,0.0,0.0,0.0,0.0,0.0,0.0,0.0,0.0,0.0,0.0,0.0,0.0,0.0,0.0,0.0,0.0,0.0,0.0,0.0,0.0,0.0,0.0,0.0,0.0,0.0,0.0,0.0,0.0,0.0,0.0,0.0,0.0,0.0,0.0,0.0,0.0,0.0,0.0,0.0,0.0,0.0,0.0,0.0,0.0,0.0,0.0,0.0,0.0,0.0,0.0,0.0,0.0,0.0,0.0,0.0,0.0,0.0,0.0,0.0,0.0,0.0,0.0,0.0,0.0,0.0,0.0,0.0,0.0,0.0,0.0,0.0,0.0,0.0,0.0,0.0,0.0,0.0,0.0,0.0,0.0,0.0,0.0,0.0,0.0,0.0,0.0,0.0,0.0,0.0,0.0,0.0,0.0,0.0,0.0,0.0,0.0,0.0,0.0,-2.3108,-2.3108,-2.3108,-2.3108,-2.3108,-2.3108,-2.3108,-2.3108,-2.3108,0.0,0.0,0.0,0.0,0.0,0.0,0.0,0.0,0.0,0.0,0.0,0.0,0.0,0.0,0.0,0.0,0.0,0.0,0.0,0.0,0.0,0.0,0.0,0.0,0.0,0.0,0.0,0.0,0.0,0.0,0.0,0.0,0.0,0.0,0.0,0.0,0.0,0.0,0.0,0.0,0.0,0.0,0.0,0.0,0.0,0.0,0.0,0.0,0.0,0.0,0.0,0.0,0.0,0.0,0.0,0.0,0.0,0.0,0.0,0.0,0.0,0.0,0.0,0.0,0.0,0.0,0.0,0.0,0.0,0.0,0.0,0.0,0.0,0.0,0.0,0.0,0.0,0.0,0.0,0.0,0.0,0.0,0.0,0.0,0.0,0.0,0.0,0.0,0.0,0.0,0.0,0.0,0.0,0.0,0.0,0.0,0.0,0.0,0.0,0.0,0.0,0.0,0.0,-2.3108,-2.3108,-2.3108,-2.3108,-2.3108,-2.3108,-2.3108,-2.3108,-2.3108,-2.3108,0.0,0.0,0.0,0.0,0.0,0.0,0.0,0.0,0.0,0.0,0.0,0.0,0.0,0.0,0.0,0.0,0.0,0.0,0.0,0.0,0.0,0.0,0.0,0.0,0.0,0.0,0.0,0.0,0.0,0.0,0.0,0.0,0.0,0.0,0.0,0.0,0.0,0.0,0.0,0.0,0.0,0.0,0.0,0.0,0.0,0.0,0.0,0.0,0.0,0.0,0.0,0.0,0.0,0.0,0.0,0.0,0.0,0.0,0.0,0.0,0.0,0.0,0.0,0.0,0.0,0.0,0.0,0.0,0.0,0.0,0.0,0.0,0.0,0.0,0.0,0.0,0.0,0.0,0.0,0.0,0.0,0.0,0.0,0.0,0.0,0.0,0.0,0.0,0.0,0.0,0.0,0.0,0.0,0.0,0.0,0.0,0.0,0.0,0.0,0.0,0.0,0.0,-2.3108,-2.3108,-2.3108,-2.3108,-2.3108,-2.3108,-2.3108,-2.3108,-2.3108,-2.3108,0.0,0.0,0.0,0.0,0.0,0.0,0.0,0.0,0.0,0.0,0.0,0.0,0.0,0.0,0.0,0.0,0.0,0.0,0.0,0.0,0.0,0.0,0.0,0.0,0.0,0.0,0.0,0.0,0.0,0.0,0.0,0.0,0.0,0.0,0.0,0.0,0.0,0.0,0.0,0.0,0.0,0.0,0.0,0.0,0.0,0.0,0.0,0.0,0.0,0.0,0.0,0.0,0.0,0.0,0.0,0.0,0.0,0.0,0.0,0.0,0.0,0.0,0.0,0.0,0.0,0.0,0.0,0.0,0.0,0.0,0.0,0.0,0.0,0.0,0.0,0.0,0.0,0.0,0.0,0.0,0.0,0.0,0.0,0.0,0.0,0.0,0.0,0.0,0.0,0.0,0.0,0.0,0.0,0.0,0.0,0.0,0.0,0.0,0.0,0.0,0.0,0.0,-2.3108,-2.3108,-2.3108,-2.3108,-2.3108,-2.3108,-2.3108,-2.3108,-2.3108,-2.3108,0.0,0.0,0.0,0.0,0.0,0.0,0.0,0.0,0.0,0.0,0.0,0.0,0.0,0.0,0.0,0.0,0.0,0.0,0.0,0.0,0.0,0.0,0.0,0.0,0.0,0.0,0.0,0.0,0.0,0.0,0.0,0.0,0.0,0.0,0.0,0.0,0.0,0.0,0.0,0.0,0.0,0.0,0.0,0.0,0.0,0.0,0.0,0.0,0.0,0.0,0.0,0.0,0.0,0.0,0.0,0.0,0.0,0.0,0.0,0.0,-1.6641,0.0,0.0,0.0,0.0,0.0,0.0,0.0,0.0,0.0,0.0,0.0,0.0,0.0,0.0,0.0,0.0,0.0,0.0,0.0,0.0,0.0,0.0,0.0,0.0,0.0,0.0,0.0,0.0,0.0,0.0,0.0,0.0,0.0,0.0,0.0,0.0,0.0,0.0,0.0,0.0,0.0,-2.3108,-2.3108,-2.3108,-2.3108,-2.3108,-2.3108,-2.3108,-2.3108,-2.3108,-2.3108,-2.3245,0.0,0.0,0.0,0.0,0.0,0.0,0.0,0.0,0.0,0.0,0.0,0.0,0.0,0.0,0.0,0.0,0.0,0.0,0.0,0.0,0.0,0.0,0.0,0.0,0.0,0.0,0.0,0.0,0.0,0.0,0.0,0.0,0.0,0.0,0.0,0.0,0.0,0.0,0.0,0.0,0.0,0.0,0.0,0.0,0.0,0.0,0.0,0.0,0.0,0.0,0.0,0.0,0.0,0.0,0.0,0.0,0.0,0.0,0.0,0.0,-1.6824,0.0,0.0,0.0,0.0,0.0,0.0,0.0,0.0,0.0,0.0,0.0,0.0,0.0,0.0,0.0,0.0,0.0,0.0,0.0,0.0,0.0,0.0,0.0,0.0,0.0,0.0,0.0,0.0,0.0,0.0,0.0,0.0,0.0,0.0,0.0,0.0,0.0,0.0,0.0,0.0,-2.3108,-2.3108,-2.3108,-2.3108,-2.3108,-2.3108,-2.3108,-2.3108,-2.3108,-2.3108,-2.3454,0.0,0.0,0.0,0.0,0.0,0.0,0.0,0.0,0.0,0.0,0.0,0.0,0.0,0.0,0.0,0.0,0.0,0.0,0.0,0.0,0.0,0.0,0.0,0.0,0.0,0.0,0.0,0.0,0.0,0.0,0.0,0.0,0.0,0.0,0.0,0.0,0.0,0.0,0.0,0.0,0.0,0.0,0.0,0.0,0.0,0.0,0.0,0.0,0.0,0.0,0.0,0.0,0.0,-1.7086,-1.7738,-1.7775,-1.8839,-1.9287,-1.9209,-1.7793,-1.7344,-1.7568,-1.7139,0.0,0.0,0.0,0.0,0.0,0.0,0.0,0.0,0.0,0.0,0.0,0.0,0.0,0.0,0.0,0.0,0.0,0.0,0.0,0.0,0.0,0.0,0.0,0.0,-1.9077,-1.9497,-2.1101,0.0,0.0,0.0,0.0,0.0,0.0,0.0,0.0,0.0,0.0,0.0,-2.3384,-2.3396,-2.3396,-2.3396,-2.3396,-2.3396,-2.3396,-2.3396,-2.3396,-2.3396,-2.4017,-2.4449,0.0,0.0,0.0,0.0,0.0,0.0,0.0,0.0,0.0,0.0,0.0,0.0,0.0,0.0,0.0,0.0,0.0,0.0,0.0,0.0,0.0,0.0,0.0,0.0,0.0,0.0,0.0,0.0,0.0,0.0,0.0,0.0,-1.2231,-1.2191,0.0,0.0,0.0,0.0,0.0,0.0,0.0,0.0,0.0,0.0,0.0,0.0,0.0,-1.4344,-1.4415,-1.5431,-1.6002,-1.6154,-1.7329,-1.7859,-1.7896,-1.8875,-1.9287,-1.9277,-1.9053,0.0,-1.8403,-1.8018,0.0,0.0,0.0,0.0,0.0,0.0,0.0,0.0,0.0,0.0,0.0,0.0,0.0,0.0,0.0,0.0,0.0,0.0,0.0,0.0,0.0,0.0,-1.8042,-1.8134,-1.8168,-1.8428,0.0,-2.0236,-2.1037,-2.1877,-2.2063,0.0,0.0,0.0,0.0,0.0,0.0,0.0,-2.4512,-2.4575,-2.4575,-2.4575,-2.4575,-2.4575,-2.4575,-2.4575,-2.4575,-2.4575,-2.469,-2.5,-2.5652,-2.5235,0.0,0.0,0.0,0.0,0.0,0.0,0.0,0.0,0.0,0.0,0.0,0.0,0.0,0.0,0.0,0.0,0.0,0.0,0.0,0.0,0.0,0.0,0.0,0.0,0.0,0.0,0.0,0.0,0.0,-1.3098,-1.2879,-1.2372,-1.2489,-1.2589,0.0,0.0,0.0,0.0,0.0,0.0,0.0,0.0,0.0,-1.4077,-1.4491,-1.498,-1.5626,-1.6272,-1.6611,-1.6611,-1.7893,-1.852,-1.8559,-1.9573,-2.0048,-2.0028,-1.9746,-1.9531,-1.929,-1.8906,-1.873,-1.873,0.0,0.0,0.0,0.0,-1.873,-1.873,-1.873,-1.8574,0.0,-1.8788,0.0,0.0,0.0,0.0,0.0,0.0,0.0,0.0,0.0,0.0,-1.873,-1.873,-1.873,-1.8968,-1.9834,-1.9938,-2.0196,0.0,-2.1911,-2.2337,-2.2633,0.0,0.0,0.0,0.0,-2.4512,-2.4763,-2.4788,-2.4788,-2.4788,-2.4788,-2.4788,-2.4788,-2.4788,-2.4788,-2.4788,-2.4788,-2.4924,-2.5281,-2.5051,-2.5283,0.0,0.0,0.0,0.0,0.0,0.0,0.0,0.0,0.0,0.0,0.0,0.0,0.0,0.0,0.0,0.0,0.0,0.0,0.0,0.0,0.0,0.0,0.0,0.0,0.0,0.0,0.0,0.0,-1.3563,-1.3303,-1.2607,-1.277,-1.2904,0.0,0.0,0.0,0.0,0.0,0.0,-1.328,-1.3394,-1.3782,-1.459,-1.4974,-1.5558,-1.6359,-1.7282,-1.7746,-1.7746,-1.911,-1.9756,-1.9756,-2.0572,-2.0938,-2.0918,-2.0439,-2.0216,-2.0167,-1.9561,-1.9287,-1.9287,-1.9287,-1.9287,-1.9287,-1.9287,-1.9287,-1.9287,-1.9287,-1.9072,-1.8763,-1.8763,-1.8594,-1.8434,-1.909,0.0,0.0,0.0,0.0,-1.9614,-1.8931,-1.9043,-1.9287,-1.9287,-1.9287,-1.9459,-2.0124,-1.9945,-1.9987,0.0,-2.1931,-2.2587,-2.3252,0.0,0.0,0.0,0.0,-2.5071,-2.5222,-2.5247,-2.5247,-2.5247,-2.5247,-2.5247,-2.5247,-2.5247,-2.5247,-2.5247,-2.5247,-2.5247,-2.5247,-2.5096,-2.5242,-2.5797,0.0,0.0,0.0,0.0,0.0,0.0,0.0,0.0,0.0,0.0,0.0,0.0,0.0,0.0,0.0,0.0,0.0,0.0,0.0,0.0,0.0,0.0,0.0,0.0,0.0,0.0,0.0,0.0,0.0,-1.3166,-1.318,0.0,0.0,0.0,0.0,-1.3213,-1.3427,-1.358,-1.358,-1.3888,-1.4084,-1.4126,-1.5494,-1.6269,-1.6311,-1.876,-2.0021,-2.0072,-2.1189,-2.1734,-2.1775,-2.1816,-2.1816,-2.1797,-2.1357,-2.1122,-2.1025,-1.9805,-1.9287,-1.9287,-1.9287,-1.9287,-1.9287,-1.9287,-1.9287,-1.9287,-1.9287,-1.9277,-1.9248,-1.9248,-1.9238,-1.9255,-1.9291,-1.9328,0.0,0.0,-1.9311,-1.933,-1.9294,-1.9268,-1.9287,-1.9287,-1.9287,-1.9323,-1.936,-1.9981,-2.0804,0.0,-2.2002,-2.2355,-2.3323,0.0,-2.4918,-2.5485,-2.5548,-2.5749,-2.6336,-2.6411,-2.6411,-2.6411,-2.6411,-2.6411,-2.6411,-2.6411,-2.6411,-2.6411,-2.6411,-2.6411,-2.6411,-2.585,-2.5594,-2.5615,-2.5786,0.0,0.0,0.0,0.0,0.0,0.0,0.0,0.0,0.0,0.0,0.0,0.0,0.0,0.0,0.0,0.0,0.0,0.0,0.0,0.0,0.0,0.0,0.0,0.0,0.0,0.0,0.0,0.0,-1.3286,-1.3333,0.0,-1.3447,-1.3661,-1.4172,-1.5121,-1.4551,-1.4617,-1.5605,-1.5055,-1.4993,-1.5706,-1.6227,-1.6799,-1.7533,-1.9237,-2.0069,-2.0078,-2.1307,-2.1885,-2.1885,-2.1885,-2.1885,-2.1875,-2.1719,-2.165,-2.1621,-2.1152,-2.0625,-2.0155,-2.0155,-2.0155,-2.0155,-2.0155,-2.0155,-2.0155,-2.0155,-1.9932,-1.9648,-1.9375,-1.9287,-1.9287,-1.9287,-1.9287,-1.9287,-1.9287,-1.9482,-1.9697,-1.9697,-1.9902,-2.0155,-2.0155,-2.0155,-2.0155,-2.0155,-2.0363,-2.0869,-2.1839,-2.2232,-2.2875,-2.4247,-2.4735,-2.522,-2.6045,-2.6185,-2.626,-2.6461,-2.6499,-2.6499,-2.6499,-2.6499,-2.6499,-2.6499,-2.6499,-2.6499,-2.6499,-2.6499,-2.6499,-2.6499,-2.6298,-2.6185,-2.6185,-2.624,-2.6362,0.0,0.0,0.0,0.0,0.0,0.0,0.0,0.0,0.0,0.0,0.0,0.0,0.0,0.0,0.0,0.0,0.0,0.0,0.0,0.0,0.0,0.0,0.0,0.0,0.0,0.0,-1.4631,-1.3622,-1.372,-1.406,-1.4455,-1.4457,-1.496,-1.6374,-1.5343,-1.5096,-1.6154,-1.5927,-1.6118,-1.6847,-1.7906,-1.8827,-1.9543,-2.086,-2.15,-2.15,-2.2327,-2.2734,-2.2734,-2.2734,-2.2734,-2.2725,-2.2441,-2.2314,-2.2285,-2.2002,-2.1543,-2.1055,-2.1055,-2.1055,-2.1036,-2.085,-2.0791,-2.0771,-2.0654,-2.0419,-2.0088,-1.9852,-1.9754,-1.9754,-1.9754,-1.9754,-1.9754,-1.9754,-1.9922,-2.0137,-2.0137,-2.039,-2.0673,-2.1011,-2.1078,-2.1155,-2.1527,-2.1565,-2.1859,-2.2813,-2.3002,-2.3396,-2.4767,-2.53,-2.5734,-2.6383,-2.6499,-2.6499,-2.6499,-2.6499,-2.6499,-2.6499,-2.6499,-2.6499,-2.6499,-2.6499,-2.6499,-2.6499,-2.6499,-2.6499,-2.6499,-2.6499,-2.6499,-2.6499,-2.6499,-2.6726,-2.7155,0.0,0.0,0.0,0.0,0.0,0.0,0.0,0.0,0.0,0.0,0.0,0.0,0.0,0.0,0.0,0.0,0.0,0.0,0.0,0.0,0.0,0.0,0.0,-1.5902,-1.5752,-1.5352,-1.4306,-1.4398,-1.5037,-1.6154,-1.5483,-1.5538,-1.6793,-1.573,-1.51,-1.5242,-1.6621,-1.7455,-1.75,-2.0529,-2.2135,-2.2089,-2.3602,-2.4322,-2.4275,-2.4368,-2.4414,-2.4414,-2.4414,-2.4414,-2.4375,-2.3599,-2.3193,-2.3071,-2.2305,-2.1963,-2.1963,-2.1904,-2.1885,-2.1836,-2.1375,-2.121,-2.1151,-2.0801,-2.0644,-2.0644,-2.0625,-2.0625,-2.0625,-2.0605,-2.0605,-2.0605,-2.0605,-2.0605,-2.0605,-2.0605,-2.0605,-2.0828,-2.1735,-2.1952,-2.2215,-2.3184,-2.3404,-2.3708,-2.4707,-2.4145,-2.3818,-2.4862,-2.5838,-2.6499,-2.6499,-2.6499,0.0,-2.6499,-2.6499,-2.6499,-2.6499,-2.6499,-2.6499,-2.6499,-2.6499,-2.6499,-2.6499,-2.6499,-2.6499,-2.6499,-2.6499,-2.6499,-2.6499,-2.6521,-2.6905,-2.7703,0.0,0.0,0.0,0.0,0.0,0.0,0.0,0.0,0.0,0.0,0.0,0.0,0.0,0.0,0.0,0.0,0.0,0.0,0.0,0.0,0.0,0.0,-1.9371,-1.7172,-1.7153,-1.6938,-1.5681,-1.5922,-1.5943,-1.5399,-1.5323,-1.6299,-1.8725,-1.7073,-1.7257,-2.0348,-1.9138,-1.8812,-1.9841,-2.0701,-2.0716,-1.9669,-2.1919,-2.2595,-2.167,-2.3504,-2.4414,-2.4414,-2.4414,-2.4414,-2.4404,-2.417,-2.4072,-2.4043,-2.3818,-2.3721,-2.3603,-2.2363,-2.1885,-2.1875,-2.1748,-2.1709,-2.1689,-2.1562,-2.1523,-2.1475,-2.1152,-2.1055,-2.0986,-2.0703,-2.0605,-2.0605,-2.0605,-2.0605,-2.0605,-2.0605,-2.0605,-2.0673,-2.0934,-2.0972,-2.1039,-2.1346,-2.1423,-2.1669,-2.2627,-2.3184,-2.4036,-2.5804,-2.6314,-2.6499,-2.6499,-2.6499,0.0,-2.6499,-2.6499,-2.6499,-2.6499,-2.6499,-2.6499,-2.6499,-2.6499,-2.6499,-2.6499,-2.6499,-2.6499,-2.6499,-2.6499,-2.6499,-2.6499,-2.7061,-2.7484,0.0,0.0,0.0,0.0,0.0,0.0,0.0,0.0,0.0,0.0,0.0,0.0,0.0,0.0,0.0,0.0,0.0,0.0,0.0,0.0,0.0,0.0,-2.0686,-2.0236,-1.9348,-1.9064,-1.8305,-1.6599,-1.7368,-1.7937,-1.7722,-1.7704,-1.8333,-1.9972,-1.8348,-1.8113,-2.0039,-1.9367,-1.9357,-2.0283,-2.1568,-2.1926,-2.1276,-2.3404,-2.4051,-2.3296,-2.4802,-2.541,-2.5244,-2.5244,-2.5146,-2.4961,-2.4775,-2.4687,-2.4678,-2.4492,-2.4414,0.0,0.0,0.0,0.0,0.0,-2.2041,-2.1885,-2.1885,-2.1885,-2.1846,-2.1592,-2.1504,-2.1455,-2.1201,-2.1153,-2.1153,-2.1153,-2.1153,-2.1153,-2.1153,-2.0977,-2.0958,-2.1359,-2.1334,-2.1298,-2.1707,-2.1821,-2.1973,-2.2515,-2.311,0.0,-2.5581,-2.6233,-2.6349,-2.5955,-2.6245,-2.6499,-2.6499,-2.6499,-2.6499,-2.6499,-2.6499,-2.6499,-2.6499,-2.6499,0.0,0.0,0.0,-2.6499,-2.6499,-2.6499,0.0,0.0,0.0,-2.7196,-2.7196,0.0,0.0,0.0,-2.7988,-2.7889,0.0,0.0,0.0,0.0,0.0,0.0,0.0,0.0,0.0,0.0,0.0,0.0,0.0,0.0,0.0,0.0,-2.0577,-2.0416,-2.1672,-2.117,-1.9824,-1.758,-1.8897,-2.0397,-2.132,-2.0947,-2.0652,-2.0734,-1.9424,-1.8246,-1.7392,0.0,0.0,0.0,0.0,-2.4503,-2.4812,-2.6266,-2.691,-2.6798,-2.691,-2.6816,-2.6455,-2.6455,-2.625,-2.581,-2.5459,-2.5311,-2.5233,-2.4795,-2.4609,-2.4551,-2.4453,-2.4189,-2.3769,-2.3008,-2.2461,-2.21,-2.21,0.0,0.0,-2.1973,-2.1953,-2.1953,-2.1904,-2.1885,-2.1885,-2.1885,-2.1885,-2.1885,-2.1885,-2.1592,-2.149,-2.2393,-2.2306,-2.2233,-2.3126,-2.3312,-2.3349,-2.3461,-2.3527,-2.3861,-2.4765,-2.57,-2.606,-2.53,-2.5921,-2.6499,-2.6499,-2.6499,-2.6499,-2.6499,0.0,0.0,-2.6499,-2.6499,-2.6499,-2.6499,-2.6499,-2.6499,-2.6499,-2.6499,-2.6499,-2.6499,-2.6499,-2.6499,-2.6499,-2.6499,-2.6499,-2.6521,-2.8019,-2.8298,0.0,0.0,0.0,0.0,0.0,0.0,0.0,0.0,0.0,0.0,0.0,0.0,0.0,0.0,0.0,-2.1648,-2.2146,-2.2178,-2.15,-2.2655,-2.2815,-2.0686,-2.1359,-2.1752,-2.1028,-2.0077,-2.0045,-2.137,-1.9383,-1.9081,-2.1262,-2.0659,-2.1351,-2.3739,-2.4391,-2.4792,-2.4968,-2.6317,-2.6471,-2.5402,0.0,0.0,-2.6894,-2.6894,-2.6846,-2.6768,-2.668,-2.6445,-2.6123,-2.6045,-2.5801,-2.5362,-2.4651,-2.4365,-2.4277,-2.4111,-2.3789,-2.3418,-2.3418,-2.3193,-2.2799,-2.25,-2.2393,-2.2324,-2.1992,-2.1885,0.0,-2.1885,-2.1885,-2.1885,-2.1885,-2.1816,-2.1799,-2.1994,-2.2006,-2.1978,-2.218,-2.2221,-2.2433,-2.3179,-2.3727,-2.4119,-2.4318,-2.4869,-2.5511,-2.6129,-2.6383,-2.6499,-2.6499,-2.6499,-2.6499,-2.6499,-2.6499,-2.6499,-2.6499,-2.6499,-2.6499,-2.6499,-2.6499,-2.6499,-2.6499,-2.6499,-2.6499,-2.6499,-2.6499,-2.6499,-2.6499,-2.6499,-2.6499,-2.6499,-2.685,-2.6871,0.0,0.0,0.0,0.0,0.0,0.0,0.0,0.0,0.0,0.0,0.0,-2.0398,0.0,0.0,-2.1768,-2.2422,-2.2881,-2.3071,-2.2881,-2.3958,-2.4065,-2.2162,-2.3056,-2.371,-2.3281,-2.2964,-2.2941,-2.3305,-2.2212,-2.1551,-2.1617,-2.1679,-2.2073,-2.2943,-2.4403,-2.5305,-2.5566,-2.6936,-2.7323,-2.6663,-2.7323,-2.7549,-2.7344,-2.7344,-2.7217,-2.7012,-2.7012,-2.6894,-2.6699,-2.6699,-2.6455,-2.6016,-2.5576,-2.5127,-2.4717,-2.4502,-2.4287,-2.4102,-2.4102,-2.3965,-2.3666,-2.3291,-2.3154,-2.3066,-2.2637,-2.251,-2.251,-2.251,-2.251,-2.251,-2.251,-2.2353,-2.2197,-2.2197,-2.2041,-2.1885,-2.1885,-2.1885,-2.2195,-2.3222,-2.3659,-2.42,-2.5233,-2.5188,-2.5148,-2.5667,-2.6176,-2.6499,-2.6499,-2.6499,-2.6499,-2.6499,-2.6499,-2.6499,-2.6499,-2.6499,-2.6499,-2.6499,-2.6499,-2.6499,-2.6499,-2.6499,-2.6499,-2.6499,-2.6499,-2.6499,-2.6499,-2.6499,-2.6499,-2.6499,-2.6499,-2.6499,0.0,0.0,0.0,0.0,0.0,0.0,0.0,0.0,-1.7483,-1.8971,-1.9515,-2.0159,-2.1707,-2.207,-2.2383,-2.3208,-2.3472,-2.3814,-2.4443,-2.4922,-2.4755,-2.3472,-2.4517,-2.5469,-2.5781,-2.5992,-2.5831,-2.5111,-2.4815,-2.3681,-2.1441,-2.2417,-2.2763,-2.2103,-2.441,-2.5936,-2.6545,-2.7726,-2.8291,-2.8291,-2.8291,-2.8115,-2.7836,-2.7836,-2.7598,-2.7256,-2.7178,-2.7139,-2.7139,-2.7051,-2.6816,-2.6514,-2.6514,-2.6025,-2.5321,-2.4834,-2.4619,-2.4541,-2.4541,-2.4492,-2.4365,-2.4023,-2.3906,-2.3848,-2.3452,-2.3344,-2.3325,-2.3247,-2.3218,-2.3198,-2.312,-2.2847,-2.2637,-2.2637,-2.2373,-2.2129,-2.2129,-2.2129,-2.2401,-2.3258,-2.3541,-2.419,-2.6085,-2.5797,-2.5314,-2.5445,-2.5963,-2.6357,-2.6477,-2.6499,-2.6499,-2.6499,-2.6499,-2.6499,-2.6499,-2.6499,-2.6499,-2.6499,-2.6499,-2.6499,-2.6499,-2.6499,-2.6499,-2.6499,-2.6499,-2.6499,-2.6499,-2.6499,-2.6499,-2.6499,-2.6499,-2.6499,-1.4088,-1.4088,-1.4088,-1.4088,-1.4208,-1.4292,0.0,0.0,-1.6603,-1.7912,-1.9146,-2.0479,-2.2142,-2.2701,-2.311,-2.3643,-2.4355,-2.494,-2.5028,-2.5381,-2.5732,-2.5975,-2.6161,-2.626,-2.6309,-2.5637,-2.5224,-2.5351,-2.4255,-2.3532,-2.3468,-2.3587,-2.4276,-2.5473,-2.5864,-2.667,-2.8067,-2.8237,-2.8291,-2.8291,-2.8291,-2.8271,-2.8223,-2.8223,-2.8193,-2.8125,-2.7754,-2.7598,-2.7568,-2.7178,-2.6982,-2.6943,-2.6943,-2.665,-2.6191,-2.5752,-2.5342,-2.5047,-2.5047,-2.4746,-2.4414,-2.4365,-2.4346,-2.4336,-2.4287,-2.4268,-2.4199,-2.3818,-2.3721,-2.3633,-2.3198,-2.3062,-2.3023,-2.3023,-2.2984,-2.2955,-2.2955,-2.2955,-2.2998,-2.3118,-2.3601,-2.434,-2.5512,-2.6078,-2.6496,-2.6984,-2.6287,-2.5889,-2.6446,-2.6499,-2.6499,-2.6499,-2.6499,-2.6499,-2.6499,-2.6499,-2.6499,-2.6499,-2.6499,-2.6499,-2.6499,-2.6499,-2.6499,-2.6499,-2.6499,-2.6499,-2.6499,-2.6499,-2.6499,-2.6499,-2.6499,-2.6499,-1.4088,-1.4088,0.0,0.0,-1.4215,-1.4342,-1.4342,-1.4904,-1.5848,-1.7239,-1.7994,-1.915,-2.1721,-2.2356,-2.2909,0.0,-2.4881,-2.5156,-2.542,-2.584,-2.6182,-2.6367,-2.6826,-2.718,-2.718,-2.6801,-2.6683,-2.7037,-2.6584,-2.5937,-2.5206,-2.5936,-2.6327,-2.61,-2.6943,-2.7672,-2.8291,-2.8291,-2.8291,-2.8291,-2.8291,-2.8291,-2.8291,-2.8291,-2.8291,-2.8281,-2.8105,-2.8027,-2.8018,-2.7832,-2.7617,-2.7393,-2.7393,-2.7129,-2.6699,-2.6269,-2.584,-2.5459,-2.5459,-2.5342,-2.5146,-2.4883,-2.4795,-2.4746,-2.4492,-2.4414,-2.4385,-2.4209,-2.415,-2.4053,-2.3633,-2.3516,-2.3457,-2.3149,-2.3091,-2.3091,-2.3091,-2.3091,-2.3474,-2.4808,-2.528,-2.6006,-2.7759,-2.7175,-2.6898,-2.8052,-2.7544,-2.7138,-2.7408,-2.7165,-2.6851,-2.6524,-2.6499,-2.6499,-2.6499,-2.6499,-2.6499,-2.6499,-2.6499,-2.6499,-2.6499,-2.6499,-2.6499,-2.6499,-2.6499,-2.6499,-2.6499,-2.6499,-2.6499,-2.6499,-2.6499,-2.6499,-1.4108,0.0,0.0,-1.4229,-1.4429,-1.4643,-1.4643,-1.487,-1.5493,-1.689,-1.7545,-1.8694,-2.1477,-2.2346,-2.3214,-2.4847,-2.5176,-2.5361,-2.5645,-2.6113,-2.6435,-2.6543,-2.7217,-2.7767,-2.7822,-2.7894,-2.7969,-2.8271,-2.8291,-2.7843,-2.6771,-2.7726,-2.7789,-2.6717,-2.7726,-2.8291,-2.8291,-2.8408,-2.8408,-2.8291,-2.8408,-2.8408,-2.8291,-2.8291,-2.8291,-2.8291,-2.8291,-2.8291,-2.8291,-2.8291,-2.8115,-2.7894,-2.7894,-2.7578,-2.7158,-2.6855,-2.6387,-2.5869,-2.5869,-2.5791,-2.5635,-2.5361,-2.5254,-2.5195,-2.4873,-2.4775,-2.4756,-2.4629,-2.459,-2.4502,-2.4072,-2.3965,-2.3887,-2.352,-2.3354,-2.3276,-2.3276,-2.3179,-2.3594,-2.5221,-2.5557,-2.6182,-2.8079,-2.7087,-2.6542,-2.8011,-2.7905,-2.7665,-2.7644,-2.731,-2.6889,-2.6297,-2.6539,-2.6663,-2.6512,-2.6499,-2.6499,-2.6499,-2.6499,-2.6499,-2.6499,-2.6499,-2.6499,-2.6499,-2.6499,-2.6499,-2.6499,-2.6499,-2.6499,-2.6499,-2.6499,-2.6499,0.0,0.0,-1.4914,-1.4583,-1.473,-1.4995,-1.4995,-1.5177,-1.5739,-1.6935,-1.8366,-1.9962,-2.1668,-2.3277,-2.4495,-2.5047,-2.543,-2.5674,-2.5693,-2.6113,-2.6543,-2.6943,-2.7393,-2.7822,0.0,-2.8271,-2.8281,-2.8291,-2.8291,-2.8291,-2.8237,-2.8291,-2.8291,-2.8237,-2.8291,-2.8291,-2.8291,-2.8701,-2.8701,-2.8301,-2.8701,-2.8682,-2.8291,-2.8291,-2.8291,-2.8291,-2.8291,-2.8291,-2.8291,-2.8291,-2.8281,-2.8271,-2.8271,-2.8018,-2.7699,-2.7689,-2.7141,-2.6367,-2.6367,-2.6094,-2.5693,-2.5674,-2.5664,-2.5664,-2.5654,-2.5645,-2.5557,-2.5176,-2.5096,-2.4951,-2.4512,-2.4394,-2.4394,-2.4385,-2.4062,-2.3769,-2.3769,-2.3437,-2.3135,-2.3178,-2.3222,-2.3594,-2.4745,-2.4914,-2.5241,-2.6408,-2.6562,-2.6536,-2.6552,-2.6524,-2.6273,-2.5691,-2.6612,-2.7077,-2.6537,-2.6499,-2.6499,-2.6499,-2.6499,-2.6499,-2.6499,-2.6499,-2.6499,-2.6499,-2.6499,-2.6499,-2.6499,-2.6499,-2.6499,-2.6499,-2.6499,-2.6499,0.0,0.0,-1.4988,-1.4836,-1.5037,-1.5251,-1.5251,-1.5478,-1.5772,-1.618,-1.7579,-1.9217,-2.0899,-2.2524,-2.4002,-2.5285,-2.5586,-2.5693,-2.5693,-2.6357,-2.6855,-2.6992,-2.7646,0.0,0.0,0.0,0.0,-2.8291,-2.8291,-2.8291,-2.8291,-2.8291,-2.8418,-2.8701,-2.8711,-2.8848,-2.9131,-2.9287,-2.9287,-2.9141,-2.9287,-2.9277,-2.9131,-2.8838,-2.8711,-2.8691,-2.8418,-2.8291,-2.8291,-2.8291,-2.8291,-2.8291,-2.8291,-2.8203,-2.8086,-2.8086,-2.7725,-2.7197,-2.6904,-2.6523,-2.6172,-2.6172,-2.5977,-2.5693,-2.5693,-2.5693,-2.5654,-2.5557,-2.5518,-2.541,-2.4961,-2.4844,-2.4775,-2.4482,-2.4307,-2.4209,-2.4209,-2.3867,-2.3787,-2.4506,-2.4426,-2.4585,-2.5714,-2.5933,-2.6295,-2.74,-2.6964,-2.6359,-2.5961,-2.6547,-2.6833,-2.6247,-2.7176,-2.7607,-2.709,-2.704,-2.6889,-2.6512,-2.6499,-2.6499,-2.6499,-2.6499,-2.6499,-2.6499,-2.6499,-2.6499,-2.6499,-2.6499,-2.6499,-2.6499,-2.6499,-2.6499,0.0,-1.5037,-1.5251,-1.5189,-1.5337,-1.5551,-1.5551,-1.5698,-1.592,-1.6386,-1.7796,-1.9439,-2.1125,-2.2769,-2.4267,-2.5509,-2.5693,-2.5693,-2.5693,-2.6475,-2.7012,-2.7012,-2.7773,-2.8291,0.0,0.0,0.0,-2.8291,-2.8291,-2.8291,-2.8291,-2.8437,-2.8643,-2.8916,-2.9072,-2.9287,-2.9626,-2.9717,-2.9795,-2.9795,-2.9648,-2.9626,-2.9616,-2.9277,-2.915,-2.9131,-2.8701,-2.8516,-2.8506,-2.8359,-2.8291,-2.8291,-2.8291,-2.8291,-2.8291,-2.8291,-2.8125,-2.7832,-2.7393,-2.6973,-2.6592,-2.6435,-2.6201,-2.5937,-2.5732,-2.5693,-2.5693,-2.5693,-2.5693,-2.5625,-2.5381,-2.5303,-2.5234,-2.4951,-2.4766,-2.4648,-2.4648,-2.4316,-2.4181,-2.4716,-2.4617,-2.4621,-2.5168,-2.5641,-2.613,-2.6819,-2.6666,-2.6524,-2.6497,-2.7139,-2.7394,-2.6857,-2.7741,-2.8185,-2.762,-2.7394,-2.7165,-2.6813,-2.66,-2.6499,-2.6499,-2.6499,-2.6499,-2.6499,-2.6499,-2.6499,-2.6499,-2.6499,-2.6499,-2.6499,-2.6499,-2.6499,-1.4736,-1.5152,-1.5718,-1.5484,-1.5625,-1.5784,-1.5784,-1.5825,-1.6244,-1.7451,-1.9042,-2.0696,0.0,0.0,-2.5185,-2.5586,-2.5654,-2.5664,-2.5684,-2.6405,-2.6992,0.0,0.0,0.0,0.0,0.0,0.0,-2.8291,0.0,-2.8301,-2.832,-2.8701,-2.8935,-2.8984,-2.9385,-2.9619,-2.9695,-3.0029,-3.0234,-3.0225,-2.9824,-2.9695,-2.9695,-2.9619,-2.96,-2.958,-2.9141,-2.8935,-2.8887,-2.8486,-2.831,-2.8291,-2.8291,-2.8291,-2.8291,-2.8291,-2.8291,-2.8232,-2.7832,-2.7412,-2.6982,-2.6582,-2.6426,-2.6309,-2.5849,-2.5703,-2.5693,-2.5693,-2.5693,-2.5693,-2.5693,-2.5693,-2.5693,-2.5693,-2.541,-2.5145,-2.5145,-2.4756,-2.4336,-2.3935,-2.3863,-2.3742,-2.3334,-2.4211,-2.4957,-2.4957,-2.5922,-2.7005,-2.7884,-2.8056,-2.7905,-2.7406,-2.8281,-2.8712,-2.8197,-2.767,-2.7356,-2.7318,-2.6839,-2.6537,-2.6537,-2.6512,-2.6499,-2.6499,-2.6499,-2.6499,-2.6499,-2.6499,-2.6499,-2.6499,-2.6499,-2.6499,-1.5478,-1.5611,-1.5764,-1.5738,-1.5724,-1.5784,-1.5784,-1.6527,-1.7318,-1.7645,-1.9756,-2.1628,0.0,0.0,0.0,-2.5166,-2.5244,0.0,-2.5645,-2.6211,0.0,0.0,0.0,-2.7949,-2.8262,-2.8291,0.0,0.0,-2.8291,-2.8428,-2.874,-2.8857,-2.9209,-2.9853,-2.998,-3.0205,-3.0557,-3.0664,-3.0713,-3.0713,-3.0605,-3.0557,-3.0547,-3.0195,-3.0039,-3.001,-2.959,-2.9219,-2.8916,-2.8809,-2.8574,-2.8291,-2.8291,-2.8291,-2.8291,-2.8291,-2.8291,-2.8281,-2.8164,-2.7851,-2.748,-2.7373,-2.6914,-2.6367,-2.626,-2.5996,-2.5693,-2.5693,-2.5693,-2.5693,-2.5693,-2.5693,-2.5693,-2.5693,-2.5596,-2.5566,-2.5566,-2.5215,-2.4863,-2.4812,-2.4882,-2.5147,-2.5559,-2.6532,-2.7267,-2.7267,-2.8239,-2.8462,-2.7087,-2.7602,-2.8036,-2.7905,-2.8897,-2.934,-2.8762,-2.8549,-2.8335,-2.7921,-2.7381,-2.7115,-2.7115,-2.6713,-2.6499,-2.6499,-2.6499,-2.6499,-2.6499,-2.6499,-2.6499,-2.6499,-2.6499,-2.6499,-1.5438,-1.5631,-1.5784,-1.5784,-1.5784,-1.5967,-1.6527,-1.6763,-1.7311,-1.8948,-2.0293,0.0,0.0,0.0,0.0,0.0,0.0,0.0,-2.541,-2.5986,-2.6543,0.0,-2.7402,0.0,-2.8252,-2.8291,-2.8291,0.0,-2.8467,-2.8672,-2.8906,-2.9277,-2.9697,-3.0176,-3.0391,-3.0625,-3.0889,-3.0889,-3.0889,-3.0889,-3.0889,-3.0889,-3.0879,-3.0625,-3.0508,-3.0478,0.0,-2.9707,-2.9453,-2.9072,-2.8779,-2.8555,-2.8369,-2.8291,-2.8291,-2.8291,-2.8291,-2.8291,-2.8291,-2.8135,-2.791,-2.7777,-2.7395,-2.6875,-2.6504,-2.6221,-2.5986,-2.5742,-2.5693,-2.5693,-2.5693,-2.5693,-2.5693,-2.5693,-2.5693,-2.5693,-2.5693,-2.5537,-2.5303,-2.5155,-2.4906,-2.4825,-2.524,-2.6482,-2.7412,-2.7412,-2.8779,-2.9339,-2.8091,-2.845,-2.8858,-2.8858,-2.9417,-2.9666,-2.934,-2.9038,-2.8762,-2.8486,-2.7946,-2.7645,-2.7645,-2.7153,-2.6851,-2.6851,-2.6612,-2.6499,-2.6499,-2.6499,-2.6499,-2.6499,-2.6499,-2.6499,-1.5122,-1.5418,-1.5784,-1.5784,-1.5784,-1.6109,-1.7412,-1.6908,-1.7137,-2.0533,0.0,-2.1016,-2.3159,0.0,-2.418,-2.4238,0.0,-2.5047,-2.5106,-2.5781,-2.6465,-2.6885,-2.7314,-2.7744,-2.8164,-2.8262,-2.8291,-2.8291,-2.873,-2.9004,-2.9004,-2.9766,-3.0225,-3.0293,-3.0684,-3.0889,-3.0889,-3.0889,-3.0889,-3.0889,-3.0889,-3.0889,-3.0889,-3.0889,-3.0889,-3.0869,-3.0459,-3.0254,-3.0137,-2.9336,-2.8975,-2.8877,-2.8457,-2.8291,-2.8291,-2.8291,-2.8291,-2.8291,-2.8291,-2.8291,-2.8232,-2.7861,-2.7767,-2.7581,-2.6787,-2.6484,-2.6309,-2.5937,-2.5732,-2.5693,-2.5693,-2.5693,-2.5693,-2.5693,-2.5693,-2.5693,-2.5693,-2.5693,-2.5605,-2.5156,-2.473,-2.4391,-2.4237,-2.5808,-2.6962,-2.673,-2.8462,-2.9753,-2.9573,-2.9702,-2.9753,-2.9585,-2.9702,-2.9753,-2.9585,-2.9251,-2.9001,-2.9001,-2.8524,-2.821,-2.821,-2.7682,-2.7394,-2.7394,-2.6889,-2.66,-2.66,-2.6524,-2.6499,-2.6499,-2.6499,-2.6499,-1.5271,-1.5571,-1.5784,-1.5784,-1.5784,-1.6109,-1.7412,-1.8002,0.0,0.0,0.0,-2.1734,-2.2175,-2.2559,0.0,-2.3257,0.0,0.0,0.0,0.0,-2.6006,0.0,0.0,0.0,0.0,0.0,0.0,0.0,0.0,-2.9453,-2.9453,-2.9932,-3.0371,-3.0762,-3.085,-3.0889,-3.0889,-3.0889,-3.0889,-3.0889,-3.0889,-3.0889,-3.0889,-3.0889,-3.0889,-3.0889,-3.0801,0.0,-3.0156,-2.9668,-2.9248,-2.8877,-2.8457,-2.8291,-2.8291,-2.8291,-2.8291,-2.8291,-2.8291,-2.8291,-2.8281,-2.8203,-2.7949,-2.7689,-2.7542,-2.6953,-2.6367,-2.6299,-2.6016,-2.5693,-2.5693,-2.5693,-2.5693,-2.5693,-2.5693,-2.5693,-2.5693,-2.5693,-2.5605,-2.5156,-2.652,-2.7502,-2.6649,-2.841,-2.9422,-2.8035,-2.8949,-2.9456,-2.8518,-2.9236,-2.9443,-2.8518,-2.9236,-2.9417,-2.8466,-2.9149,-2.9641,-2.9641,-2.9101,-2.875,-2.875,-2.826,-2.7959,-2.7959,-2.7419,-2.7178,-2.7178,-2.6713,-2.6499,-2.6499,-2.6499,-2.6499,-1.4903,-1.5264,-1.5605,-1.5605,-1.5605,-1.6058,-1.7873,0.0,0.0,0.0,0.0,-2.1131,-2.1792,0.0,0.0,0.0,0.0,0.0,0.0,0.0,0.0,0.0,0.0,0.0,0.0,0.0,0.0,0.0,0.0,-2.9336,-2.9616,-3.0195,-3.0664,-3.0889,-3.0889,-3.0889,-3.0889,-3.0889,-3.0889,-3.0889,-3.0889,-3.0889,-3.0889,-3.0889,-3.0889,-3.0889,-3.0889,0.0,-3.0518,-3.0078,-2.9648,-2.9219,-2.8789,-2.8486,-2.8291,-2.8291,-2.8291,-2.8291,-2.8291,-2.8291,-2.8291,-2.8291,-2.8154,-2.7949,-2.7787,-2.7434,-2.6963,-2.6514,-2.624,-2.6025,-2.5742,-2.5693,-2.5693,-2.5693,-2.5693,-2.5693,-2.5693,-2.5693,-2.5625,-2.5459,-2.6131,-2.682,-2.6959,-2.7975,-2.8727,-2.8536,-2.9251,-2.9585,-2.9067,-2.9456,-2.9585,-2.9028,-2.9495,-2.9573,-2.9028,-2.9495,-2.9792,-2.9792,-2.9528,-2.9377,-2.9377,-2.8837,-2.8536,-2.8536,-2.7996,-2.757,-2.7281,-2.7052,-2.6776,-2.6499,-2.6499,-2.6499,-1.4522,-1.4903,-1.5304,-1.5304,-1.5304,-1.5923,-1.8173,-1.7771,0.0,0.0,-2.0882,-2.0426,-2.1428,0.0,0.0,0.0,0.0,0.0,0.0,0.0,0.0,0.0,0.0,0.0,0.0,0.0,0.0,0.0,0.0,0.0,-2.9678,-3.0459,-3.0889,-3.0889,-3.0889,-3.0889,-3.0889,-3.0889,-3.0889,-3.0889,-3.0889,-3.0889,-3.0889,-3.0889,-3.0889,-3.0889,-3.0889,0.0,-3.085,-3.0293,-2.9863,-2.9512,-2.8984,-2.8584,-2.8291,-2.8291,-2.8291,-2.8291,-2.8291,-2.8291,-2.8291,-2.8291,-2.8291,-2.8232,-2.79,-2.7796,-2.7562,-2.6738,-2.6455,-2.6289,-2.5801,-2.5693,-2.5693,-2.5693,-2.5693,-2.5693,-2.5693,-2.5693,-2.5693,-2.5693,-2.5861,-2.6268,-2.7126,-2.7678,-2.8282,-2.915,-2.9581,-2.9792,-2.9792,-2.9792,-2.9792,-2.9792,-2.9792,-2.9702,-2.9456,-2.9663,-2.9792,-2.9792,-2.9792,-2.9792,-2.9792,-2.9352,-2.9076,-2.9076,-2.8561,-2.8059,-2.7632,-2.7519,-2.7231,-2.6851,-2.6725,-2.6663,-1.4522,-1.4756,-1.5048,-1.5048,-1.5048,-1.561,-1.7901,0.0,0.0,0.0,-2.0887,-2.0596,-2.0684,-2.1025,0.0,0.0,0.0,0.0,0.0,0.0,0.0,0.0,0.0,0.0,0.0,0.0,0.0,0.0,0.0,0.0,-3.0117,-3.0615,-3.0889,-3.0889,-3.0889,-3.0889,-3.0889,-3.0889,-3.0889,-3.0889,-3.0889,-3.0889,-3.0889,-3.0889,-3.0889,-3.0889,-3.0889,0.0,0.0,-2.998,-2.96,-2.9548,-2.8672,-2.833,-2.8291,-2.8291,-2.8291,-2.8291,-2.8291,-2.8291,-2.8291,-2.8291,-2.8291,-2.8281,-2.8252,-2.7969,-2.7568,-2.709,-2.668,-2.6289,-2.5801,-2.5693,-2.5693,-2.5693,-2.5693,-2.5693,-2.5693,-2.5693,-2.5693,-2.5693,-2.7489,-2.8875,-2.8533,-2.9877,-3.0891,-3.0511,-3.0065,-2.9792,-2.9792,-2.9792,-2.9792,-2.9792,-2.9792,-2.9365,-2.8347,-2.9197,-2.9792,-2.9792,-2.9792,-2.9792,-2.9792,-2.9741,-2.9716,-2.9716,-2.9151,-2.8787,-2.8737,-2.8273,-2.8009,-2.7946,-2.7444,-2.7241,-1.4262,-1.4476,-1.4696,-1.4696,-1.4696,-1.5297,-1.7549,0.0,0.0,-2.0377,-2.0723,-2.0605,-2.0605,-2.0752,-2.0977,0.0,0.0,0.0,0.0,0.0,0.0,0.0,0.0,0.0,0.0,0.0,0.0,0.0,0.0,0.0,-3.2315,-3.1432,-3.1334,-3.2207,-3.2207,-3.2207,-3.2207,-3.2207,-3.1767,-3.0889,-3.0889,-3.0889,-3.0889,-3.0889,-3.0889,-3.0889,-3.0889,0.0,0.0,-3.0205,-2.9795,-2.9567,-2.8906,-2.8516,-2.8291,-2.8291,-2.8291,-2.8291,-2.8291,-2.8291,-2.8291,-2.8291,-2.8291,-2.8291,-2.8291,-2.8174,-2.79,-2.7207,-2.6894,-2.6611,-2.5869,-2.5693,-2.5693,-2.5693,-2.5693,-2.5693,-2.5693,-2.5693,-2.5693,-2.5693,-2.6524,-2.7563,-2.8876,-2.9148,-2.9624,-3.0895,-3.0344,-2.9792,-2.9792,-2.9792,-2.9792,-2.9792,-2.9792,-2.9624,-2.9145,-2.9534,-2.9792,-2.9792,-2.9792,-2.9792,-2.9792,-2.9792,-2.9792,-2.9792,-2.9566,-2.9277,-2.8888,-2.8675,-2.8436,-2.8097,-2.7883,-2.777,-1.4088,-1.4235,-1.4396,-1.4396,-1.4396,-1.4977,0.0,0.0,-1.7948,-2.0157,-2.0605,-2.0605,-2.0605,-2.0605,-2.0752,-2.1122,0.0,-2.2187,0.0,0.0,0.0,0.0,0.0,0.0,0.0,0.0,0.0,0.0,0.0,0.0,-3.3522,-3.2359,-3.2318,-3.3733,-3.3744,-3.3744,-3.3744,-3.3293,-3.2804,-3.2217,-3.1767,-3.1546,-3.1546,-3.1546,-3.1334,-3.0889,-3.0742,0.0,0.0,-3.0059,-2.9639,-2.9336,-2.8906,-2.8555,-2.8291,-2.8291,-2.8291,-2.8291,-2.8291,-2.8291,-2.8291,-2.8291,-2.8291,-2.8291,-2.8291,-2.8291,-2.8115,-2.7256,-2.6836,-2.6444,-2.5849,-2.5693,-2.5693,-2.5693,-2.5693,-2.5693,-2.5693,-2.5693,-2.5693,-2.5693,-2.6284,-2.7342,-2.9085,-2.9066,-2.9388,-3.1128,-3.0482,-2.9792,-2.9792,-2.9792,-2.9792,-2.9792,-2.9792,-2.9792,-2.9792,-2.9792,-2.9792,-2.9792,-2.9792,-2.9792,-2.9792,-2.9792,-2.9792,-2.9792,-2.9792,-2.9591,-2.9189,-2.9189,-2.8988,-2.8599,-2.8436,-2.826,-1.4088,-1.4088,-1.4088,-1.4088,-1.4088,-1.4664,0.0,0.0,-1.7948,-2.0157,-2.0605,-2.0605,-2.0605,-2.0605,-2.0752,-2.1122,-2.1602,0.0,0.0,0.0,0.0,0.0,0.0,0.0,0.0,0.0,0.0,0.0,0.0,0.0,-3.2989,-3.3395,-3.4109,-3.5255,-3.53,-3.53,-3.53,-3.3856,-3.38,-3.5233,-3.38,-3.3077,-3.3077,-3.3077,-3.2254,-3.0869,0.0,0.0,0.0,-2.9287,-2.8926,-2.8887,-2.8467,-2.8301,-2.8291,-2.8291,-2.8291,-2.8291,-2.8291,-2.8291,-2.8291,-2.8291,-2.8291,-2.8291,-2.8291,-2.8291,-2.8115,-2.7256,-2.6356,-2.5703,-2.5693,-2.5693,-2.5693,-2.5693,-2.5693,-2.5693,-2.5693,-2.5693,-2.5693,-2.5693,-2.7662,-2.9361,-2.9407,-3.0484,-3.1386,-3.1386,-3.0482,-2.9792,-2.9792,-2.9792,-2.9792,-2.9792,-2.9792,-2.9792,-2.9792,-2.9792,-2.9792,-2.9792,-2.9792,-2.9792,-2.9792,-2.9792,-2.9792,-2.9792,-2.9792,-2.9792,-2.9779,-2.9779,-2.9779,-2.9767,-2.9189,-2.8624,-1.4088,-1.4088,-1.4088,-1.4088,-1.465,-1.5545,-1.6976,0.0,-1.8868,-2.0284,-2.0605,-2.0605,-2.0605,-2.0605,-2.0644,-2.0752,-2.1396,0.0,0.0,0.0,0.0,0.0,0.0,0.0,0.0,0.0,0.0,0.0,0.0,0.0,-3.583,-3.5999,-3.5946,-3.5655,-3.5614,-3.5614,-3.5614,-3.428,-3.3312,-3.2769,-3.1379,-3.074,-3.074,-3.074,-3.0469,0.0,0.0,0.0,-2.9726,-2.915,-2.8916,-2.8877,-2.8457,-2.8291,-2.8291,-2.8291,-2.89,-2.966,-2.966,-3.0266,-3.0865,-2.9964,-2.966,-2.9513,-2.8601,-2.8291,-2.8115,-2.7256,-2.6347,-2.5693,-2.5693,-2.5693,-2.5693,-2.5693,-2.5693,-2.5693,-2.5693,-2.5693,-2.5693,-2.5693,-2.703,-2.8402,-2.9269,-2.9823,-3.0443,-3.1263,-3.0482,-2.9792,-2.9792,-2.9792,-2.9792,-2.9792,-2.9792,-2.9792,-2.9792,-2.9792,-2.9792,-2.9792,-2.9792,-2.9792,-2.9792,-2.9792,-2.9792,-2.9792,-2.9792,-2.9792,-2.9792,-2.9792,-2.9792,-2.9792,-2.9603,-2.9428,0.0,-1.4088,-1.4208,-1.4615,-1.522,0.0,0.0,0.0,-1.9323,-2.0362,-2.0605,-2.0605,-2.0605,-2.0605,-2.0605,-2.0605,-2.1349,0.0,0.0,0.0,0.0,0.0,0.0,0.0,0.0,0.0,0.0,0.0,0.0,0.0,-3.6908,-3.692,-3.6624,-3.6036,-3.6436,-3.6654,-3.6654,-3.5228,-3.4125,-3.3259,-3.1844,-3.0905,-3.0419,-3.0419,-3.0107,0.0,0.0,-2.9326,0.0,-2.8857,-2.8682,-2.8706,-2.8957,-2.9049,-2.9102,-2.9608,-3.0317,-3.0968,-3.0473,-3.0876,-3.1327,-2.9964,-2.9565,-2.9377,-2.8351,-2.7939,-2.7666,-2.6973,-2.6279,-2.5693,-2.5693,-2.5693,-2.5693,-2.5693,-2.5693,-2.5693,-2.5693,-2.5693,-2.5693,-2.5693,-2.6716,-2.7814,-2.8588,-2.8844,-2.923,-2.9959,-2.9205,-2.8542,-2.8542,-2.8542,-2.8712,-2.9118,-2.9157,-2.9326,-2.9753,-2.9792,-2.9792,-2.9792,-2.9792,-2.9792,-2.9792,-2.9792,-2.9792,-2.9792,-2.9792,-2.9792,-2.9792,-2.9792,-2.9792,-2.9792,-2.9792,-2.9792,0.0,0.0,0.0,0.0,0.0,0.0,0.0,0.0,0.0,-2.0401,-2.0605,-2.0605,-2.0605,-2.0605,-2.0605,-2.0605,-2.1349,0.0,0.0,0.0,0.0,0.0,0.0,0.0,0.0,0.0,0.0,0.0,0.0,0.0,-3.6405,-3.6405,-3.6405,-3.6405,-3.7362,-3.7889,-3.7889,-3.6432,-3.5749,-3.589,-3.4388,-3.297,-3.1706,-3.1706,-3.0966,0.0,0.0,-2.9021,-2.91,-2.8759,-2.8601,-2.8698,-2.9964,-3.0369,-3.0463,-3.1673,-3.218,-3.1977,-3.0721,-3.0369,-3.0214,-2.891,-2.8378,-2.8164,-2.7744,-2.7334,-2.6934,-2.6504,-2.6074,-2.5693,-2.5693,-2.5693,-2.5693,-2.5693,-2.5693,-2.5693,-2.5693,-2.5693,-2.5693,-2.5693,-2.6716,-2.7589,-2.7589,-2.7793,-2.7885,-2.7885,-2.7099,-2.6524,-2.6524,-2.6524,-2.6883,-2.7896,-2.7976,-2.8438,-2.9573,-2.9753,-2.9792,-2.9792,-2.9792,-2.9792,-2.9792,-2.9792,-2.9792,-2.9792,-2.9792,-2.9792,-2.9792,-2.9792,-2.9792,-2.9792,-2.9792,-2.9792,-1.669,0.0,-1.5579,-1.6642,-1.6927,0.0,0.0,0.0,0.0,0.0,0.0,-2.0605,-2.0605,-2.0605,-2.0605,-2.0605,-2.1349,0.0,0.0,0.0,0.0,0.0,0.0,0.0,0.0,0.0,0.0,0.0,0.0,-3.6405,-3.6405,-3.6405,-3.6405,-3.6405,-3.6656,-3.6795,-3.6795,-3.5393,-3.4742,-3.4742,-3.3348,-3.1973,-3.0643,-3.0643,-3.0433,0.0,-3.0013,-3.0579,-3.1479,-3.1421,-3.1378,-3.1378,-3.1735,-3.1224,-3.0317,-3.0669,-3.0773,-3.0721,-3.0421,-3.0968,-3.1622,-3.0266,-2.8933,-2.7787,-2.7295,-2.71,-2.6934,-2.6504,-2.6074,-2.5693,-2.5693,-2.5693,-2.5693,-2.5693,-2.5693,-2.5693,-2.5693,-2.5693,-2.5693,-2.5693,-2.6716,-2.7589,-2.7589,-2.7793,-2.7885,-2.7885,-2.7099,-2.6524,-2.6524,-2.6524,-2.6607,-2.6842,-2.6883,-2.7331,-2.8398,-2.9314,-2.9792,-2.9792,-2.9792,-2.9792,-2.9792,-2.9792,-2.9792,-2.9792,-2.9792,-2.9792,-2.9792,-2.9792,-2.9792,-2.9792,-2.9792,-2.9792,-1.8829,-1.7649,-1.6683,-1.7779,-1.8069,-1.839,0.0,0.0,0.0,0.0,0.0,0.0,-2.0605,0.0,0.0,0.0,0.0,0.0,0.0,0.0,0.0,0.0,0.0,0.0,0.0,0.0,0.0,0.0,0.0,-3.6405,-3.6405,-3.6405,-3.6405,-3.6405,-3.6405,-3.6405,-3.6405,-3.5667,-3.503,-3.4385,-3.3613,-3.2543,-3.1224,-3.1224,-3.1224,0.0,-3.1224,-3.1633,-3.228,-3.228,-3.1927,-3.1429,-3.2079,-3.148,-3.0369,-3.0979,-3.1224,-3.1122,-3.0514,-3.0369,-3.0327,-2.9424,-2.8451,-2.7601,-2.6914,-2.6728,-2.6641,-2.6211,-2.5918,-2.5693,-2.5693,-2.5693,-2.5693,-2.5693,-2.5693,-2.5693,-2.5693,-2.5693,-2.5693,-2.5693,-2.6245,-2.6716,-2.6716,-2.649,-2.6307,-2.6307,-2.5526,-2.4935,-2.4935,-2.4935,-2.5136,-2.5672,-2.5714,-2.6171,-2.7279,-2.7919,-2.8502,-2.8988,-2.9028,-2.9028,-2.9028,-2.9534,-2.9792,-2.9792,-2.9792,-2.9792,-2.9792,-2.9792,-2.9792,-2.9792,-2.9792,-2.9792,-2.0605,-1.9225,-1.8029,-1.8997,-1.9116,-1.9283,-2.0362,0.0,0.0,0.0,0.0,0.0,0.0,0.0,0.0,0.0,0.0,0.0,0.0,0.0,0.0,0.0,0.0,0.0,0.0,0.0,0.0,0.0,0.0,-3.6191,-3.6279,-3.6279,-3.6317,-3.6405,-3.6216,-3.6216,-3.6405,-3.6405,-3.5823,-3.4727,-3.4727,-3.3859,-3.2292,-3.2532,-3.2482,-3.228,0.0,0.0,-3.2883,-3.2694,-3.1938,-3.103,-3.2191,-3.1684,-3.0421,-3.1582,-3.1876,-3.1531,-3.0369,-2.9209,-2.8135,-2.7836,-2.763,-2.7334,-2.6611,-2.6338,-2.6211,-2.5791,-2.5693,-2.5693,-2.5693,-2.5693,-2.5693,-2.5693,-2.5693,-2.5693,-2.5693,-2.5693,-2.5693,-2.5693,-2.5693,-2.5693,-2.5693,-2.5,-2.4414,-2.4414,-2.3637,-2.3178,-2.3343,-2.3222,-2.3551,-2.467,-2.4617,-2.4999,-2.6141,-2.6224,-2.6707,-2.7804,-2.8016,-2.8176,-2.8347,-2.9275,-2.9792,-2.9792,-2.9792,-2.9792,-2.9792,-2.9792,-2.9792,-2.9792,-2.9792,-2.9792,-2.0605,-2.0362,-2.0118,-2.0323,-1.9678,-1.9283,-2.0362,0.0,0.0,0.0,0.0,0.0,0.0,0.0,0.0,0.0,0.0,0.0,0.0,0.0,0.0,0.0,0.0,0.0,0.0,0.0,0.0,0.0,0.0,-3.5177,-3.5596,-3.5621,-3.5881,-3.6392,-3.5319,-3.5271,-3.6405,-3.6405,-3.631,-3.6108,-3.6108,-3.4751,-3.2331,-3.3514,-3.3415,-3.228,0.0,-3.3639,-3.5702,-3.4569,-3.3981,-3.3773,-3.3981,-3.2555,-3.0317,-3.0514,-2.9911,-2.89,-2.8698,-2.8259,-2.7806,-2.7738,-2.7178,-2.6562,-2.6426,-2.6133,-2.5771,-2.5703,-2.5693,-2.5693,-2.5693,-2.5693,-2.5693,-2.5693,-2.5693,-2.5693,-2.5693,-2.5693,-2.5693,-2.5693,-2.5693,-2.5693,-2.5693,-2.5,-2.4414,-2.4414,-2.3637,-2.3464,-2.4414,-2.3714,-2.3551,-2.467,-2.392,-2.3844,-2.4957,-2.5041,-2.5546,-2.6678,-2.7614,-2.8518,-2.9495,-2.9702,-2.9792,-2.9792,-2.9792,-2.9792,-2.9792,-2.9792,-2.9792,-2.9792,-2.9792,-2.9792,-2.0605,-2.0605,-2.0605,-2.0605,-2.0245,-2.0001,-2.0489,0.0,0.0,0.0,0.0,0.0,0.0,0.0,0.0,0.0,0.0,0.0,0.0,0.0,0.0,0.0,0.0,0.0,0.0,0.0,0.0,0.0,0.0,0.0,-3.5044,-3.5056,-3.5169,-3.5466,-3.4898,-3.4851,-3.5479,-3.5479,-3.5768,-3.6405,-3.5667,-3.4666,-3.3415,-3.3304,-3.2894,-3.228,0.0,-3.3032,-3.4142,-3.3502,-3.2855,-3.2191,-3.2191,-3.0979,-2.9177,-2.8997,-2.8508,-2.792,-2.7685,-2.748,-2.7275,-2.7051,-2.6709,-2.6348,-2.6113,-2.5849,-2.5693,-2.5693,-2.5693,-2.5693,-2.5693,-2.5693,-2.5693,-2.5693,-2.5693,-2.5693,-2.5693,-2.5693,-2.5693,-2.5693,-2.5693,-2.5615,-2.542,-2.4844,-2.4336,-2.4111,-2.35,-2.3309,-2.38,-2.342,-2.3299,-2.3844,-2.343,-2.3299,-2.3844,-2.4457,-2.5535,-2.725,-2.7279,-2.7999,-2.9714,-2.9197,-2.9157,-2.9792,-2.9792,-2.9792,-2.9792,-2.9792,-2.9792,-2.9792,-2.9792,-2.9792,-2.0605,-2.0605,-2.0605,-2.0605,-2.0605,-2.0605,-2.0605,0.0,0.0,0.0,0.0,0.0,0.0,0.0,0.0,0.0,0.0,0.0,0.0,0.0,0.0,0.0,0.0,0.0,0.0,0.0,0.0,0.0,0.0,0.0,-3.4525,-3.4525,-3.4587,-3.468,-3.4384,-3.4384,-3.468,-3.4384,-3.4702,-3.5581,-3.4558,-3.3714,-3.3117,-3.2343,-3.1834,-3.1545,-3.1545,-3.1695,-3.1995,-3.1645,-3.09,-3.0043,-3.03,-2.9591,-2.8403,-2.8428,-2.8204,-2.7907,-2.7569,-2.738,-2.7201,-2.6584,-2.6318,-2.6172,-2.5791,-2.5693,-2.5693,-2.5693,-2.5693,-2.5693,-2.5693,-2.5693,-2.5693,-2.5693,-2.5693,-2.5693,-2.5693,-2.5693,-2.5693,-2.5693,-2.5693,-2.5596,-2.5194,-2.4707,-2.4277,-2.3857,-2.3418,-2.3222,-2.3464,-2.3256,-2.3222,-2.3464,-2.3266,-2.3222,-2.3464,-2.4296,-2.5661,-2.7602,-2.7452,-2.8051,-2.9714,-2.8976,-2.8897,-2.9792,-2.9792,-2.9792,-2.9792,-2.9792,-2.9792,-2.9792,-2.9792,-2.9792,-2.0605,-2.0605,-2.0605,-2.0605,-2.0605,0.0,-2.0605,-2.0605,0.0,0.0,0.0,0.0,0.0,0.0,0.0,0.0,0.0,0.0,0.0,0.0,0.0,0.0,0.0,0.0,0.0,0.0,0.0,0.0,0.0,0.0,-3.3935,-3.396,-3.4198,-3.4655,-3.3511,-3.3419,-3.468,-3.3465,-3.2933,-3.3157,-3.3063,-3.1766,-2.9434,-3.0588,-3.0394,-2.9236,-2.9236,-2.9965,-3.0975,-2.9768,-2.9197,-2.9186,-3.0405,-3.0014,-2.8877,-3.0057,-2.9764,-2.8736,-2.8705,-2.8424,-2.7924,-2.6775,-2.6113,-2.5732,-2.5703,-2.5693,-2.5693,-2.5693,-2.5693,-2.5693,-2.5693,-2.5693,-2.5693,-2.5693,-2.5693,-2.5693,-2.5693,-2.5693,-2.5693,-2.5693,-2.5693,-2.5596,-2.5194,-2.4707,-2.4277,-2.3857,-2.3418,-2.3464,-2.4542,-2.3757,-2.3507,-2.4542,-2.3714,-2.3507,-2.4585,-2.4745,-2.5336,-2.6554,-2.8462,-2.9624,-2.9792,-2.9702,-2.9702,-2.9792,-2.9792,-2.9792,-2.9792,-2.9792,-2.9792,-2.9792,-2.9792,-2.9792,-2.0605,-2.0605,-2.0605,-2.0605,-2.0605,0.0,0.0,0.0,0.0,0.0,0.0,0.0,0.0,0.0,0.0,0.0,0.0,0.0,0.0,0.0,0.0,0.0,0.0,0.0,0.0,0.0,0.0,0.0,0.0,0.0,-3.22,-3.2965,-3.3483,-3.3696,-3.3231,-3.3187,-3.3696,-3.3187,-3.2202,-3.0721,-3.2112,-3.2265,-3.1306,-3.0959,-3.0537,-3.0052,-3.0052,-3.0332,-3.0767,-3.0246,-3.0052,-3.0052,-2.971,-2.9278,-2.8752,-2.8196,-2.8191,-2.8286,-2.7246,-2.6761,-2.6582,-2.6124,-2.582,-2.5693,-2.5693,-2.5693,-2.5693,-2.5693,-2.5693,-2.5693,-2.5693,-2.5693,-2.5693,-2.5693,-2.5693,-2.5693,-2.5693,-2.5693,-2.5693,-2.5693,-2.5693,-2.546,-2.4785,-2.4521,-2.418,-2.3486,-2.3198,-2.3266,-2.3681,-2.3387,-2.3256,-2.3714,-2.3343,-2.3551,-2.4702,-2.4787,-2.5294,-2.6442,-2.7302,-2.8039,-2.8727,-2.8727,-2.9067,-2.9792,-2.9792,-2.9792,-2.9792,-2.9792,-2.9792,-2.9792,-2.9792,-2.9792,-2.0605,-2.0605,-2.0605,0.0,0.0,0.0,0.0,0.0,0.0,0.0,0.0,0.0,0.0,0.0,0.0,0.0,0.0,0.0,0.0,0.0,0.0,0.0,0.0,0.0,0.0,0.0,0.0,0.0,0.0,0.0,0.0,-3.1821,-3.2513,-3.2513,-3.2884,-3.3124,-3.3124,-3.3124,-3.2251,-3.0598,-3.2096,-3.2213,-3.1075,-3.0546,-3.0309,-3.0309,-3.0309,-3.0309,-3.0309,-3.0309,-3.0499,-3.077,-2.9917,-2.9535,-2.9454,-2.8769,-2.8556,-2.8418,-2.7276,-2.661,-2.6245,-2.583,-2.5693,-2.5693,-2.5693,-2.5693,-2.5693,-2.5693,-2.5693,-2.5693,-2.5693,-2.5693,-2.5693,-2.5693,-2.5693,-2.5693,-2.5693,-2.5693,-2.5693,-2.5693,-2.5693,-2.545,-2.4746,-2.4502,-2.417,-2.3447,-2.3179,-2.3091,-2.3091,-2.3091,-2.3091,-2.3091,-2.3091,-2.343,-2.4211,-2.4253,-2.4585,-2.54,-2.5766,-2.6461,-2.7562,-2.7924,-2.8466,-2.9236,-2.9624,-2.9792,-2.9792,-2.9792,-2.9792,-2.9792,-2.9792,-2.9792,-2.0605,-2.0605,0.0,0.0,0.0,0.0,0.0,0.0,0.0,0.0,0.0,0.0,0.0,0.0,0.0,0.0,0.0,0.0,0.0,0.0,0.0,0.0,0.0,0.0,0.0,0.0,0.0,0.0,0.0,0.0,0.0,-3.053,-3.1155,-3.1155,-3.2401,-3.3056,-3.3068,-3.3068,-3.3068,-3.3068,-3.3081,-3.1202,-2.7673,-2.8866,-2.9407,-2.9453,-2.9407,-2.9407,-2.9453,-2.9453,-3.0135,-3.1223,-3.1178,-3.1166,-3.1311,-3.2568,-3.1468,-2.9361,-2.9361,-2.8588,-2.74,-2.611,-2.5732,-2.5732,-2.5742,-2.5742,-2.5742,-2.5693,-2.5693,-2.5693,-2.5693,-2.5693,-2.5693,-2.5693,-2.5693,-2.5693,-2.5693,-2.5693,-2.5693,-2.5693,-2.5693,-2.5596,-2.5194,-2.4707,-2.4277,-2.3857,-2.3418,-2.3101,-2.3091,-2.3091,-2.3091,-2.3091,-2.3091,-2.3091,-2.3091,-2.3091,-2.3091,-2.3091,-2.4168,-2.5294,-2.6431,-2.7522,-2.8084,-2.8084,-2.9197,-2.9753,-2.9753,-2.9792,-2.9792,-2.9792,-2.9792,-2.9792,-2.0605,0.0,0.0,0.0,0.0,0.0,0.0,0.0,0.0,0.0,0.0,0.0,0.0,0.0,0.0,0.0,0.0,0.0,0.0,0.0,0.0,0.0,0.0,0.0,0.0,0.0,0.0,0.0,0.0,0.0,0.0,-2.8761,-2.9036,-2.9036,-2.9396,-2.9744,-3.0073,-3.0917,-3.1053,-3.0508,-3.2251,-3.2525,-3.1468,-3.0911,-3.1134,-3.1977,-3.1045,-3.1178,-3.2021,-3.2021,-3.1689,-3.1134,-3.0271,-2.9943,-2.9772,-2.8402,-2.7992,-2.7992,-2.7125,-2.7173,-2.7542,-2.7173,-2.7626,-2.8121,-2.7305,-2.704,-2.6849,-2.5965,-2.5693,-2.5693,-2.5693,-2.5693,-2.5693,-2.5693,-2.5693,-2.5693,-2.5693,-2.5693,-2.5693,-2.5693,-2.5693,-2.5596,-2.5194,-2.4961,-2.4629,-2.3896,-2.3682,-2.3486,-2.314,-2.3091,-2.3091,-2.3091,-2.3091,-2.3091,-2.3091,-2.3091,-2.3091,-2.3091,-2.343,-2.4135,-2.5252,-2.6378,-2.6953,-2.6953,-2.7302,-2.7476,-2.7476,-2.8239,-2.8597,-2.8636,-2.9443,-2.9792,-2.0605,0.0,0.0,0.0,0.0,0.0,0.0,0.0,0.0,0.0,0.0,0.0,0.0,0.0,0.0,0.0,0.0,0.0,0.0,0.0,0.0,0.0,0.0,0.0,0.0,0.0,0.0,0.0,0.0,0.0,0.0,-2.7721,-2.8026,-2.8026,-2.8502,-2.8694,-2.852,-2.971,-2.9819,-2.8914,-3.0845,-3.1559,-3.1129,-3.1683,-3.2382,-3.3081,-3.2283,-3.2382,-3.3124,-3.3124,-3.2655,-3.1877,-3.1146,-3.0866,-3.0687,-2.9177,-2.8808,-2.8901,-2.8168,-2.8075,-2.8319,-2.8319,-2.8495,-2.8541,-2.7814,-2.7268,-2.6668,-2.5927,-2.5693,-2.5693,-2.5693,-2.5693,-2.5693,-2.5693,-2.5693,-2.5693,-2.5693,-2.5693,-2.5693,-2.5693,-2.5693,-2.5606,-2.5381,-2.5233,-2.494,-2.4375,-2.4014,-2.3691,-2.3428,-2.3198,-2.3091,-2.3091,-2.3091,-2.3091,-2.3091,-2.3091,-2.3091,-2.3091,-2.3091,-2.343,-2.4092,-2.521,-2.6058,-2.6483,-2.6924,-2.7371,-2.7799,-2.845,-2.8767,-2.8806,-2.9495,-2.9792,0.0,0.0,0.0,0.0,0.0,0.0,0.0,0.0,0.0,0.0,0.0,0.0,0.0,0.0,0.0,0.0,0.0,0.0,0.0,0.0,0.0,0.0,0.0,0.0,0.0,0.0,0.0,0.0,0.0,0.0,0.0,-2.6932,-2.7446,-2.7446,-2.8707,-2.8858,-2.7872,-2.9086,-2.9195,-2.8243,-2.9423,-2.9411,-2.8494,-3.1386,-3.2803,-3.2927,-3.3068,-3.3124,-3.3124,-3.3124,-3.3124,-3.3081,-3.2982,-3.2939,-3.2896,-3.2797,-3.2008,-3.1045,-3.1045,-3.0406,-2.9544,-2.9453,-2.8727,-2.7908,-2.7683,-2.6802,-2.583,-2.5732,-2.5693,-2.5693,-2.5693,-2.5693,-2.5693,-2.5693,-2.5693,-2.5693,-2.5693,-2.5693,-2.5693,-2.5693,-2.5693,-2.5693,-2.5693,-2.54,-2.5165,-2.5125,-2.4375,-2.3848,-2.3848,-2.3461,-2.3198,-2.3159,-2.3149,-2.314,-2.3101,-2.3091,-2.3091,-2.3091,-2.3091,-2.3091,-2.3091,-2.4082,-2.5168,-2.6307,-2.7319,-2.8359,-2.9507,-2.9585,-2.9663,-2.9663,-2.9753,-2.9792,0.0,0.0,0.0,0.0,0.0,0.0,0.0,0.0,0.0,0.0,0.0,0.0,0.0,0.0,0.0,0.0,0.0,0.0,0.0,0.0,0.0,0.0,0.0,0.0,0.0,0.0,0.0,0.0,0.0,0.0,-2.5005,-2.4464,-2.4126,-2.4126,-2.5263,-2.5905,-2.5987,-2.8065,-2.9166,-2.9272,-3.0484,-3.0923,-3.0675,-3.0028,-3.0402,-3.1677,-3.2655,-3.3124,-3.3124,-3.3124,-3.3124,-3.2982,-3.2008,-3.1589,-3.15,-3.0553,-3.0,-2.9772,-2.9772,-3.0226,-3.0676,-2.9727,-2.9863,-3.0079,-2.8179,-2.74,-2.6982,-2.5965,-2.5693,-2.5693,-2.5693,-2.5693,-2.5693,-2.5693,-2.5693,-2.5693,-2.5693,-2.5693,-2.5693,-2.5693,-2.5693,-2.5693,-2.5693,-2.5615,-2.5478,-2.5174,-2.4619,-2.4277,-2.4277,-2.4199,-2.4014,-2.3682,-2.3652,-2.3516,-2.312,-2.3091,-2.3091,-2.3091,-2.3091,-2.3091,-2.3091,-2.3343,-2.4006,-2.5126,-2.541,-2.6077,-2.7221,-2.8068,-2.8466,-2.8478,-2.9365,-2.9792,0.0,0.0,0.0,0.0,0.0,0.0,0.0,0.0,0.0,0.0,0.0,0.0,0.0,0.0,0.0,0.0,0.0,0.0,0.0,0.0,0.0,0.0,0.0,0.0,0.0,0.0,0.0,0.0,0.0,-2.3594,-2.4745,-2.4253,-2.392,-2.392,-2.45,-2.4624,-2.4317,-2.603,-2.7079,-2.7338,-2.8492,-2.947,-3.02,-3.0097,-3.0493,-3.1327,-3.2274,-3.2667,-3.2692,-3.2968,-3.3124,-3.3025,-3.2382,-3.2096,-3.2052,-3.1412,-3.1146,-3.1089,-3.0451,-3.0676,-3.0989,-2.9772,-2.9453,-2.9361,-2.868,-2.7626,-2.6668,-2.662,-2.6149,-2.5693,-2.5693,-2.5693,-2.5693,-2.5693,-2.5693,-2.5693,-2.5693,-2.5693,-2.5693,-2.5693,-2.5693,-2.5693,-2.5693,-2.5693,-2.5615,-2.543,-2.501,-2.4727,-2.4727,-2.4551,-2.4336,-2.4111,-2.4092,-2.3916,-2.3486,-2.3457,-2.3315,-2.311,-2.3091,-2.3091,-2.3091,-2.3091,-2.3637,-2.4787,-2.4787,-2.5619,-2.7279,-2.7844,-2.8386,-2.8937,-2.9534,-2.9792,0.0,0.0,0.0,0.0,0.0,0.0,0.0,0.0,0.0,0.0,0.0,0.0,0.0,0.0,0.0,0.0,0.0,0.0,0.0,0.0,0.0,0.0,0.0,0.0,0.0,0.0,0.0,0.0,0.0,-2.3507,-2.4457,-2.45,-2.45,-2.45,-2.4702,-2.4339,-2.3387,-2.45,-2.5083,-2.5126,-2.6254,-2.7457,-2.8831,-3.0387,-3.121,-3.1411,-3.1876,-3.2077,-3.2114,-3.2692,-3.293,-3.293,-3.3074,-3.3124,-3.3124,-3.3124,-3.3124,-3.2927,-3.1633,-3.1223,-3.0944,-2.9544,-2.8541,-2.8002,-2.8588,-2.7484,-2.6197,-2.704,-2.6524,-2.5693,-2.5693,-2.5693,-2.5693,-2.5693,-2.5693,-2.5693,-2.5693,-2.5693,-2.5693,-2.5693,-2.5693,-2.5693,-2.5693,-2.5693,-2.5693,-2.5693,-2.542,-2.5185,-2.5185,-2.4863,-2.4609,-2.4531,-2.4531,-2.4355,-2.3935,-2.3896,-2.3711,-2.3237,-2.3208,-2.3169,-2.3101,-2.3091,-2.3551,-2.45,-2.4702,-2.5786,-2.7804,-2.7804,-2.8319,-2.9248,-2.9417,-2.9495,0.0,0.0,0.0,0.0,0.0,0.0,0.0,0.0,0.0,0.0,0.0,0.0,0.0,0.0,0.0,0.0,0.0,0.0,0.0,0.0,0.0,0.0,0.0,0.0,0.0,0.0,0.0,0.0,-2.2886,-2.3178,-2.3299,-2.3343,-2.3343,-2.3343,-2.4296,-2.4745,-2.4585,-2.5714,-2.6265,-2.6307,-2.736,-2.8011,-2.8243,-2.946,-3.052,-3.1386,-3.1461,-3.1499,-3.1549,-3.2102,-3.2328,-3.2378,-3.288,-3.3124,-3.3124,-3.3124,-3.3124,-3.2927,-3.1633,-3.1223,-3.081,-2.8588,-2.8448,-2.8808,-2.6791,-2.6706,-2.7125,-2.6197,-2.583,-2.5693,-2.5693,-2.5693,-2.5693,-2.5693,-2.5693,-2.5693,-2.5693,-2.5693,-2.5693,-2.5693,-2.5693,-2.5693,-2.5693,-2.5693,-2.5693,-2.5693,-2.5635,-2.5596,-2.5596,-2.5547,-2.541,-2.5019,-2.5028,-2.4805,-2.4375,-2.4336,-2.415,-2.373,-2.3701,-2.3535,-2.311,-2.3091,-2.3178,-2.3299,-2.4296,-2.542,-2.6719,-2.6719,-2.6801,-2.6976,-2.7896,-2.8347,0.0,0.0,0.0,0.0,0.0,0.0,0.0,0.0,0.0,0.0,0.0,0.0,0.0,0.0,0.0,0.0,0.0,0.0,0.0,0.0,0.0,0.0,0.0,0.0,0.0,0.0,0.0,0.0,-2.2334,-2.2441,-2.2441,-2.2656,-2.274,-2.274,-2.3464,-2.3844,-2.3844,-2.4349,-2.4935,-2.5546,-2.6666,-2.7533,-2.8136,-2.8636,-2.9443,-3.052,-3.0821,-3.0959,-3.0997,-3.1537,-3.175,-3.1813,-3.2365,-3.2591,-3.2641,-3.2998,-3.3124,-3.2927,-3.1633,-3.1223,-3.0899,-2.9177,-2.8495,-2.8319,-2.7898,-2.721,-2.6572,-2.6706,-2.6245,-2.5693,-2.5693,-2.5693,-2.5693,-2.5693,-2.5693,-2.5693,-2.5693,-2.5693,-2.5693,-2.5693,-2.5693,-2.5693,-2.5693,-2.5693,-2.5693,-2.5693,-2.5693,-2.5693,-2.5693,-2.5693,-2.5615,-2.5469,-2.5439,-2.5264,-2.4814,-2.4785,-2.46,-2.417,-2.3916,-2.3701,-2.3516,-2.3227,-2.3091,-2.3091,-2.3594,-2.4425,-2.5546,-2.5546,-2.588,-2.6513,-2.6964,-2.7197,0.0,0.0,0.0,0.0,0.0,0.0,0.0,0.0,0.0,0.0,0.0,0.0,0.0,0.0,0.0,0.0,0.0,0.0,0.0,0.0,0.0,0.0,0.0,0.0,0.0,0.0,0.0,0.0,-2.1816,-2.1885,-2.1885,-2.2178,-2.2353,-2.2353,-2.2656,-2.2828,-2.2935,-2.3042,-2.3507,-2.4382,-2.5504,-2.6502,-2.7267,-2.7562,-2.8148,-2.9025,-2.9982,-3.0407,-3.0444,-3.0984,-3.1198,-3.1248,-3.1788,-3.2001,-3.2077,-3.2654,-3.2855,-3.2696,-3.1585,-3.1,-3.0541,-2.9315,-2.8319,-2.7731,-2.8262,-2.7389,-2.6294,-2.6945,-2.6428,-2.5693,-2.5693,-2.5693,-2.5693,-2.5693,-2.5693,-2.5693,-2.5693,-2.5693,-2.5693,-2.5693,-2.5693,-2.5693,-2.5693,-2.5693,-2.5693,-2.5693,-2.5693,-2.5693,-2.5693,-2.5693,-2.5693,-2.5693,-2.5693,-2.5605,-2.5273,-2.5234,-2.5049,-2.4609,-2.4287,-2.4014,-2.3799,-2.3477,-2.3208,-2.3091,-2.3091,-2.3507,-2.4372,-2.4372,-2.4798,-2.5641,-2.5933,-2.6058,0.0,0.0,0.0,0.0,0.0,0.0,0.0,0.0,0.0,0.0,0.0,0.0,0.0,0.0,0.0,0.0,0.0,0.0,0.0,0.0,0.0,0.0,0.0,0.0,0.0,0.0,0.0,0.0,-2.165,-2.1885,-2.1885,-2.1904,-2.1924,-2.1924,-2.1934,-2.2139,-2.2539,-2.2896,-2.3135,-2.3222,-2.4339,-2.4914,-2.4999,-2.6099,-2.6607,-2.6812,-2.8907,-2.9829,-2.988,-3.0432,-3.0658,-3.0708,-3.1235,-3.1436,-3.1499,-3.2051,-3.2252,-3.2159,-3.1452,-3.0451,-2.9269,-2.8096,-2.7636,-2.741,-2.6245,-2.6668,-2.7268,-2.611,-2.5732,-2.5693,-2.5693,-2.5693,-2.5693,-2.5693,-2.5693,-2.5693,-2.5693,-2.5693,-2.5693,-2.5693,-2.5693,-2.5693,-2.5693,-2.5693,-2.5693,-2.5693,-2.5693,-2.5693,-2.5693,-2.5693,-2.5693,-2.5693,-2.5693,-2.5674,-2.5654,-2.5654,-2.5518,-2.5106,-2.5057,-2.4639,-2.3828,-2.3769,-2.3555,-2.3101,-2.3091,-2.3135,-2.3178,-2.3178,-2.3222,-2.3299,-2.4382,-2.4872,0.0,0.0,0.0,0.0,0.0,0.0,0.0,0.0,0.0,0.0,0.0,0.0,0.0,0.0,0.0,0.0,0.0,0.0,0.0,0.0,0.0,0.0,0.0,0.0,0.0,0.0,0.0,0.0,0.0,-2.1075,-2.1075,-2.1309,-2.1465,-2.1465,-2.1738,-2.1963,-2.2109,-2.2529,-2.2691,-2.2744,-2.3378,-2.4082,-2.483,-2.521,-2.5808,-2.6565,-2.7354,-2.8079,-2.874,-2.8934,-2.9007,-2.9107,-3.0378,-3.0443,-2.9857,-3.0445,-3.0651,-3.0556,-2.989,-2.9397,-2.9004,-2.8813,-2.8226,-2.7494,-2.7078,-2.6668,-2.6294,-2.583,-2.5693,-2.5693,-2.5693,-2.5693,-2.5693,-2.5693,-2.5693,-2.5693,-2.5693,-2.5693,-2.5693,-2.5693,-2.5693,-2.5693,-2.5693,-2.5693,-2.5693,-2.5693,-2.5693,-2.5693,-2.5693,-2.5693,-2.5693,-2.5693,-2.5693,-2.5693,-2.5693,-2.5693,-2.5625,-2.5508,-2.5225,-2.4805,-2.4219,-2.3935,-2.3584,-2.3101,-2.3091,-2.3091,-2.3091,-2.3091,-2.3091,-2.3091,-2.3507,-2.3714,0.0,0.0,0.0,0.0,0.0,0.0,0.0,0.0,0.0,0.0,0.0,0.0,0.0,0.0,0.0,0.0,0.0,0.0,0.0,0.0,0.0,0.0,0.0,0.0,0.0,0.0,0.0,0.0,0.0,0.0,-2.0605,-2.085,-2.1016,-2.1016,-2.1435,-2.167,-2.167,-2.209,-2.2373,-2.2519,-2.275,-2.3368,-2.4211,-2.4211,-2.4638,-2.5347,-2.5347,-2.6408,-2.8084,-2.7723,-2.7976,-2.8724,-2.9088,-2.8967,-2.8678,-2.888,-2.8953,-2.8939,-2.8671,-2.831,-2.802,-2.8413,-2.7757,-2.6777,-2.6941,-2.639,-2.5693,-2.5693,-2.5693,-2.5693,-2.5693,-2.5693,-2.5693,-2.5693,-2.5693,-2.5693,-2.5693,-2.5693,-2.5693,-2.5693,-2.5693,-2.5693,-2.5693,-2.5693,-2.5693,-2.5693,-2.5693,-2.5693,-2.5693,-2.5693,-2.5693,-2.5693,-2.5693,-2.5693,-2.5693,-2.5693,-2.5693,-2.5693,-2.5459,-2.5098,-2.4648,-2.4228,-2.3799,-2.3315,-2.3169,-2.3091,-2.3091,-2.3091,-2.3091,-2.3091,-2.3091,-2.3091,0.0,0.0,0.0,0.0,0.0,0.0,0.0,0.0,0.0,0.0,0.0,0.0,0.0,0.0,0.0,0.0,0.0,0.0,0.0,0.0,0.0,0.0,0.0,0.0,0.0,0.0,0.0,0.0,-2.0605,-2.0605,-2.0605,-2.0605,-2.0605,-2.0605,-2.0986,-2.1171,-2.1171,-2.165,-2.207,-2.248,-2.249,-2.2672,-2.3081,-2.3081,-2.3081,-2.3091,-2.3091,-2.4957,-2.7924,-2.6883,-2.7718,-2.9456,-2.7342,-2.7128,-2.7943,-2.7429,-2.7231,-2.7298,-2.7792,-2.7217,-2.628,-2.6718,-2.6062,-2.5146,-2.5538,-2.5674,-2.5693,-2.5693,-2.5693,-2.5693,-2.5693,-2.5693,-2.5693,-2.5693,-2.5693,-2.5693,-2.5693,-2.5693,-2.5693,-2.5693,-2.5693,-2.5693,-2.5693,-2.5693,-2.5693,-2.5693,-2.5693,-2.5693,-2.5693,-2.5693,-2.5693,-2.5693,-2.5693,-2.5693,-2.5693,-2.5693,-2.5693,-2.5693,-2.5693,-2.5537,-2.5135,-2.4648,-2.4219,-2.3799,-2.3315,-2.3091,-2.3091,-2.3091,-2.3091,-2.3091,-2.3091,-2.3091,-2.0605,0.0,0.0,0.0,0.0,0.0,0.0,0.0,0.0,0.0,0.0,0.0,0.0,0.0,0.0,0.0,0.0,0.0,0.0,0.0,0.0,0.0,0.0,0.0,0.0,0.0,0.0,0.0,-2.0605,-2.0605,-2.0605,-2.0605,-2.0605,-2.0605,-2.0723,-2.0752,-2.0752,-2.1191,-2.1434,-2.1551,-2.1904,-2.2275,-2.2685,-2.2685,-2.2808,-2.3091,-2.3091,-2.4082,-2.5692,-2.5368,-2.5619,-2.6202,-2.6431,-2.6171,-2.5714,-2.556,-2.5487,-2.5434,-2.5104,-2.479,-2.4556,-2.495,-2.5085,-2.5135,-2.5215,-2.5478,-2.5693,-2.5693,-2.5693,-2.5693,-2.5693,-2.5693,-2.5693,-2.5693,-2.5693,-2.5693,-2.5693,-2.5693,-2.5693,-2.5693,-2.5693,-2.5693,-2.5693,-2.5693,-2.5693,-2.5693,-2.5693,-2.5693,-2.5693,-2.5693,-2.5693,-2.5693,-2.5693,-2.5693,-2.5693,-2.5693,-2.5693,-2.5693,-2.5693,-2.5537,-2.5135,-2.4648,-2.4219,-2.3799,-2.3315,-2.3091,-2.3091,-2.3091,-2.3091,-2.3091,-2.3091,-2.3091,0.0,0.0,0.0,0.0,0.0,0.0,-1.9735,-1.9657,0.0,0.0,0.0,0.0,0.0,0.0,0.0,0.0,0.0,0.0,0.0,0.0,0.0,0.0,0.0,0.0,0.0,-2.0605,-2.0605,-2.0605,-2.0605,-2.0605,-2.0605,-2.0605,-2.0605,-2.0605,-2.0605,-2.0605,-2.0605,-2.083,-2.1045,-2.12,-2.1494,-2.1836,-2.2256,-2.2432,-2.2646,-2.2847,-2.3023,-2.3464,-2.4082,-2.4082,-2.467,-2.5546,-2.5724,-2.5378,-2.4745,-2.4253,-2.4082,-2.4046,-2.3639,-2.3516,-2.3584,-2.4014,-2.4326,-2.4646,-2.5008,-2.5254,-2.5498,-2.5635,-2.5693,-2.5693,-2.5693,-2.5693,-2.5693,-2.5693,-2.5693,-2.5693,-2.5693,-2.5693,-2.5693,-2.5693,-2.5693,-2.5693,-2.5693,-2.5693,-2.5693,-2.5693,-2.5693,-2.5693,-2.5693,-2.5693,-2.5693,-2.5693,-2.5693,-2.5693,-2.5693,-2.5693,-2.5693,-2.5693,-2.5693,-2.5567,-2.5361,-2.4746,-2.4307,-2.4053,-2.3403,-2.3091,-2.3091,-2.3091,-2.3091,-2.3091,-2.3091,-2.3091,0.0,0.0,0.0,0.0,0.0,0.0,-1.8643,-1.8413,-1.8234,0.0,0.0,0.0,0.0,0.0,0.0,0.0,0.0,0.0,0.0,0.0,0.0,0.0,0.0,0.0,-2.0605,-2.0605,-2.0605,-2.0605,-2.0605,-2.0605,-2.0605,-2.0605,-2.0605,-2.0605,-2.0605,-2.0605,-2.0605,-2.0605,-2.0762,-2.1122,-2.1122,-2.1396,-2.1826,-2.2197,-2.2422,-2.2539,-2.2867,-2.3052,-2.3091,-2.3266,-2.4392,-2.6016,-2.501,-2.4617,-2.45,-2.3464,-2.3091,-2.3091,-2.3091,-2.3091,-2.3159,-2.3594,-2.375,-2.3926,-2.4744,-2.5037,-2.5166,-2.5605,-2.5693,-2.5693,-2.5693,-2.5693,-2.5693,-2.5693,-2.5693,-2.5693,-2.5693,-2.5693,-2.5693,-2.5693,-2.5693,-2.5693,-2.5693,-2.5693,-2.5693,-2.5693,-2.5693,-2.5693,-2.5693,-2.5693,-2.5693,-2.5693,-2.5693,-2.5693,-2.5693,-2.5693,-2.5693,-2.5693,-2.5693,-2.5693,-2.5693,-2.4836,-2.4414,-2.4414,-2.353,-2.3091,-2.3091,-2.3091,-2.3091,-2.3091,-2.3091,-2.3091,0.0,0.0,0.0,0.0,0.0,0.0,-1.9147,-1.9101,-1.9056,0.0,0.0,0.0,0.0,0.0,0.0,0.0,0.0,0.0,0.0,0.0,0.0,0.0,0.0,0.0,-2.0605,-2.0605,-2.0605,-2.0605,-2.0605,-2.0605,-2.0605,-2.0605,-2.0605,-2.0605,-2.0605,-2.0605,-2.0605,-2.0605,-2.0644,-2.0732,-2.0732,-2.0928,-2.1327,-2.1405,-2.1824,-2.2519,-2.2598,-2.2779,-2.3178,-2.4082,-2.4178,-2.3724,-2.3507,-2.343,-2.3377,-2.3178,-2.3091,-2.3091,-2.3091,-2.3091,-2.311,-2.3198,-2.3506,-2.3818,-2.3984,-2.4521,-2.5166,-2.5605,-2.5693,-2.5693,-2.5693,-2.5693,-2.5693,-2.5693,-2.5693,-2.5693,-2.5693,-2.5693,-2.5693,-2.5693,-2.5693,-2.5693,-2.5693,-2.5693,-2.5693,-2.5693,-2.5693,-2.5693,-2.5693,-2.5693,-2.5693,-2.5693,-2.5693,-2.5693,-2.5693,-2.5693,-2.5693,-2.5693,-2.5693,-2.5693,-2.5693,-2.4836,-2.4414,-2.4414,-2.353,-2.3091,-2.3091,-2.3091,-2.3091,-2.3091,-2.3091,-2.3091,0.0,0.0,0.0,-1.9648,0.0,0.0,0.0,-1.8152,-1.8054,-1.7712,0.0,0.0,0.0,0.0,0.0,0.0,0.0,0.0,0.0,0.0,0.0,0.0,0.0,0.0,-1.9572,-2.0198,-2.0605,-2.0605,-2.0605,-2.0605,-2.0605,-2.0605,-2.0605,-2.0605,-2.0605,-2.0605,-2.0605,-2.0605,-2.0605,-2.0605,-2.0605,-2.0723,-2.0908,-2.1093,-2.1424,-2.1894,-2.2324,-2.2627,-2.2842,-2.3624,-2.3637,-2.3178,-2.3714,-2.3594,-2.3091,-2.3091,-2.3091,-2.3091,-2.3091,-2.3091,-2.3091,-2.3091,-2.3247,-2.3506,-2.3721,-2.4385,-2.5165,-2.5342,-2.5566,-2.5693,-2.5693,-2.5693,-2.5693,-2.5693,-2.5693,-2.5693,-2.5693,-2.5693,-2.5693,-2.5693,-2.5693,-2.5693,-2.5693,-2.5693,-2.5693,-2.5693,-2.5693,-2.5693,-2.5693,-2.5693,-2.5693,-2.5693,-2.5693,-2.5693,-2.5693,-2.5693,-2.5693,-2.5693,-2.5693,-2.5693,-2.5693,-2.4836,-2.4219,-2.3744,-2.3315,-2.3091,-2.3091,-2.3091,-2.3091,-2.3091,-2.3091,-2.3091,0.0,0.0,0.0,0.0,0.0,-1.8261,0.0,0.0,0.0,-1.6485,0.0,0.0,0.0,0.0,0.0,0.0,0.0,0.0,0.0,0.0,0.0,0.0,0.0,0.0,-1.8082,-1.9351,-2.0236,-2.0274,-2.0479,-2.0605,-2.0605,-2.0605,-2.0605,-2.0605,-2.0605,-2.0605,-2.0605,-2.0605,-2.0605,-2.0605,-2.0605,-2.0605,-2.0615,-2.0937,-2.1112,-2.1239,-2.1921,-2.2363,-2.2539,-2.2838,-2.3023,-2.3178,-2.4125,-2.392,-2.3091,-2.3091,-2.3091,-2.3091,-2.3091,-2.3091,-2.3091,-2.3091,-2.3091,-2.3179,-2.3662,-2.4268,-2.4853,-2.5067,-2.5332,-2.5577,-2.5664,-2.5693,-2.5693,-2.5693,-2.5693,-2.5693,-2.5693,-2.5693,-2.5693,-2.5693,-2.5693,-2.5693,-2.5693,-2.5693,-2.5693,-2.5693,-2.5693,-2.5693,-2.5693,-2.5693,-2.5693,-2.5693,-2.5693,-2.5693,-2.5693,-2.5693,-2.5693,-2.5693,-2.5693,-2.5693,-2.5693,-2.4836,-2.3968,-2.311,-2.3091,-2.3091,-2.3091,-2.3091,-2.3091,-2.3091,-2.3091,-2.3091,0.0,0.0,0.0,0.0,-1.8682,0.0,0.0,0.0,-1.7846,-1.7781,0.0,0.0,0.0,0.0,0.0,0.0,0.0,0.0,0.0,0.0,0.0,0.0,0.0,0.0,0.0,-1.7905,-1.885,-1.9177,-2.004,-2.0605,-2.0605,-2.0605,-2.0605,-2.0605,-2.0605,-2.0605,-2.0605,-2.0605,-2.0605,-2.0605,-2.0605,-2.0605,-2.0605,-2.0654,-2.0859,-2.12,-2.1298,-2.1765,-2.2519,-2.2568,-2.276,-2.3091,-2.3266,-2.3222,-2.3091,-2.3091,-2.3091,-2.3091,-2.3091,-2.3091,-2.3091,-2.3091,-2.3091,-2.3179,-2.3662,-2.3857,-2.4092,-2.49,-2.5155,-2.5234,-2.5635,-2.5693,-2.5693,-2.5693,-2.5693,-2.5693,-2.5693,-2.5693,-2.5693,-2.5693,-2.5693,-2.5693,-2.5693,-2.5693,-2.5693,-2.5693,-2.5693,-2.5693,-2.5693,-2.5693,-2.5693,-2.5693,-2.5693,-2.5693,-2.5693,-2.5693,-2.5693,-2.5693,-2.5693,-2.5693,-2.5693,-2.4836,-2.3968,-2.311,-2.3091,-2.3091,-2.3091,-2.3091,-2.3091,-2.3091,-2.3091,-2.3091,0.0,0.0,0.0,0.0,0.0,0.0,-1.8066,0.0,-1.8008,0.0,0.0,0.0,0.0,0.0,0.0,0.0,-1.4142,0.0,0.0,0.0,0.0,0.0,0.0,0.0,0.0,0.0,0.0,-1.7817,-1.9274,-2.0053,-1.9708,-2.0245,-2.0605,-2.0605,-2.0605,-2.0605,-2.0605,-2.0605,-2.0605,-2.0605,-2.0605,-2.0605,-2.0605,-2.0605,-2.0703,-2.0859,-2.1083,-2.1395,-2.1765,-2.2305,-2.2617,-2.2803,-2.3003,-2.3091,-2.3091,-2.3091,-2.3091,-2.3091,-2.3091,-2.3091,-2.3091,-2.3091,-2.3091,-2.313,-2.3315,-2.3584,-2.3867,-2.4228,-2.4502,-2.4795,-2.5234,-2.5352,-2.541,-2.5625,-2.5693,-2.5693,-2.5693,-2.5693,-2.5693,-2.5693,-2.5693,-2.5693,-2.5693,-2.5693,-2.5693,-2.5693,-2.5693,-2.5693,-2.5693,-2.5693,-2.5693,-2.5693,-2.5693,-2.5693,-2.5693,-2.5693,-2.5693,-2.5693,-2.5488,-2.5234,-2.498,-2.4375,-2.376,-2.311,-2.3091,-2.3091,-2.3091,-2.3091,-2.3091,-2.3091,-2.3091,-2.3091,-2.0605,0.0,0.0,0.0,0.0,0.0,0.0,0.0,0.0,0.0,0.0,0.0,0.0,0.0,0.0,0.0,0.0,-1.307,0.0,0.0,0.0,0.0,0.0,0.0,0.0,0.0,0.0,-1.6746,-1.8343,-1.9069,-1.8452,-1.9422,-2.0081,-2.0157,-2.045,-2.0605,-2.0605,-2.0605,-2.0605,-2.0605,-2.0605,-2.0605,-2.0605,-2.0605,-2.0605,-2.0625,-2.0908,-2.1083,-2.1239,-2.1863,-2.2262,-2.2539,-2.2808,-2.2994,-2.3091,-2.3091,-2.3091,-2.3091,-2.3091,-2.3091,-2.3091,-2.3091,-2.3091,-2.3091,-2.3091,-2.3359,-2.3633,-2.375,-2.4014,-2.4346,-2.4775,-2.4893,-2.5,-2.5449,-2.5557,-2.5586,-2.5664,-2.5693,-2.5693,-2.5693,-2.5693,-2.5693,-2.5693,-2.5693,-2.5693,-2.5693,-2.5693,-2.5693,-2.5693,-2.5693,-2.5693,-2.5693,-2.5693,-2.5693,-2.5693,-2.5693,-2.5693,-2.5693,-2.5312,-2.4873,-2.4434,-2.4014,-2.3584,-2.3101,-2.3091,-2.3091,-2.3091,-2.3091,-2.3091,-2.3091,-2.3091,-2.3091,0.0,0.0,0.0,-1.9394,0.0,0.0,0.0,0.0,-1.8008,0.0,0.0,0.0,0.0,0.0,0.0,-1.3362,0.0,0.0,0.0,0.0,0.0,0.0,0.0,0.0,0.0,0.0,-1.695,-1.6287,-1.7289,-1.7654,-1.6999,-1.7976,-1.8715,-1.9027,-2.004,-2.0605,-2.0605,-2.0605,-2.0605,-2.0605,-2.0605,-2.0605,-2.0605,-2.0605,-2.0605,-2.0605,-2.0615,-2.083,-2.119,-2.122,-2.1726,-2.251,-2.2529,-2.2783,-2.3091,-2.3091,-2.3091,-2.3091,-2.3091,-2.3091,-2.3091,-2.3091,-2.3091,-2.3091,-2.3091,-2.311,-2.3198,-2.3672,-2.3799,-2.3906,-2.4326,-2.4443,-2.4551,-2.5028,-2.5135,-2.5205,-2.5644,-2.5693,-2.5693,-2.5693,-2.5693,-2.5693,-2.5693,-2.5693,-2.5693,-2.5693,-2.5693,-2.5693,-2.5693,-2.5693,-2.5693,-2.5693,-2.5693,-2.5693,-2.5693,-2.5693,-2.5693,-2.5693,-2.5312,-2.4873,-2.4434,-2.4014,-2.3584,-2.3101,-2.3091,-2.3091,-2.3091,-2.3091,-2.3091,-2.3091,-2.3091,-2.3091,0.0,0.0,-1.8197,-1.8247,0.0,0.0,0.0,0.0,0.0,0.0,0.0,0.0,0.0,0.0,0.0,-1.2637,-1.2451,0.0,0.0,0.0,0.0,0.0,0.0,0.0,0.0,0.0,0.0,-1.4062,-1.5546,-1.6234,-1.556,-1.6718,-1.7826,-1.8638,-1.9224,-1.9883,-2.0605,-2.0605,-2.0605,-2.0605,-2.0605,-2.0605,-2.0605,-2.0605,-2.0605,-2.0605,-2.0605,-2.0693,-2.081,-2.1073,-2.1366,-2.1678,-2.2295,-2.2598,-2.2754,-2.2994,-2.3091,-2.3091,-2.3091,-2.3091,-2.3091,-2.3091,-2.3091,-2.3091,-2.3091,-2.3091,-2.312,-2.3276,-2.3359,-2.3457,-2.3887,-2.4004,-2.4111,-2.4541,-2.4639,-2.4756,-2.5195,-2.5293,-2.5381,-2.5635,-2.5693,-2.5693,-2.5693,-2.5693,-2.5693,-2.5693,-2.5693,-2.5693,-2.5693,-2.5693,-2.5693,-2.5693,-2.5693,-2.5693,-2.5693,-2.5693,-2.5605,-2.5312,-2.4883,-2.4443,-2.4014,-2.3584,-2.3247,-2.3091,-2.3091,-2.2721,-2.1889,-2.1889,-2.1489,-2.0728,-2.0728,-2.1587,-1.839,-1.7868,0.0,-1.7199,-1.7159,0.0,-1.702,0.0,0.0,0.0,0.0,0.0,0.0,0.0,0.0,-1.2305,-1.2305,0.0,0.0,-1.2305,0.0,0.0,0.0,0.0,0.0,0.0,-1.4617,-1.3241,-1.4303,-1.4782,0.0,-1.5769,-1.7106,-1.792,-1.8985,-1.9883,-2.0605,-2.0605,-2.0605,-2.0605,-2.0605,-2.0605,-2.0605,-2.0605,-2.0605,-2.0605,-2.0605,-2.0605,-2.0625,-2.0879,-2.1094,-2.1249,-2.1804,-2.2246,-2.2568,-2.2945,-2.3091,-2.3091,-2.3091,-2.3091,-2.3091,-2.3091,-2.3091,-2.3091,-2.3091,-2.3091,-2.312,-2.3286,-2.3218,-2.3198,-2.3682,-2.3682,-2.3662,-2.4092,-2.4199,-2.4316,-2.4746,-2.4834,-2.4922,-2.5215,-2.5216,-2.5274,-2.5478,-2.5044,-2.4956,-2.5616,-2.5693,-2.5693,-2.5693,-2.5693,-2.5693,-2.5693,-2.5693,-2.5693,-2.5693,-2.5596,-2.5371,-2.5135,-2.4521,-2.388,-2.3193,-2.3104,-2.2754,-2.1977,-2.2293,-2.1919,-2.0821,-2.0727,-2.026,-1.9497,-1.9497,-2.0314]}]]